[[{"header":{"parameterUnit":"m.s-1","parameterCategory":1,"la1":30.6,"la2":29.2853,"lo1":-89.7004,"lo2":-87.6739,"dy":0.0162,"dx":0.0183,"nx":112,"ny":82,"refTime":"2023-11-14T06:00:00:Z","depth":0,"parameterNumber":2,"parameterNumberName":"U-component_of_WINDS"},"data":[0.0,0.0,0.0,0.0,0.0,0.0,0.0,0.0,0.0,0.0,0.0,0.0,0.0,0.0,0.0,0.0,0.0,0.0,0.0,0.0,0.0,0.0,0.0,0.0,0.0,0.0,0.0,0.0,0.0,0.0,0.0,0.0,0.0,0.0,0.0,0.0,0.0,0.0,0.0,0.0,0.0,0.0,0.0,0.0,0.0,0.0,0.0,0.0,0.0,0.0,0.0,0.0,0.0,0.0,0.0,0.0,0.0,0.0,0.0,0.0,0.0,0.0,0.0,0.0,0.0,0.0,0.0,0.0,0.0,0.0,0.0,0.0,0.0,0.0,0.0,0.0,0.0,0.0,0.0,0.0,0.0,0.0,0.0,0.0,0.0,0.0,0.0,0.0,0.0,0.0,0.0,5.5703,5.5703,5.5703,5.5703,5.5703,5.5703,5.5703,0.0,0.0,0.0,0.0,0.0,0.0,0.0,0.0,0.0,0.0,0.0,0.0,0.0,0.0,0.0,0.0,0.0,0.0,0.0,0.0,0.0,0.0,0.0,0.0,0.0,0.0,0.0,0.0,0.0,0.0,0.0,0.0,0.0,0.0,0.0,0.0,0.0,0.0,0.0,0.0,0.0,0.0,0.0,0.0,0.0,0.0,0.0,0.0,0.0,0.0,0.0,0.0,0.0,0.0,0.0,0.0,0.0,0.0,0.0,0.0,0.0,0.0,0.0,0.0,0.0,0.0,0.0,0.0,0.0,0.0,0.0,0.0,0.0,0.0,0.0,0.0,0.0,0.0,0.0,0.0,0.0,0.0,0.0,0.0,0.0,0.0,0.0,0.0,0.0,0.0,0.0,0.0,0.0,0.0,0.0,0.0,0.0,0.0,0.0,0.0,0.0,0.0,0.0,0.0,5.5703,5.5703,5.5703,5.5703,5.5703,5.5703,5.5703,5.5703,0.0,0.0,0.0,0.0,0.0,0.0,0.0,0.0,0.0,0.0,0.0,0.0,0.0,0.0,0.0,0.0,0.0,0.0,0.0,0.0,0.0,0.0,0.0,0.0,0.0,0.0,0.0,0.0,0.0,0.0,0.0,0.0,0.0,0.0,0.0,0.0,0.0,0.0,0.0,0.0,0.0,0.0,0.0,0.0,0.0,0.0,0.0,0.0,0.0,0.0,0.0,0.0,0.0,0.0,0.0,0.0,0.0,0.0,0.0,0.0,0.0,0.0,0.0,0.0,0.0,0.0,0.0,0.0,0.0,0.0,0.0,0.0,0.0,0.0,0.0,0.0,0.0,0.0,0.0,0.0,0.0,0.0,0.0,0.0,0.0,0.0,0.0,0.0,0.0,0.0,0.0,0.0,0.0,0.0,0.0,0.0,0.0,0.0,0.0,0.0,0.0,0.0,0.0,5.5703,5.5703,5.5703,5.5703,5.5703,5.5703,5.5703,5.5703,5.5703,5.5703,0.0,0.0,0.0,0.0,0.0,0.0,0.0,0.0,0.0,0.0,0.0,0.0,0.0,0.0,0.0,0.0,0.0,0.0,0.0,0.0,0.0,0.0,0.0,0.0,0.0,0.0,0.0,0.0,0.0,0.0,0.0,0.0,0.0,0.0,0.0,0.0,0.0,0.0,0.0,0.0,0.0,0.0,0.0,0.0,0.0,0.0,0.0,0.0,0.0,0.0,0.0,0.0,0.0,0.0,0.0,0.0,0.0,0.0,0.0,0.0,0.0,0.0,0.0,0.0,0.0,0.0,0.0,0.0,0.0,0.0,0.0,0.0,0.0,0.0,0.0,0.0,0.0,0.0,0.0,0.0,0.0,0.0,0.0,0.0,0.0,0.0,0.0,0.0,0.0,0.0,0.0,0.0,0.0,0.0,0.0,0.0,0.0,0.0,0.0,0.0,0.0,0.0,5.5703,5.5703,5.5703,5.5703,5.5703,5.5703,5.5703,5.5703,5.5703,5.5703,0.0,0.0,0.0,0.0,0.0,0.0,0.0,0.0,0.0,0.0,0.0,0.0,0.0,0.0,0.0,0.0,0.0,0.0,0.0,0.0,0.0,0.0,0.0,0.0,0.0,0.0,0.0,0.0,0.0,0.0,0.0,0.0,0.0,0.0,0.0,0.0,0.0,0.0,0.0,0.0,0.0,0.0,0.0,0.0,0.0,0.0,0.0,0.0,0.0,0.0,0.0,0.0,0.0,0.0,0.0,0.0,0.0,0.0,0.0,0.0,0.0,0.0,0.0,0.0,0.0,0.0,0.0,0.0,0.0,0.0,0.0,0.0,0.0,0.0,0.0,0.0,0.0,0.0,0.0,0.0,0.0,0.0,0.0,0.0,0.0,0.0,0.0,0.0,0.0,0.0,0.0,0.0,0.0,0.0,0.0,0.0,0.0,0.0,0.0,0.0,0.0,0.0,5.5703,5.5703,5.5703,5.5703,5.5703,5.5703,5.5703,5.5703,5.5703,5.5703,0.0,0.0,0.0,0.0,0.0,0.0,0.0,0.0,0.0,0.0,0.0,0.0,0.0,0.0,0.0,0.0,0.0,0.0,0.0,0.0,0.0,0.0,0.0,0.0,0.0,0.0,0.0,0.0,0.0,0.0,0.0,0.0,0.0,0.0,0.0,0.0,0.0,0.0,0.0,0.0,0.0,0.0,0.0,0.0,0.0,0.0,0.0,0.0,0.0,0.0,0.0,0.0,0.0,0.0,0.0,0.0,0.0,0.0,0.0,0.0,0.0,0.0,0.0,0.0,0.0,0.0,0.0,0.0,0.0,0.0,0.0,0.0,0.0,0.0,0.0,0.0,0.0,0.0,0.0,0.0,0.0,0.0,0.0,0.0,0.0,0.0,0.0,0.0,0.0,0.0,0.0,0.0,0.0,0.0,0.0,0.0,0.0,0.0,0.0,0.0,0.0,0.0,5.5703,5.5703,0.0,5.5703,5.5703,5.5703,5.5703,5.5703,5.5703,0.0,0.0,0.0,0.0,0.0,0.0,0.0,0.0,0.0,0.0,0.0,0.0,0.0,0.0,0.0,0.0,0.0,0.0,0.0,0.0,0.0,0.0,0.0,0.0,0.0,0.0,0.0,0.0,0.0,0.0,0.0,0.0,0.0,0.0,0.0,0.0,0.0,0.0,0.0,0.0,0.0,0.0,0.0,0.0,0.0,0.0,0.0,0.0,0.0,0.0,0.0,0.0,0.0,0.0,0.0,0.0,0.0,0.0,0.0,0.0,0.0,0.0,0.0,0.0,0.0,0.0,0.0,0.0,0.0,0.0,0.0,0.0,0.0,0.0,0.0,0.0,0.0,0.0,0.0,0.0,0.0,0.0,0.0,0.0,0.0,0.0,0.0,0.0,0.0,0.0,0.0,0.0,0.0,0.0,0.0,0.0,0.0,0.0,0.0,0.0,0.0,0.0,5.5703,5.5703,5.5703,0.0,5.5703,5.5703,5.5703,5.5703,5.5703,5.5703,0.0,0.0,0.0,0.0,0.0,0.0,0.0,0.0,0.0,0.0,0.0,0.0,0.0,0.0,0.0,0.0,0.0,0.0,0.0,0.0,0.0,0.0,0.0,0.0,0.0,0.0,0.0,0.0,0.0,0.0,0.0,0.0,0.0,0.0,0.0,0.0,0.0,0.0,0.0,0.0,0.0,0.0,0.0,0.0,0.0,0.0,0.0,0.0,0.0,0.0,0.0,0.0,0.0,0.0,0.0,0.0,0.0,0.0,0.0,0.0,0.0,0.0,0.0,0.0,0.0,0.0,0.0,0.0,0.0,0.0,0.0,0.0,0.0,0.0,0.0,0.0,0.0,0.0,0.0,0.0,0.0,0.0,0.0,0.0,0.0,0.0,0.0,0.0,0.0,0.0,0.0,0.0,0.0,0.0,0.0,0.0,0.0,0.0,0.0,0.0,0.0,0.0,5.5703,5.5703,5.5703,5.5703,5.5703,5.5703,5.5703,5.5703,5.5703,0.0,0.0,0.0,0.0,0.0,0.0,0.0,0.0,0.0,0.0,0.0,0.0,0.0,0.0,0.0,0.0,0.0,0.0,0.0,0.0,0.0,0.0,0.0,0.0,0.0,0.0,0.0,0.0,0.0,0.0,0.0,0.0,0.0,0.0,0.0,0.0,0.0,0.0,0.0,0.0,0.0,0.0,0.0,0.0,0.0,0.0,0.0,0.0,0.0,0.0,0.0,0.0,0.0,0.0,0.0,0.0,0.0,0.0,0.0,0.0,0.0,0.0,0.0,0.0,0.0,0.0,0.0,0.0,0.0,0.0,0.0,0.0,0.0,0.0,0.0,0.0,0.0,0.0,0.0,0.0,0.0,0.0,0.0,0.0,0.0,0.0,0.0,0.0,0.0,0.0,0.0,0.0,0.0,0.0,0.0,0.0,0.0,0.0,0.0,0.0,0.0,0.0,0.0,0.0,5.5703,5.5703,5.5703,5.5703,5.5703,5.5703,5.5703,5.5703,5.5703,0.0,0.0,0.0,0.0,0.0,0.0,0.0,0.0,0.0,0.0,0.0,0.0,0.0,0.0,0.0,0.0,0.0,0.0,0.0,0.0,0.0,0.0,0.0,0.0,0.0,0.0,0.0,0.0,0.0,0.0,0.0,0.0,0.0,0.0,0.0,0.0,0.0,0.0,0.0,0.0,0.0,0.0,0.0,0.0,0.0,0.0,0.0,0.0,0.0,0.0,0.0,0.0,0.0,0.0,0.0,0.0,0.0,0.0,0.0,0.0,0.0,0.0,0.0,0.0,0.0,0.0,0.0,0.0,0.0,0.0,0.0,0.0,0.0,0.0,0.0,0.0,0.0,0.0,0.0,0.0,0.0,0.0,0.0,0.0,0.0,0.0,0.0,0.0,0.0,0.0,0.0,0.0,0.0,0.0,0.0,0.0,0.0,0.0,0.0,0.0,0.0,0.0,5.5703,5.5703,5.5703,5.5703,5.5703,5.5703,5.5703,5.5703,5.5703,5.5703,0.0,0.0,0.0,0.0,0.0,0.0,0.0,0.0,0.0,0.0,0.0,0.0,0.0,0.0,0.0,0.0,0.0,0.0,0.0,0.0,0.0,0.0,0.0,0.0,0.0,0.0,0.0,0.0,0.0,0.0,0.0,0.0,0.0,0.0,0.0,0.0,0.0,0.0,0.0,0.0,0.0,0.0,0.0,0.0,0.0,0.0,0.0,0.0,0.0,0.0,0.0,0.0,0.0,0.0,0.0,0.0,0.0,0.0,0.0,0.0,0.0,0.0,0.0,0.0,0.0,0.0,0.0,0.0,0.0,0.0,0.0,0.0,0.0,0.0,0.0,0.0,0.0,0.0,0.0,0.0,0.0,0.0,0.0,0.0,0.0,0.0,0.0,0.0,0.0,0.0,0.0,0.0,0.0,0.0,0.0,0.0,0.0,0.0,0.0,0.0,0.0,0.0,5.5703,5.5703,5.5703,5.5703,5.5703,5.5703,5.5703,5.5703,5.5742,5.5818,0.0,0.0,0.0,0.0,0.0,0.0,0.0,0.0,0.0,0.0,0.0,0.0,0.0,0.0,0.0,0.0,0.0,0.0,0.0,0.0,0.0,0.0,0.0,0.0,0.0,0.0,0.0,0.0,0.0,0.0,0.0,0.0,0.0,0.0,0.0,0.0,0.0,0.0,0.0,0.0,0.0,0.0,0.0,0.0,0.0,0.0,0.0,0.0,0.0,0.0,0.0,0.0,0.0,0.0,0.0,0.0,0.0,0.0,0.0,0.0,5.0906,0.0,0.0,0.0,0.0,0.0,0.0,0.0,0.0,0.0,0.0,0.0,0.0,0.0,0.0,0.0,0.0,0.0,0.0,0.0,0.0,0.0,0.0,0.0,0.0,0.0,0.0,0.0,0.0,0.0,0.0,0.0,0.0,0.0,0.0,0.0,0.0,0.0,0.0,0.0,0.0,0.0,5.5703,5.5703,5.5703,5.5703,5.5703,5.5703,5.5703,5.5703,5.5972,5.6665,0.0,0.0,0.0,0.0,0.0,0.0,0.0,0.0,0.0,0.0,0.0,0.0,0.0,0.0,0.0,0.0,0.0,0.0,0.0,0.0,0.0,0.0,0.0,0.0,0.0,0.0,0.0,0.0,0.0,0.0,0.0,0.0,0.0,0.0,0.0,0.0,0.0,0.0,0.0,0.0,0.0,0.0,0.0,0.0,0.0,0.0,0.0,0.0,0.0,0.0,0.0,0.0,0.0,0.0,0.0,0.0,0.0,0.0,0.0,0.0,0.0,5.0906,0.0,0.0,0.0,0.0,0.0,0.0,0.0,0.0,0.0,0.0,0.0,0.0,0.0,0.0,0.0,0.0,0.0,0.0,0.0,0.0,0.0,0.0,0.0,0.0,0.0,0.0,0.0,0.0,0.0,0.0,0.0,0.0,0.0,0.0,0.0,0.0,0.0,0.0,0.0,0.0,5.5703,5.5703,5.5703,5.5703,5.6049,5.6319,5.6319,5.6703,5.7126,5.7588,5.7203,0.0,0.0,0.0,0.0,0.0,0.0,0.0,0.0,0.0,0.0,0.0,0.0,0.0,0.0,0.0,0.0,0.0,0.0,0.0,0.0,0.0,0.0,0.0,0.0,0.0,0.0,0.0,0.0,0.0,0.0,0.0,0.0,0.0,0.0,0.0,0.0,0.0,0.0,0.0,0.0,0.0,0.0,0.0,0.0,0.0,0.0,0.0,0.0,0.0,0.0,0.0,0.0,0.0,0.0,0.0,5.1354,5.1354,5.137,5.137,5.137,5.1177,5.089,0.0,0.0,0.0,0.0,0.0,0.0,0.0,0.0,0.0,0.0,0.0,0.0,0.0,0.0,0.0,0.0,0.0,0.0,0.0,0.0,0.0,0.0,0.0,0.0,0.0,5.598,5.5981,0.0,0.0,0.0,0.0,0.0,0.0,0.0,0.0,0.0,0.0,0.0,0.0,5.5703,5.5818,5.5934,5.5934,5.6703,5.7242,5.7242,5.7896,5.8357,5.8511,5.8396,5.8434,0.0,0.0,0.0,0.0,0.0,0.0,0.0,0.0,0.0,0.0,0.0,0.0,0.0,0.0,0.0,0.0,0.0,0.0,0.0,0.0,0.0,0.0,0.0,0.0,0.0,0.0,0.0,0.0,0.0,0.0,0.0,0.0,4.7264,4.8205,0.0,0.0,0.0,0.0,0.0,0.0,0.0,0.0,0.0,0.0,0.0,0.0,0.0,0.0,5.0906,5.1657,5.2043,5.2043,5.2807,5.3138,5.3138,5.3172,5.3149,5.3172,5.3172,0.0,5.089,5.0924,0.0,0.0,0.0,0.0,0.0,0.0,0.0,0.0,0.0,0.0,0.0,0.0,0.0,0.0,0.0,0.0,0.0,0.0,0.0,0.0,0.0,0.0,5.5995,5.5995,5.5995,5.5977,0.0,5.5845,5.5787,5.5787,0.0,0.0,0.0,0.0,0.0,0.0,0.0,0.0,5.5703,5.6357,5.6819,5.6819,5.7627,5.8127,5.8127,5.8242,5.8588,5.9319,5.8704,5.8934,6.0396,5.9088,0.0,0.0,0.0,0.0,0.0,0.0,0.0,0.0,0.0,0.0,0.0,0.0,0.0,0.0,0.0,0.0,0.0,0.0,0.0,0.0,0.0,0.0,0.0,0.0,0.0,0.0,0.0,0.0,0.0,4.6549,4.7424,4.8284,4.9135,4.9985,0.0,0.0,0.0,0.0,0.0,0.0,0.0,0.0,0.0,5.1602,5.1641,5.1889,5.2353,5.2756,5.2933,5.294,5.3331,5.3486,5.3486,5.352,5.3498,5.3481,5.3498,5.3072,5.2376,5.2292,5.2453,5.282,0.0,0.0,0.0,0.0,0.0,5.4824,5.521,0.0,0.0,0.0,0.0,0.0,0.0,0.0,0.0,0.0,0.0,0.0,0.0,0.0,0.0,5.6012,5.5995,5.5998,5.5943,5.5885,5.5787,0.0,5.5724,5.5703,5.5703,0.0,0.0,0.0,0.0,0.0,5.6357,5.6742,5.7165,5.7665,5.8473,5.8973,5.8973,5.9435,5.9858,6.0204,5.9896,6.0012,6.0781,6.0089,5.9627,0.0,0.0,0.0,0.0,0.0,0.0,0.0,0.0,0.0,0.0,0.0,0.0,0.0,0.0,0.0,0.0,0.0,0.0,0.0,0.0,0.0,0.0,0.0,0.0,0.0,0.0,0.0,0.0,4.6872,4.7763,4.8638,4.949,5.0264,0.0,0.0,0.0,0.0,0.0,0.0,5.0906,5.1099,5.1525,5.216,5.2414,5.284,5.3475,5.3707,5.3846,5.3834,5.4027,5.416,5.416,5.4138,5.4138,5.4138,5.4155,5.4155,5.41,5.3567,5.3454,5.3724,5.4285,5.467,5.5017,5.5692,5.5924,5.5924,5.5924,5.5943,5.5943,5.5943,0.0,5.5924,5.5943,0.0,0.0,0.0,0.0,5.5998,5.5998,0.0,5.6012,5.6012,5.6016,5.6018,5.6,5.5885,5.5787,0.0,5.5724,5.5703,5.5703,0.0,0.0,0.0,0.0,5.628,5.6896,5.7357,5.7896,5.855,5.9358,5.9819,5.9819,6.0435,6.0781,6.0781,6.0781,6.0781,6.0781,6.0781,6.0473,0.0,0.0,0.0,0.0,0.0,0.0,0.0,0.0,0.0,0.0,0.0,0.0,0.0,0.0,0.0,0.0,0.0,0.0,0.0,0.0,0.0,0.0,0.0,0.0,0.0,0.0,0.0,0.0,0.0,0.0,4.9543,5.0326,0.0,0.0,0.0,0.0,5.0906,5.0906,5.0906,5.0906,5.1695,5.216,5.2198,5.3,5.3447,5.3486,5.4315,5.474,5.474,5.5492,5.5857,5.5857,5.5857,5.5857,5.5857,5.5857,5.5861,5.5748,5.4087,5.3894,5.461,5.4612,5.5094,5.5866,5.5961,5.598,5.598,5.5977,5.5995,5.5995,5.5995,5.6016,5.598,5.5995,5.6016,0.0,0.0,5.5995,5.6012,5.6012,5.6012,5.6012,5.6012,5.6016,5.5961,5.5905,5.5865,5.5787,0.0,5.5745,5.5703,5.5703,0.0,5.5703,5.5703,5.6395,5.6934,5.6973,5.8396,5.9396,5.9435,6.0204,6.0742,6.0742,6.0781,6.0781,6.0781,6.0781,6.0781,6.0781,6.0781,6.0781,6.0742,5.9613,0.0,0.0,0.0,0.0,0.0,0.0,0.0,0.0,0.0,0.0,0.0,0.0,0.0,0.0,0.0,0.0,0.0,0.0,0.0,0.0,0.0,0.0,0.0,0.0,0.0,0.0,0.0,0.0,4.8822,5.007,0.0,0.0,5.0906,5.0906,5.0906,5.1409,5.1741,5.1747,5.2575,5.3288,5.3868,5.416,5.4585,5.5105,5.5415,5.5569,5.5569,5.5857,5.6012,5.6012,5.6012,5.6012,5.6012,5.6012,5.5995,5.5938,5.532,5.5264,5.5555,5.5498,5.5709,5.5959,5.5977,5.5977,5.5977,5.5995,5.6012,5.6012,5.6012,5.5995,5.5995,5.5995,5.5995,5.5995,5.5995,5.6012,5.6012,5.6012,5.5977,5.5998,5.5998,5.5943,5.5885,5.5827,5.5766,5.5745,5.5745,5.5724,5.5703,5.5703,5.5703,5.5895,5.6434,5.678,5.7396,5.8473,5.9127,5.9704,6.0281,6.0589,6.0781,6.0781,6.0781,6.0781,6.0781,6.0781,6.0781,6.0781,6.0781,6.0781,6.0781,6.0162,5.9388,0.0,0.0,0.0,0.0,0.0,0.0,0.0,0.0,0.0,0.0,0.0,0.0,0.0,0.0,0.0,0.0,0.0,0.0,0.0,0.0,0.0,0.0,0.0,0.0,0.0,0.0,4.8512,4.8808,5.0055,5.0906,5.0906,5.0906,5.1006,5.1315,5.1873,5.2321,5.2619,5.3486,5.4199,5.4779,5.5067,5.5453,5.6012,5.6012,5.6012,5.6012,5.6012,5.6012,5.6012,5.6012,5.6012,5.6012,5.6012,5.6012,5.6012,5.6012,5.5995,5.5998,5.5998,5.6016,5.6012,5.6012,5.6012,5.6012,5.5995,5.5977,5.5959,5.5977,5.5977,5.5995,5.5995,5.6012,5.6012,5.6012,5.6012,5.6012,5.6012,5.5977,5.5998,5.6018,5.5924,5.5807,5.5787,5.5745,5.5703,5.5703,5.5703,5.5703,5.5703,5.5934,5.6319,5.6896,5.7473,5.8242,5.9358,5.9742,6.0165,6.0742,6.0781,6.0781,6.0781,6.0781,6.0781,6.0781,6.0781,6.0781,6.0781,6.0781,6.0734,6.0622,6.017,5.9468,5.853,0.0,0.0,0.0,0.0,0.0,0.0,0.0,0.0,0.0,0.0,0.0,0.0,0.0,0.0,0.0,0.0,0.0,0.0,0.0,0.0,0.0,0.0,0.0,4.695,4.7816,4.8692,4.956,5.0387,5.0906,5.0906,5.0945,5.1277,5.2128,5.2244,5.2652,5.3486,5.4353,5.4817,5.4817,5.5569,5.6012,5.6012,5.6012,5.6012,5.6012,5.6012,5.6012,5.6012,5.6012,5.6012,5.6012,5.6012,5.6012,5.6012,5.6012,5.6012,5.6012,5.6012,5.6012,5.6012,5.6012,5.6012,5.5995,5.5998,5.5943,5.5905,5.6,5.6018,5.598,5.5995,5.6012,5.6012,5.6012,5.6012,5.6012,5.6012,5.6012,5.5995,5.598,5.5943,5.5885,5.5807,5.5745,5.5703,5.5703,5.5703,5.5742,5.5742,5.6434,5.7011,5.7049,5.8473,0.0,5.955,6.0281,6.0781,6.0781,6.0781,6.0781,6.0781,6.0781,6.0781,6.0781,6.0781,6.0781,6.0781,6.0781,6.0622,6.0293,5.9568,5.9064,5.8698,0.0,0.0,0.0,0.0,0.0,0.0,0.0,0.0,0.0,0.0,0.0,0.0,0.0,0.0,0.0,0.0,0.0,0.0,0.0,0.0,0.0,0.0,4.5877,4.6123,4.7467,4.8498,4.8732,5.0024,5.0906,5.0906,5.147,5.1934,5.2205,5.3348,5.4199,5.4431,5.5221,5.5647,5.5647,5.5896,5.6012,5.6012,5.6012,5.6012,5.6012,5.6012,5.6012,5.6012,5.6012,5.6012,5.6012,5.6012,5.6012,5.6012,5.6012,5.6012,5.6012,5.6012,5.6012,5.6012,5.6012,5.5995,5.598,5.5943,5.5905,5.5905,5.5924,5.5943,5.6018,5.5998,5.5977,5.6012,5.6012,5.6012,5.6012,5.6012,5.5977,5.598,5.5924,5.5885,5.5787,5.5745,5.5724,5.5703,5.5703,5.6203,5.6626,5.6626,5.6819,5.7396,5.8627,0.0,0.0,6.0358,6.0666,6.0781,6.0781,6.0781,6.0781,6.0781,6.0781,6.0781,0.0,6.0781,6.0781,6.0781,6.0781,6.052,5.9969,5.9467,5.9064,0.0,0.0,0.0,0.0,0.0,0.0,0.0,0.0,0.0,0.0,0.0,0.0,0.0,0.0,0.0,0.0,0.0,0.0,0.0,0.0,0.0,0.0,4.58,4.5916,4.6303,4.754,4.8546,4.8887,5.0117,5.0906,5.0906,5.1702,5.236,5.2708,5.4022,5.4951,5.5299,5.5724,5.6012,5.6012,5.6012,5.6012,5.6012,5.6012,5.6012,5.6012,5.6012,5.6012,5.6012,5.6012,5.6012,0.0,5.6012,5.6012,5.6012,5.6012,5.6012,0.0,0.0,0.0,0.0,0.0,5.598,5.5905,5.5885,5.5845,5.5807,5.5865,5.5885,5.5924,5.5943,5.5961,5.5959,5.5977,5.6016,5.5977,5.5995,5.6016,5.5961,5.5905,5.5865,5.5787,5.5724,5.5703,5.5703,5.5703,0.0,0.0,5.7478,5.7802,5.8396,5.9358,5.9819,6.0242,0.0,6.0781,6.0781,6.0781,6.0781,6.0781,6.0781,6.0781,0.0,0.0,0.0,6.0781,6.0781,6.0546,0.0,0.0,0.0,5.8905,5.8698,0.0,0.0,0.0,5.7435,5.7175,0.0,0.0,0.0,0.0,0.0,0.0,0.0,0.0,0.0,0.0,0.0,0.0,0.0,0.0,0.0,0.0,4.58,4.6148,4.71,4.7921,4.8732,4.9598,5.0426,5.0906,5.0906,5.1796,5.2685,5.342,5.4387,5.5238,5.5973,0.0,0.0,0.0,0.0,5.6012,5.6012,5.6012,5.6012,5.6012,5.6012,5.6012,5.6012,5.6012,5.6012,5.6012,5.6012,5.6012,5.6012,5.6012,5.6012,5.6012,5.5995,5.5995,5.5995,5.598,5.5905,0.0,0.0,0.0,0.0,5.5766,5.5787,5.5807,5.5885,5.5885,5.5905,5.5961,5.6018,5.598,5.5995,5.6016,5.598,5.5924,5.5885,5.5787,5.5724,5.5724,5.5763,5.584,5.6571,5.7439,5.8291,5.9056,5.955,5.9627,6.0319,0.0,6.0781,6.0781,6.0781,6.0781,0.0,0.0,6.0781,6.0781,6.0781,6.0781,6.0781,6.0781,6.0781,6.0179,5.9809,5.9809,5.9101,5.8698,5.8698,5.8698,5.8698,5.8698,5.7992,5.8029,0.0,0.0,0.0,0.0,0.0,0.0,0.0,0.0,0.0,0.0,0.0,0.0,0.0,0.0,0.0,4.58,4.58,4.6341,4.7927,4.8299,4.8709,4.9598,5.0426,5.0906,5.0906,5.2337,5.3304,5.3498,5.4929,5.5857,5.6012,5.6012,0.0,5.6012,5.6012,5.6012,5.6012,5.6012,5.6012,5.6012,0.0,0.0,5.6012,5.6012,5.6012,5.6012,5.6012,5.6012,5.6012,5.6012,5.6012,5.6012,5.5998,5.5998,5.598,5.5885,5.5807,5.5787,5.5745,5.5724,5.5703,5.5724,5.5745,5.5787,5.5807,5.5865,0.0,5.5961,5.6018,5.598,5.5995,5.5995,5.5977,5.598,5.5961,5.5924,5.5787,5.5766,5.6018,5.6711,5.7482,5.8351,5.9279,5.9463,5.9765,6.0542,6.0727,6.0781,6.0781,6.0781,6.0781,6.0781,6.0781,6.0781,6.0781,6.0781,6.0781,6.0781,6.0781,6.0781,6.0781,6.0179,5.9809,5.9809,5.9101,5.8698,5.8698,5.8698,5.8698,5.8698,5.8549,5.8549,0.0,0.0,0.0,0.0,0.0,0.0,0.0,0.0,0.0,0.0,0.0,4.58,0.0,0.0,4.58,4.58,4.58,4.6419,4.8159,4.8392,4.8879,5.0155,5.0658,5.0906,5.0906,5.2492,5.3498,5.3498,5.5045,5.6012,5.6012,5.5625,5.5586,5.6012,5.5625,5.5586,5.6012,5.6012,5.6012,5.6012,5.6012,5.6012,5.6012,5.6012,5.6012,5.6012,5.6012,5.6244,5.667,5.7134,5.7288,5.7288,5.7273,5.6734,5.5924,5.5885,5.5787,5.5745,5.5724,5.5703,5.5703,5.5703,5.5724,5.5745,5.5745,5.5766,5.5787,5.5885,5.5924,5.5943,5.5998,5.6016,5.5998,5.598,5.5943,5.5885,5.5807,5.6133,5.6557,5.702,5.814,5.9163,5.9649,6.005,6.041,6.0877,6.0911,6.0866,6.0866,6.0804,6.0781,6.0781,6.0781,6.0781,6.0781,6.0781,6.0973,6.1396,6.105,6.0926,6.1121,6.0281,5.9744,5.9502,5.8984,5.8698,5.8698,5.8698,5.8698,5.8698,5.8698,5.8698,0.0,0.0,0.0,0.0,0.0,0.0,0.0,0.0,4.5722,4.58,4.58,4.58,4.58,4.58,4.58,4.58,4.58,4.6419,4.8159,4.8392,4.901,5.0712,5.0906,5.0906,5.0906,5.2492,5.3498,5.3498,5.5045,5.5935,5.578,5.5316,5.5277,5.5741,5.5277,5.5354,5.6012,5.6012,5.6012,5.6012,5.6012,5.6012,5.6012,5.6012,5.6012,5.6012,5.6167,5.667,5.7366,5.8255,5.8604,5.8604,5.8528,5.7661,5.6368,5.6194,5.5941,5.5724,5.5703,5.5703,5.5703,5.5703,5.5703,5.5703,5.5703,5.5703,5.5724,5.5787,5.5865,5.5905,5.598,5.5998,5.5998,5.5998,5.5924,5.5865,5.6058,5.6636,5.7215,5.7562,5.876,5.9803,6.0017,6.0596,6.1018,6.0997,6.0955,6.0911,6.0888,6.0804,6.0781,6.0781,6.0781,6.0858,6.105,6.1204,6.1589,6.2281,6.1666,6.1428,6.1736,6.0798,6.0097,5.9703,5.9163,5.8958,5.8958,5.8772,5.8698,5.8698,5.8698,5.8698,4.4819,4.4986,4.5201,4.524,4.547,4.568,0.0,0.0,4.58,4.58,4.58,4.58,4.58,4.58,4.58,4.58,4.58,4.6419,4.8159,4.8392,4.901,5.0712,5.0906,5.0906,5.0906,5.2492,5.3498,5.3498,5.5045,5.5702,5.4967,5.5548,5.5586,5.4967,5.5548,5.5896,5.6012,5.6012,5.6012,5.6012,5.6012,5.6012,5.6012,5.6012,5.6012,5.6051,5.6824,5.7211,5.7366,5.8255,5.8604,5.8604,5.8604,5.8412,5.8124,5.7274,5.648,5.5766,5.5724,5.5703,5.5703,5.5703,5.5703,5.5703,5.5703,5.5703,5.5724,5.5865,5.5885,5.5924,5.5977,5.5995,5.5995,5.5995,5.5995,5.617,5.6907,5.712,5.7622,5.9205,5.965,6.0056,6.0828,6.1022,6.106,6.0997,6.0955,6.0888,6.0843,6.0781,6.0781,6.0781,6.0781,6.1089,6.1897,6.2627,6.3051,6.3166,6.3089,6.2926,6.2662,6.2205,6.176,6.143,6.0319,5.9775,5.9775,5.9069,5.8698,5.8698,5.8698,5.8698,4.4569,4.474,4.4976,0.0,4.5439,4.5712,4.5712,4.5757,4.58,4.58,4.58,4.58,4.58,4.58,4.58,0.0,4.58,4.6225,4.7463,4.8082,4.8856,5.0055,5.0596,5.0906,5.0906,5.2028,5.2956,5.3459,5.4619,5.5354,5.5509,5.5354,5.5354,5.5509,5.5354,5.5548,5.6012,5.6012,5.6012,5.6012,5.6012,5.6012,5.6012,5.6012,5.6012,5.6089,5.7443,5.8062,5.8178,5.9493,6.0035,6.0035,6.0035,5.9746,5.9186,5.8219,5.7271,5.6557,5.6456,5.6126,5.5703,5.5703,5.5703,5.5703,5.5703,5.5724,5.5766,5.5845,5.5905,5.5961,5.5998,5.5995,5.6012,5.6012,5.6381,5.6789,5.7119,5.7989,5.8916,5.965,6.021,6.0674,6.1041,6.1118,6.1099,6.1021,6.098,6.0959,6.0899,6.0916,6.1065,6.1505,6.1982,6.2444,6.2781,6.3128,6.3512,6.4012,6.3589,6.3269,6.322,6.2563,6.1955,6.1446,6.0901,6.0667,6.0667,5.9812,5.9404,5.9404,5.8921,5.8698,4.4278,4.4463,0.0,4.5035,4.534,4.5602,4.5684,4.5747,4.5786,4.58,4.58,4.58,4.58,4.58,4.58,4.58,4.58,4.6109,4.696,4.785,4.8701,4.9591,5.0403,5.0906,5.0906,5.1679,5.2569,5.342,5.431,5.5045,5.5625,5.5316,5.5316,5.5664,5.5316,5.5393,5.6012,5.6012,5.6012,5.6012,5.6012,5.6012,5.6012,5.6012,5.6012,5.6089,5.7598,5.8372,5.872,6.0151,6.0886,6.1118,6.1118,6.0731,6.0151,5.9399,5.8392,5.7464,5.7362,5.6956,5.6395,5.6126,5.6071,5.6032,5.578,5.5766,5.5807,5.5807,5.5905,5.6018,5.5998,5.5977,5.6051,5.6321,5.6789,5.735,5.7814,5.8935,5.9901,6.0133,6.0674,6.1118,6.1118,6.1118,6.106,6.1022,6.1022,6.1022,6.0982,6.1173,6.1632,6.2375,6.3222,6.3738,6.3666,6.3897,6.4282,6.4936,6.4359,6.3942,6.3858,6.3221,6.256,6.1856,6.1633,6.1521,6.1521,6.0667,6.0258,6.0258,5.9664,5.9255,4.4023,4.424,4.4466,4.4747,4.5047,4.5368,4.5655,4.5757,4.5819,4.58,4.58,4.58,4.58,4.58,4.58,4.58,4.58,4.6109,4.696,4.785,4.8701,4.9591,5.0403,5.0906,0.0,5.1679,5.2569,5.342,5.431,5.4813,5.4851,5.5548,5.5625,5.4851,5.5586,5.5973,5.6012,5.6012,5.6012,5.6012,5.6012,5.6012,5.6012,5.6012,5.6012,5.6051,5.694,5.783,5.8681,5.9571,6.0383,6.1118,6.1118,6.1079,6.1041,6.0945,5.9842,5.8353,5.8273,5.8248,5.8088,5.7242,5.7016,5.6883,5.5994,5.5787,5.5905,5.5905,5.5943,5.598,5.5995,5.6012,5.6205,5.7056,5.7288,5.7753,5.9455,5.9841,6.0112,6.0925,6.1079,6.1118,6.1118,6.1118,6.1118,6.1118,6.1118,6.108,6.1018,6.1692,6.248,6.3261,6.4147,6.4624,6.4551,6.532,6.582,6.5859,6.582,6.5465,6.4696,6.4623,6.4294,6.3527,6.2784,6.2376,6.2376,6.1558,6.115,6.115,6.115,6.0667,4.3986,4.4203,4.4407,4.4513,4.4943,4.5304,4.5417,4.5632,4.5795,4.58,4.58,4.58,4.58,4.58,4.58,4.58,4.58,4.5877,4.6187,4.7502,4.8508,4.8817,5.0055,0.0,0.0,0.0,0.0,5.3382,5.3768,5.4426,5.5548,5.5857,5.5896,5.5586,5.5857,5.6012,5.6012,5.6012,5.6012,5.6012,5.6012,5.6012,5.6012,5.6012,5.6012,5.6051,5.694,5.7482,5.7869,5.93,6.0074,6.0344,6.0886,6.1118,6.1118,6.106,6.0674,6.0035,5.9454,5.8834,5.8312,5.7983,5.7906,5.7829,5.7533,5.7482,5.7564,5.7564,5.7622,5.7735,5.7714,5.7714,5.7791,5.8101,5.8604,5.9184,5.9764,6.0306,6.077,6.1041,6.1118,6.1118,6.1118,6.1118,6.1118,6.1118,6.1582,6.195,6.1911,6.3147,6.4152,6.4359,6.5126,6.5519,6.551,6.5769,6.5897,6.5897,6.5897,6.5542,6.4734,6.4699,6.4369,6.3602,6.3342,6.3193,6.3193,6.2413,6.2004,6.2004,6.1447,6.1038,4.3986,4.4135,4.4271,4.4386,4.4777,4.5184,4.5265,4.5582,4.5795,4.58,4.58,4.58,4.58,4.58,4.58,4.58,4.58,4.58,4.58,4.7308,4.8392,4.8392,4.99,0.0,0.0,0.0,0.0,5.3382,5.3498,5.4233,5.5896,5.6012,5.6012,5.6012,5.6012,5.6012,5.6012,5.6012,5.6012,5.6012,5.6012,5.6012,5.6012,5.6012,5.6012,5.6051,5.6592,5.7018,5.7404,5.8836,5.9609,5.9996,6.0809,6.1118,6.1118,6.1118,6.106,6.0945,6.0364,5.9783,5.9261,5.8911,5.8816,5.8778,5.8445,5.8392,5.8472,5.8452,5.851,5.8604,5.8604,5.8604,5.8681,5.899,5.9493,5.9996,6.0267,6.0731,6.1118,6.1118,6.1118,6.1118,6.1118,6.1118,6.1195,6.1505,6.2317,6.2859,6.2859,6.4097,6.5082,6.529,6.5749,6.6052,6.602,6.5972,6.5923,6.5897,6.5897,6.5608,6.4938,6.4769,6.4445,6.383,6.3691,6.3602,6.3602,6.3082,6.2822,6.2822,6.2301,6.1893,4.3986,4.3986,4.4042,4.4336,4.4635,4.4972,4.5208,4.5543,4.5781,4.58,4.58,4.58,0.0,0.0,4.58,4.58,4.58,4.58,4.58,4.7308,4.8392,0.0,0.0,0.0,0.0,0.0,0.0,5.3304,0.0,5.4194,5.5857,5.5973,5.6012,5.6012,5.6012,5.6012,5.6012,5.6012,5.6012,5.6012,5.6012,5.6012,5.6012,5.6012,5.6012,5.6012,5.6012,5.6476,5.7288,5.8217,5.9068,5.9919,6.077,6.1118,6.1118,6.1118,6.1118,6.1079,6.1022,6.1,6.0882,6.0053,5.9803,5.9689,5.878,5.8607,5.872,5.8664,5.8683,5.872,5.872,5.872,5.8952,5.9764,5.9957,6.0151,6.0925,6.1118,6.1118,6.1118,6.1118,6.1118,6.1118,6.1157,6.1466,6.2278,6.3168,6.3748,6.3748,6.4522,6.5314,6.6024,6.6102,6.6058,6.602,6.5996,6.5972,6.5897,6.5897,6.5728,6.5299,6.4871,6.4519,6.4169,6.3786,6.3602,6.3602,6.3602,6.3602,6.3602,6.3602,6.3193,4.3986,4.3986,4.4017,4.4072,4.4318,4.4625,4.4935,4.5227,4.5488,4.5771,4.58,4.58,0.0,0.0,0.0,4.58,4.58,0.0,4.58,4.7308,0.0,4.8392,0.0,5.0906,5.0906,5.0906,0.0,0.0,5.3111,5.3962,5.5045,5.5664,5.6012,5.6012,5.6012,5.6012,5.6012,5.6012,5.6012,5.6012,5.6012,5.6012,5.6012,5.6012,5.6012,5.6012,5.6012,5.6128,5.6437,5.7985,5.872,5.9068,6.0538,6.1118,6.1118,6.1118,6.1118,6.1118,6.106,6.108,6.1041,6.077,6.0693,6.0654,6.0401,6.0344,6.0365,6.0345,6.0423,6.046,6.046,6.046,6.0538,6.0731,6.0809,6.0847,6.1079,6.1118,6.1118,6.1118,6.1118,6.1118,6.1118,6.166,6.2162,6.2356,6.3671,6.4677,6.4677,6.5373,6.5992,6.6165,6.6123,6.6058,6.599,6.5982,6.5972,6.5897,6.5897,6.5608,6.4871,6.4769,6.4407,6.3742,6.3647,6.3602,6.3602,6.3602,6.3602,6.3602,6.3602,6.349,4.4199,4.4237,4.4237,4.4237,4.4503,4.4825,4.4973,4.5266,4.5555,4.5771,4.58,0.0,4.58,0.0,0.0,0.0,0.0,0.0,4.58,4.7308,4.8392,0.0,4.99,0.0,5.0906,5.0906,5.1099,0.0,5.2453,5.3459,5.4735,5.5238,5.5625,5.6012,5.6012,5.6012,5.6012,5.6012,5.6012,5.6012,5.6012,5.6012,5.6012,5.6012,5.6012,5.6012,0.0,5.6012,5.6128,5.7869,5.8604,5.8758,6.046,6.1118,6.1118,6.1118,6.1118,6.1118,6.1118,6.1118,6.1079,6.1041,6.1041,6.1022,6.1041,6.1041,6.1041,6.1041,6.106,6.1118,6.1118,6.1118,6.1118,6.1118,6.1118,6.1118,6.1118,6.1118,6.1118,6.1118,6.1427,6.166,6.166,6.2394,6.3091,6.3478,6.4367,6.5141,6.5489,6.5915,6.6185,6.6185,6.6165,6.6123,6.6058,6.6029,6.5982,6.5947,6.5923,6.5635,6.5009,6.4803,6.4445,6.3873,6.3691,6.3602,6.3602,6.3602,6.3602,6.3602,6.3602,6.3602,4.4496,4.4496,4.4496,4.4496,4.4814,4.5159,4.5201,4.5491,4.5771,4.58,4.58,4.58,4.58,4.58,4.58,4.58,0.0,4.58,4.58,4.7308,4.8392,4.8392,4.99,5.0906,5.0906,5.0906,5.0906,5.0906,5.1602,5.2801,5.4542,5.4735,5.5161,5.5973,5.6012,5.6012,5.6012,5.6012,5.6012,5.6012,5.6012,5.6012,5.6012,5.6012,5.6012,5.6012,0.0,0.0,5.6128,5.7869,5.8604,5.8758,6.046,6.1118,6.1118,6.1118,6.1118,6.1118,6.1118,6.1118,6.1118,6.1118,6.1118,6.1118,6.1118,6.1118,6.1118,6.1118,6.1118,6.1118,6.1118,6.1118,6.1118,6.1118,6.1118,6.1118,6.1118,6.1118,6.1118,6.1234,6.1892,6.2433,6.2549,6.3284,6.4135,6.487,6.5102,6.5412,6.6108,6.6185,6.6185,6.6185,6.6185,6.6165,6.6102,6.6036,6.599,6.5996,6.5947,6.5728,6.5238,6.4871,6.452,6.4128,6.3786,6.3602,6.3602,6.3602,6.3602,6.3602,6.3602,6.3602,4.4496,4.4496,4.4496,4.4496,4.461,4.4849,4.5137,4.5323,0.0,4.5733,4.58,4.58,4.58,4.58,4.58,4.58,0.0,0.0,0.0,0.0,4.8392,0.0,0.0,0.0,0.0,0.0,0.0,0.0,0.0,0.0,5.3614,5.4426,5.5161,5.5973,5.6012,5.6012,5.6012,5.6012,5.6012,5.6012,5.6012,5.6012,5.6012,5.6012,5.6012,5.6012,0.0,0.0,5.6128,5.7869,5.8604,5.8758,6.046,6.1118,6.1118,6.1118,6.1118,6.1118,6.1118,6.1118,6.1118,6.1118,6.1118,6.1118,6.1118,6.1118,6.1118,6.1118,6.1118,6.1118,6.1118,6.1118,6.1118,6.1118,6.1118,6.1118,6.1118,6.1118,6.1311,6.2046,6.2317,6.2627,6.3362,6.4213,6.4831,6.4986,6.5566,6.6031,6.6185,6.6185,6.6185,6.6185,6.6185,6.6165,6.6102,6.6036,6.599,6.5996,6.5947,6.5542,6.4837,6.4734,6.4407,6.3736,6.3647,6.3602,6.3602,6.3602,6.3602,6.3602,6.3602,6.3602,4.4712,4.4712,4.4738,4.484,4.4995,4.5099,4.5362,0.0,0.0,4.5786,4.58,4.58,4.58,4.58,0.0,4.58,0.0,0.0,0.0,0.0,0.0,0.0,0.0,0.0,0.0,0.0,0.0,0.0,0.0,0.0,5.2763,5.4078,5.5161,5.5973,5.6012,5.6012,5.6012,5.6012,5.6012,5.6012,5.6012,5.6012,5.6012,5.6012,5.6012,5.6012,5.6012,0.0,5.6128,5.7869,5.8604,5.8758,6.046,6.1118,6.1118,6.1118,6.1118,6.1118,6.1118,6.1118,6.1118,6.1118,6.1118,6.1118,6.1118,6.1118,6.1118,6.1118,6.1118,6.1118,6.1118,6.1118,6.1118,6.1118,6.1118,6.1118,6.1118,6.1466,6.1892,6.2317,6.3129,6.3903,6.429,6.5064,6.5605,6.5605,6.5953,6.6185,6.6185,6.6185,6.6185,6.6185,6.6185,6.6165,6.6144,6.608,6.6036,6.6005,6.5958,6.5569,6.4734,6.4699,6.4369,6.3602,6.3602,6.3602,6.3602,6.3602,6.3602,6.3602,6.3602,6.3602,4.4995,4.4995,4.5042,4.5213,4.5341,4.5475,4.5599,4.5688,0.0,4.58,4.58,4.58,4.58,4.58,4.58,4.58,4.58,4.58,0.0,0.0,0.0,0.0,0.0,0.0,0.0,0.0,0.0,0.0,0.0,0.0,0.0,5.3846,5.5084,5.5741,5.5896,5.6012,5.6012,5.6012,5.6012,5.6012,5.6012,5.6012,5.6012,5.6012,5.6012,5.6012,5.6012,0.0,0.0,5.7869,5.8604,5.8758,6.046,6.1118,6.1118,6.1118,6.1118,6.1118,6.1118,6.1118,6.1118,6.1118,6.1118,6.1118,6.1118,6.1118,6.1118,6.1118,6.1118,6.1118,6.1118,6.1118,6.1118,6.1118,6.1118,6.1157,6.135,6.193,6.2511,6.2897,6.4058,6.5064,6.5218,6.576,6.6185,6.6185,6.6185,6.6185,6.6185,6.6185,6.6185,6.6185,6.6185,6.6185,6.6185,6.6123,6.608,6.6036,6.6005,6.5651,6.4871,6.4769,6.4407,6.3742,6.3647,6.3602,6.3602,6.3602,6.3602,6.3602,6.3602,6.3602,4.5321,4.5361,4.5361,4.5381,4.5494,4.556,4.5616,0.0,4.58,4.58,4.58,4.58,4.58,4.58,4.58,4.58,4.58,4.58,4.58,0.0,0.0,0.0,0.0,0.0,0.0,0.0,0.0,0.0,0.0,0.0,0.0,5.3846,5.4813,5.4929,5.5625,5.6012,5.6012,5.6012,5.6012,5.6012,5.6012,5.6012,5.6012,5.6012,5.6012,5.6012,0.0,0.0,0.0,5.7869,5.8604,5.8758,6.046,6.1118,6.1118,6.1118,6.1118,6.1118,6.1118,6.1118,6.1118,6.1118,6.1118,6.1118,6.1118,6.1118,6.1118,6.1118,6.1118,6.1118,6.1118,6.1118,6.1118,6.1118,6.1118,6.1311,6.2124,6.2356,6.2859,6.4445,6.487,6.5218,6.5953,6.6147,6.6185,6.6185,6.6185,6.6185,6.6185,6.6185,6.6185,6.6185,6.6185,6.6185,6.6185,6.6123,6.6102,6.608,6.6029,6.5795,6.535,6.4938,6.4519,6.4169,6.3786,6.3602,6.3602,6.3602,6.3602,6.3602,6.3602,6.3602,4.5381,4.54,4.5419,4.5512,4.5543,4.561,4.5712,4.5771,4.58,4.58,4.58,4.58,4.58,4.58,4.58,4.58,4.58,4.58,4.58,4.7308,0.0,0.0,0.0,0.0,0.0,0.0,0.0,0.0,0.0,0.0,0.0,5.3072,5.4271,5.4774,5.5586,5.6012,5.6012,5.6012,5.6012,5.6012,5.6012,5.6012,5.6012,5.6012,5.6012,5.6012,0.0,0.0,0.0,5.7869,5.8604,5.8758,6.046,6.1118,6.1118,6.1118,6.1118,6.1118,6.1118,6.1118,6.1118,6.1118,6.1118,6.1118,6.1118,6.1118,6.1118,6.1118,6.1118,6.1118,6.1118,6.1118,6.1234,6.1776,6.1892,6.2124,6.2975,6.3594,6.4174,6.487,6.5373,6.5837,6.6147,6.6185,6.6185,6.6185,6.6185,6.6185,6.6185,6.6185,6.6185,6.6185,6.6185,6.6185,6.6185,6.6165,6.6144,6.6102,6.6058,6.5856,6.5446,6.5003,6.4592,6.4209,6.3786,6.3602,6.3602,6.3602,6.3602,6.3602,6.3602,6.3602,4.553,4.553,4.5526,4.5648,4.568,4.5658,4.5786,4.58,4.58,4.58,4.58,4.58,4.58,4.58,4.58,4.58,4.58,4.58,4.58,4.7308,4.8392,0.0,0.0,0.0,0.0,0.0,0.0,0.0,0.0,0.0,0.0,5.2298,5.3498,5.4387,5.5238,5.578,5.6012,5.6012,5.6012,5.6012,5.6012,5.6012,5.6012,5.6012,5.6012,5.6012,0.0,0.0,0.0,5.7985,5.8758,5.9145,6.0538,6.1118,6.1118,6.1118,6.1118,6.1118,6.1118,6.1118,6.1118,6.1118,6.1118,6.1118,6.1118,6.1118,6.1118,6.1118,6.1118,6.1157,6.1427,6.1466,6.1698,6.2588,6.2781,6.3013,6.3903,6.4561,6.5064,6.5296,6.5799,6.6185,6.6185,6.6185,6.6185,6.6185,6.6185,6.6185,6.6185,6.6185,6.6185,6.6185,6.6185,6.6185,6.6185,6.6185,6.6165,6.6123,6.6102,6.5928,6.5586,6.5192,6.4769,6.4368,6.3963,6.3736,6.3602,6.3602,6.3602,6.3602,6.3602,6.3602,4.5771,4.58,4.58,4.58,4.58,4.58,4.58,4.58,4.58,4.58,4.58,4.58,4.58,4.58,4.58,4.58,4.58,4.58,4.58,4.7308,0.0,0.0,0.0,0.0,0.0,0.0,0.0,0.0,0.0,0.0,0.0,0.0,5.2608,5.3498,5.4349,5.52,5.6012,5.6012,5.6012,5.6012,5.6012,5.6012,5.6012,5.6012,5.6012,0.0,0.0,0.0,0.0,5.8255,5.9106,5.9957,6.077,6.1118,6.1118,6.1118,6.1118,6.1118,6.1118,6.1118,6.1118,6.1118,6.1118,6.1118,6.1118,6.1118,6.1118,6.1118,6.1118,6.1311,6.2162,6.2394,6.2627,6.3478,6.3671,6.3942,6.4793,6.4986,6.5218,6.6031,6.6185,6.6185,6.6185,6.6185,6.6185,6.6185,6.6185,6.6185,6.6185,6.6185,6.6185,6.6185,6.6185,6.6185,6.6185,6.6185,6.6185,6.6185,6.6123,6.608,6.6013,6.5613,6.5199,6.4699,6.4331,6.4004,6.3602,6.3602,6.3602,6.3602,6.3602,6.3602,4.58,4.58,4.58,4.58,4.58,4.58,4.58,4.58,4.58,4.58,4.58,4.58,4.58,4.58,4.58,4.58,4.58,4.5838,4.593,0.0,0.0,0.0,0.0,0.0,0.0,0.0,0.0,0.0,0.0,0.0,0.0,0.0,5.1989,5.3459,5.4349,5.52,5.6012,5.6012,5.6012,5.6012,5.6012,5.6012,5.6012,5.6012,0.0,0.0,0.0,0.0,0.0,5.8255,5.9106,5.9996,6.0809,6.1118,6.1118,6.1118,6.1466,6.2008,6.2008,6.2394,6.2781,6.2162,6.2008,6.1892,6.1273,6.1118,6.1234,6.1814,6.2433,6.2936,6.3207,6.3284,6.3516,6.4367,6.4599,6.4793,6.5644,6.5837,6.5915,6.6147,6.6185,6.6185,6.6185,6.6185,6.6185,6.6185,6.6185,6.6185,6.6185,6.6185,6.6185,6.6185,6.6185,6.6185,6.6185,6.6185,6.6185,6.6185,6.6165,6.6123,6.608,6.5743,6.5465,6.5253,6.4592,6.4212,6.4091,6.3742,6.3602,6.3602,6.3602,6.3602,4.58,4.58,4.58,4.58,4.58,4.58,4.58,4.58,4.58,4.58,4.58,4.58,4.58,4.58,4.58,4.58,4.58,4.5916,4.6341,0.0,0.0,0.0,0.0,0.0,0.0,0.0,0.0,0.0,0.0,0.0,0.0,0.0,5.2028,5.3459,5.4039,5.4851,5.6012,5.6012,5.6012,5.6012,5.6012,5.6012,5.6012,5.6012,0.0,0.0,0.0,0.0,0.0,5.8372,5.9493,6.0886,6.1389,6.1776,6.2085,6.2085,6.2433,6.2897,6.2897,6.3245,6.3555,6.2665,6.2394,6.2356,6.2162,6.1853,6.1776,6.2665,6.3284,6.3787,6.4097,6.4174,6.4406,6.5257,6.545,6.5605,6.6108,6.6185,6.6185,6.6185,6.6185,6.6185,6.6185,6.6185,6.6185,6.6185,6.6185,6.6185,6.6185,6.6185,6.6185,6.6185,6.6185,6.6185,6.6185,6.6185,6.6185,6.6185,6.6185,6.6165,6.6102,6.589,6.568,6.5493,6.5003,6.4699,6.4556,6.4091,6.3835,6.383,6.3691,6.3602,0.0,4.58,4.58,4.58,4.58,4.58,4.58,4.58,0.0,4.58,4.58,4.58,4.58,4.58,4.58,4.58,4.5838,4.6187,4.6999,4.8624,0.0,0.0,0.0,0.0,0.0,0.0,0.0,0.0,0.0,0.0,0.0,0.0,0.0,5.3459,5.3575,5.4387,5.5973,5.6012,5.6012,5.6012,5.6012,5.6012,5.6012,5.6012,0.0,0.0,0.0,0.0,0.0,5.8758,6.0267,6.2511,6.2511,6.2975,6.371,6.371,6.3748,6.3787,6.3787,6.3826,6.371,6.2859,6.2549,6.2665,6.3516,6.3245,6.2743,6.3555,6.3826,6.4058,6.487,6.5102,6.5257,6.6031,6.6185,6.6185,6.6185,6.6185,6.6185,6.6185,6.6185,6.6185,6.6185,6.6185,6.6185,6.6185,6.6185,6.6185,6.6185,6.6185,6.6185,6.6185,6.6185,6.6185,6.6185,6.6185,6.6185,6.6185,6.6185,6.6165,6.6102,6.6102,6.5928,6.5548,6.552,6.5312,6.4894,6.4519,6.4253,6.4209,6.3786,6.3602,4.58,0.0,4.58,4.58,4.58,4.58,0.0,4.58,4.58,4.58,4.58,4.58,4.58,4.58,4.58,4.58,4.6341,4.6883,4.7154,0.0,0.0,0.0,0.0,0.0,0.0,0.0,0.0,0.0,0.0,0.0,0.0,0.0,0.0,5.3459,5.4155,5.4967,5.6012,5.6012,5.6012,5.6012,5.6012,5.6012,5.6012,5.6012,0.0,0.0,0.0,0.0,5.9648,6.0267,6.166,6.34,6.34,6.3516,6.371,6.371,6.4097,6.4677,6.4677,6.5102,6.5489,6.4638,6.3942,6.3555,6.4406,6.4561,6.4445,6.4638,6.5141,6.5644,6.5876,6.5915,6.5953,6.6147,6.6185,6.6185,6.6185,6.6185,6.6185,6.6185,6.6185,6.6185,6.6185,6.6185,6.6185,6.6185,6.6185,6.6185,6.6185,6.6185,6.6185,6.6185,6.6185,6.6185,6.6185,6.6185,6.6185,6.6185,6.6185,6.6185,6.6165,6.6165,6.6144,6.6041,6.573,6.5331,6.4894,6.4664,6.4445,6.4253,6.3963,6.3742,4.5854,4.5827,4.58,4.58,4.58,4.58,4.58,4.58,4.58,4.58,4.58,4.58,4.58,4.58,4.593,4.6355,4.682,4.771,0.0,0.0,0.0,0.0,0.0,0.0,0.0,0.0,0.0,0.0,0.0,0.0,0.0,0.0,0.0,0.0,5.4929,5.5548,5.6012,5.6012,5.6012,5.6012,5.6012,5.6012,5.6012,5.6012,0.0,0.0,0.0,0.0,6.1079,6.1505,6.2704,6.429,6.429,6.4522,6.4831,6.4831,6.5141,6.5528,6.5528,6.5605,6.5644,6.5566,6.4986,6.4445,6.5296,6.5528,6.5528,6.5528,6.5876,6.6185,6.6185,6.6185,6.6185,6.6185,6.6185,6.6185,6.6185,6.6185,6.6185,6.6185,6.6185,6.6185,6.6185,6.6185,6.6185,6.6185,6.6185,6.6185,6.6185,6.6185,6.6185,6.6185,6.6185,6.6185,6.6185,6.6185,6.6185,6.6185,6.6185,6.6185,6.6185,6.6185,6.6185,6.6185,6.5997,6.573,6.5454,6.5192,6.4938,6.4664,6.4369,6.4128,4.5917,4.5893,4.5815,4.5814,4.58,4.58,4.58,4.58,4.58,4.58,0.0,4.5838,4.5955,4.6007,0.0,0.0,0.0,0.0,0.0,0.0,0.0,0.0,0.0,0.0,0.0,0.0,0.0,0.0,0.0,0.0,0.0,0.0,0.0,5.4967,5.578,5.6205,5.6205,5.6089,5.6012,5.6012,5.6012,5.6089,5.6205,5.6205,0.0,0.0,0.0,0.0,6.2627,6.2743,6.3748,6.518,6.518,6.5605,6.6185,6.6185,6.6185,6.6185,6.6185,6.576,6.5296,6.5992,6.5721,6.5296,6.5992,6.6185,6.6185,6.6185,6.6185,6.6185,6.6185,6.6185,6.6185,6.6185,6.6185,6.6185,6.6185,6.6185,6.6185,6.6185,6.6185,6.6185,6.6185,6.6185,6.6185,6.6185,6.6185,6.6185,6.6185,6.6185,6.6185,6.6185,6.6185,6.6185,6.6185,6.6185,6.6185,6.6185,6.6185,6.6185,6.6185,6.6185,6.6185,6.6185,6.6185,6.6165,6.6102,6.5793,6.5454,6.5161,6.4837,6.4557,4.5929,4.5919,4.592,4.5815,4.58,4.58,4.58,4.58,4.58,4.58,4.58,4.6032,0.0,4.6936,0.0,0.0,0.0,0.0,0.0,0.0,0.0,0.0,0.0,0.0,0.0,0.0,0.0,0.0,0.0,0.0,0.0,0.0,0.0,5.5818,5.667,5.7095,5.7095,5.636,5.6012,5.6012,5.6012,5.6399,5.7095,5.7095,5.8062,0.0,0.0,6.1776,6.3555,6.429,6.5141,6.6031,6.6031,6.6108,6.6185,6.6185,6.6185,6.6185,6.6185,6.6108,6.6031,6.6147,6.6108,6.6031,6.6147,6.6185,6.6185,6.6185,6.6185,6.6185,6.6185,6.6185,6.6185,6.6185,6.6185,6.6185,6.6185,6.6185,6.6185,6.6185,6.6185,6.6185,6.6185,6.6185,6.6185,6.6185,6.6185,6.6185,6.6185,6.6185,6.6185,6.6185,6.6185,6.6185,6.6185,6.6185,6.6185,6.6185,6.6185,6.6185,6.6185,6.6185,6.6185,6.6185,6.6185,6.6185,6.6165,6.5951,6.5743,6.5509,6.5253,6.4997,4.6017,4.5988,4.6008,4.5919,4.5949,4.5969,4.5919,4.5949,4.6085,4.6579,0.0,0.0,0.0,0.0,0.0,0.0,0.0,0.0,0.0,0.0,0.0,0.0,0.0,0.0,0.0,0.0,0.0,0.0,0.0,0.0,0.0,0.0,0.0,0.0,5.7791,5.7985,5.7985,5.7598,5.694,5.6012,5.6476,5.6902,5.7327,5.8294,5.9648,6.1311,0.0,6.3478,6.5064,6.5489,6.5876,6.6185,6.6185,6.6185,6.6185,6.6185,6.6185,6.6185,6.6185,6.6185,6.6185,6.6185,6.6185,6.6185,6.6185,6.6185,6.6185,6.6185,6.6185,6.6185,6.6185,6.6185,6.6185,6.6185,6.6185,6.6185,6.6185,6.6185,6.6185,6.6185,6.6185,6.6185,6.6185,6.6185,6.6185,6.6185,6.6185,6.6185,6.6185,6.6185,6.6185,6.6185,6.6185,6.6185,6.6185,6.6185,6.6185,6.6185,6.6185,6.6185,6.6185,6.6185,6.6185,6.6185,6.6185,6.6185,6.6185,6.6102,6.5951,6.5769,6.5666,6.5465,4.6099,4.6107,4.6115,4.6293,4.6352,4.6359,4.6332,4.6515,4.6883,0.0,0.0,0.0,0.0,0.0,0.0,0.0,0.0,0.0,0.0,0.0,0.0,0.0,0.0,0.0,0.0,0.0,0.0,0.0,0.0,0.0,0.0,0.0,0.0,0.0,5.8952,5.8913,5.8913,5.872,5.7946,5.6631,5.7288,5.783,5.8255,5.9571,6.1234,6.3052,6.371,6.4831,6.6185,6.6185,6.6185,6.6185,6.6185,6.6185,6.6185,6.6185,6.6185,6.6185,6.6185,6.6185,6.6185,6.6185,6.6185,6.6185,6.6185,6.6185,6.6185,6.6185,6.6185,6.6185,6.6185,6.6185,6.6185,6.6185,6.6185,6.6185,6.6185,6.6185,6.6185,6.6185,6.6185,6.6185,6.6185,6.6185,6.6185,6.6185,6.6185,6.6185,6.6185,6.6185,6.6185,6.6185,6.6185,6.6185,6.6185,6.6185,6.6185,6.6185,6.6185,6.6185,6.6185,6.6185,6.6185,6.6185,6.6185,6.6185,6.6185,6.6185,6.6123,6.5951,6.5951,6.5881,4.6131,4.6189,4.6444,4.7126,4.7267,4.7228,4.7189,4.783,0.0,4.8493,0.0,0.0,0.0,0.0,0.0,0.0,0.0,0.0,0.0,0.0,0.0,0.0,0.0,0.0,0.0,0.0,0.0,0.0,0.0,0.0,0.0,0.0,0.0,0.0,0.0,5.99,5.99,5.9029,5.8526,5.841,5.8488,5.93,6.0847,6.0963,6.2394,6.4831,6.487,6.5412,6.6185,6.6185,6.6185,6.6185,6.6185,6.6185,6.6185,6.6185,6.6185,6.6185,6.6185,6.6185,6.6185,6.6185,6.6185,6.6185,6.6185,6.6185,6.6185,6.6185,6.6185,6.6185,6.6185,6.6185,6.6185,6.6185,6.6185,6.6185,6.6185,6.6185,6.6185,6.6185,6.6185,6.6185,6.6185,6.6185,6.6185,6.6185,6.6185,6.6185,6.6185,6.6185,6.6185,6.6185,6.6185,6.6185,6.6185,6.6185,6.6185,6.6185,6.6185,6.6185,6.6185,6.6185,6.6185,6.6185,6.6185,6.6185,6.6185,6.6185,6.6185,6.6165,6.6165,6.6165,4.6186,4.6592,4.7108,4.7382,4.8276,0.0,0.0,4.8476,4.8867,4.9413,4.9531,0.0,0.0,0.0,0.0,0.0,0.0,0.0,0.0,0.0,0.0,0.0,0.0,0.0,0.0,0.0,0.0,0.0,0.0,0.0,0.0,0.0,0.0,0.0,0.0,6.0832,6.0809,6.046,6.0228,6.0151,5.9648,5.9996,6.1157,6.2201,6.3555,6.5025,6.5528,6.5915,6.6185,6.6185,6.6185,6.6185,6.6185,6.6185,6.6185,6.6185,6.6185,6.6185,6.6185,6.6185,6.6185,6.6185,6.6185,6.6185,6.6185,6.6185,6.6185,6.6185,6.6185,6.6185,6.6185,6.6185,6.6185,6.6185,6.6185,6.6185,6.6185,6.6185,6.6185,6.6185,6.6185,6.6185,6.6185,6.6185,6.6185,6.6185,6.6185,6.6185,6.6185,6.6185,6.6185,6.6185,6.6185,6.6185,6.6185,6.6185,6.6185,6.6185,6.6185,6.6185,6.6185,6.6185,6.6456,6.6998,6.6998,6.7268,6.781,6.781,6.781,6.781,6.781,6.7539,4.6248,4.6874,4.7578,4.7847,0.0,0.0,4.968,4.9631,4.9774,5.0399,5.0516,0.0,0.0,0.0,0.0,0.0,0.0,0.0,0.0,0.0,0.0,0.0,0.0,0.0,0.0,0.0,0.0,0.0,0.0,0.0,0.0,0.0,0.0,0.0,0.0,0.0,6.133,6.1289,6.135,6.1505,6.0963,6.1118,6.1969,6.3439,6.4561,6.5412,6.5953,6.6185,6.6185,6.6185,6.6185,6.6185,6.6185,6.6185,6.6185,6.6185,6.6185,6.6185,6.6185,6.6185,6.6185,6.6185,6.6185,6.6185,6.6185,6.6185,6.6185,6.6185,6.6185,6.6185,6.6185,6.6185,6.6185,6.6185,6.6185,6.6185,6.6185,6.6185,6.6185,6.6185,6.6185,6.6185,6.6185,6.6185,6.6185,6.6185,6.6185,6.6185,6.6185,6.6185,6.6185,6.6185,6.6185,6.6185,6.6185,6.6185,6.6301,6.6572,6.6611,6.6611,6.6611,6.6611,6.7036,6.7887,6.7926,6.8197,6.8816,6.8816,6.8816,6.8816,6.8816,6.8468,4.6326,4.6942,4.7783,4.8603,0.0,0.0,5.1219,5.1414,5.1414,5.1414,0.0,5.1414,0.0,0.0,0.0,0.0,0.0,0.0,0.0,0.0,0.0,0.0,0.0,0.0,0.0,0.0,0.0,0.0,0.0,0.0,0.0,0.0,0.0,0.0,0.0,0.0,6.1412,6.1345,6.1698,6.2394,6.2433,6.2897,6.3748,6.4599,6.545,6.6185,6.6185,6.6185,6.6185,6.6185,6.6185,6.6185,6.6185,6.6185,6.6185,6.6185,6.6185,6.6185,6.6185,6.6185,6.6185,6.6185,6.6185,6.6185,6.6185,6.6185,6.6185,6.6185,6.6185,6.6185,6.6185,6.6185,6.6185,6.6185,6.6185,6.6185,6.6185,6.6185,6.6185,6.6185,6.6185,6.6185,6.6185,6.6185,6.6185,6.6185,6.6185,6.6185,6.6185,6.6185,6.6185,6.6185,6.6185,6.6185,6.6224,6.6224,6.6572,6.7462,6.7501,6.7501,6.7501,6.7501,6.7926,6.8777,6.8816,6.8816,6.8816,6.8816,6.8816,6.8816,6.8816,6.8816,4.7051,4.7829,0.0,4.9501,0.0,0.0,0.0,5.1414,0.0,0.0,0.0,0.0,0.0,0.0,0.0,0.0,0.0,0.0,0.0,0.0,0.0,0.0,0.0,0.0,0.0,0.0,0.0,0.0,0.0,0.0,0.0,0.0,0.0,0.0,0.0,0.0,6.155,6.203,6.2394,6.2549,6.3671,6.4367,6.4599,6.487,6.545,6.6185,6.6185,6.6185,6.6185,6.6185,6.6185,6.6185,6.6185,6.6185,6.6185,6.6185,6.6185,6.6185,6.6185,6.6185,6.6185,6.6185,6.6185,6.6185,6.6185,6.6185,6.6185,6.6185,6.6185,6.6185,6.6185,6.6185,6.6185,6.6185,6.6185,6.6185,6.6185,6.6185,6.6185,6.6185,6.6185,6.6185,6.6185,6.6185,6.6185,6.6185,6.6185,6.6185,6.6185,6.6185,6.6185,6.6185,6.6185,6.6456,6.7075,6.7114,6.7501,6.8352,6.8429,6.8429,6.8429,6.8429,6.8816,6.9628,6.9628,6.9938,7.0556,7.0556,7.0556,7.0556,7.0556,7.0247,4.7861,4.8681,0.0,4.9969,5.075,5.1492,5.1843,0.0,0.0,0.0,0.0,0.0,0.0,0.0,0.0,0.0,0.0,0.0,0.0,0.0,0.0,0.0,0.0,0.0,0.0,0.0,0.0,0.0,0.0,0.0,0.0,0.0,0.0,0.0,0.0,0.0,6.2109,6.2863,6.3352,6.3594,6.4561,6.518,6.5489,6.5489,6.5721,6.6185,6.6185,6.6185,6.6185,6.6185,6.6185,6.6185,6.6185,6.6185,6.6185,6.6185,6.6185,6.6185,6.6185,6.6185,6.6185,6.6185,6.6185,6.6185,6.6185,6.6185,6.6185,6.6185,6.6185,6.6185,6.6185,6.6185,6.6185,6.6185,6.6185,6.6185,6.6185,6.6185,6.6185,6.6185,6.6185,6.6185,6.6185,6.6185,6.6185,6.6185,6.6185,6.6185,6.6185,6.6185,6.634,6.6688,6.6727,6.7075,6.7926,6.8003,6.839,6.9203,6.928,6.9435,6.9783,6.9473,6.9667,7.0479,7.0518,7.0789,7.1291,7.1291,7.1291,7.1291,7.1291,7.1021,4.8681,4.9501,0.0,5.0204,5.0867,0.0,0.0,0.0,0.0,0.0,0.0,0.0,0.0,0.0,0.0,0.0,0.0,0.0,0.0,0.0,0.0,0.0,0.0,0.0,0.0,0.0,0.0,0.0,0.0,0.0,0.0,0.0,0.0,0.0,0.0,0.0,6.3047,6.378,6.444,0.0,6.5102,6.5489,6.6185,6.6185,6.6185,6.6185,6.6185,6.6185,6.6185,6.6185,6.6185,6.6185,6.6185,6.6185,6.6185,6.6185,6.6185,6.6185,6.6185,6.6185,6.6185,6.6185,6.6185,6.6185,6.6185,6.6185,6.6185,6.6185,6.6185,6.6185,6.6185,6.6185,6.6185,6.6185,6.6185,6.6185,6.6185,6.6185,6.6185,6.6185,6.6185,6.6185,6.6185,6.6185,6.6185,6.6185,6.6185,6.6185,6.6185,6.6263,6.6611,6.7423,6.7578,6.7965,6.8854,6.8932,6.928,7.0054,7.0131,7.0479,7.1253,7.0518,7.0479,7.1291,7.1291,7.1291,7.1291,7.1291,7.1291,7.1291,7.1291,7.1291,4.9579,4.9969,0.0,0.0,5.1765,5.2663,5.3522,0.0,0.0,0.0,0.0,0.0,0.0,0.0,0.0,0.0,0.0,0.0,0.0,0.0,0.0,0.0,0.0,0.0,0.0,0.0,0.0,0.0,0.0,0.0,0.0,0.0,0.0,0.0,0.0,6.332,6.3984,6.4726,6.5141,0.0,6.5837,6.6108,6.6185,6.6185,6.6185,6.6185,6.6185,6.6185,6.6185,6.6185,6.6185,6.6185,6.6185,6.6185,6.6185,6.6185,6.6185,6.6185,6.6185,6.6185,6.6185,6.6185,6.6185,6.6185,6.6185,6.6185,6.6185,6.6185,6.6185,6.6185,6.6185,6.6185,6.6185,6.6185,6.6185,6.6185,6.6185,6.6185,6.6185,6.6185,6.6185,6.6185,6.6185,6.6185,6.6185,6.6185,6.6185,6.6185,6.6185,6.6804,6.7307,6.7501,6.8119,6.8854,6.9667,6.9744,7.0092,7.0982,7.1021,7.1098,7.1291,7.1098,7.1098,7.1291,7.1291,7.1291,7.1291,7.1291,7.1291,7.1291,7.1291,7.1291,5.0477,0.0,0.0,5.1297,0.0,5.3444,5.3912,0.0,0.0,0.0,0.0,0.0,0.0,0.0,0.0,0.0,0.0,0.0,0.0,0.0,0.0,0.0,0.0,0.0,0.0,0.0,0.0,0.0,0.0,0.0,0.0,0.0,0.0,0.0,6.3828,6.4453,6.4922,6.5666,6.5984,6.5992,6.6263,6.634,6.6185,6.6185,6.6185,6.6185,6.6185,6.6185,6.6185,6.6185,6.6185,6.6185,6.6185,6.6185,6.6185,6.6185,6.6185,6.6185,6.6185,6.6185,6.6185,6.6185,6.6185,6.6185,6.6185,6.6185,6.6185,6.6185,6.6185,6.6185,6.6185,6.6185,6.6185,6.6185,6.6185,6.6185,6.6185,6.6185,6.6185,6.6185,6.6185,6.6185,6.6185,6.6185,6.634,6.6766,6.6804,6.6959,6.7384,6.7849,6.8274,6.8661,6.9087,6.9705,7.0556,7.0634,7.0827,7.1253,7.1291,7.1291,7.1291,7.1291,7.1291,7.1291,7.1291,7.1291,7.1291,7.1291,7.1291,7.1291,7.1291,7.1291,5.1219,0.0,5.1414,5.1414,5.2585,0.0,5.3951,0.0,0.0,0.0,0.0,0.0,0.0,0.0,0.0,0.0,0.0,0.0,0.0,0.0,0.0,0.0,0.0,0.0,0.0,0.0,0.0,0.0,0.0,0.0,0.0,0.0,6.3124,6.3437,6.4844,6.5664,6.582,6.6445,6.6706,6.67,6.6496,6.634,6.6224,6.6224,6.6185,6.6185,6.6185,6.6185,6.6185,6.6185,6.6185,6.6185,6.6185,6.6185,6.6185,6.6185,6.6185,6.6185,6.6185,6.6185,6.6185,6.6185,6.6185,6.6185,6.6185,6.6185,6.6185,6.6185,6.6185,6.6185,6.6185,6.6185,6.6185,6.6185,6.6185,6.6185,6.6185,6.6185,6.6185,6.6185,6.6185,6.6263,6.6417,6.6417,6.6727,6.7578,6.7733,6.7965,6.87,6.8932,6.9241,6.9938,7.0131,7.0518,7.1253,7.1291,7.1291,7.1291,7.1291,7.1291,7.1291,7.1291,7.1291,7.1291,7.1291,7.1291,7.1291,7.1291,7.1291,7.1291,7.1291,7.1291,5.1375,0.0,5.1414,0.0,5.2156,5.3053,0.0,0.0,0.0,0.0,0.0,0.0,0.0,0.0,0.0,0.0,0.0,0.0,0.0,0.0,0.0,0.0,0.0,0.0,0.0,0.0,0.0,0.0,0.0,0.0,0.0,6.2935,6.3699,6.5195,6.5469,6.5976,6.6719,6.6836,6.6795,6.6706,6.65,6.6379,6.6379,6.6263,6.6185,6.6185,6.6185,6.6185,6.6185,6.6185,6.6185,6.6185,6.6185,6.6185,6.6185,6.6185,6.6185,6.6185,6.6185,6.6185,6.6185,6.6185,6.6185,6.6185,6.6185,6.6185,6.6185,6.6185,6.6185,6.6185,6.6185,6.6185,6.6185,6.6185,6.6185,6.6185,6.6185,6.6185,6.6185,6.6185,6.6185,6.6456,6.7191,6.7346,6.7617,6.8506,6.8622,6.8661,6.8777,6.9396,6.986,6.9976,7.0672,7.1175,7.1291,7.1291,7.1291,7.1291,7.1291,7.1291,7.1291,7.1291,7.1291,7.1291,7.1291,7.1291,7.1291,7.1291,7.1291,7.1291,7.1291,7.1291,5.1414,5.1414,5.1414,0.0,5.2078,5.2936,5.3795,0.0,0.0,0.0,0.0,0.0,0.0,0.0,0.0,0.0,0.0,0.0,0.0,0.0,0.0,0.0,0.0,0.0,0.0,0.0,0.0,0.0,0.0,0.0,6.2969,6.3945,6.4813,6.5573,6.6053,6.6523,6.6914,6.6914,6.6836,6.6718,6.662,6.6533,6.6495,6.6456,6.634,6.6185,6.6185,6.6185,6.6185,6.6185,6.6185,6.6185,6.6185,6.6185,6.6185,6.6185,6.6185,6.6185,6.6185,6.6185,6.6185,6.6185,6.6185,6.6185,6.6185,6.6185,6.6185,6.6185,6.6185,6.6185,6.6185,6.6185,6.6185,6.6185,6.6185,6.6185,6.6185,6.6185,6.634,6.6843,6.692,6.723,6.8081,6.8236,6.8506,6.9357,6.9473,6.9667,7.0131,7.0518,7.0711,7.0711,7.1059,7.1291,7.1291,7.1291,7.1291,7.1291,7.1291,7.1291,7.1291,7.1291,7.1291,7.1291,7.1291,7.1291,7.1291,7.1291,7.1291,7.1291,7.1291,7.1291,0.0,0.0,5.1414,5.1414,5.1882,5.2663,0.0,0.0,0.0,0.0,0.0,0.0,0.0,0.0,0.0,0.0,0.0,0.0,0.0,0.0,0.0,0.0,0.0,0.0,0.0,0.0,0.0,0.0,0.0,0.0,6.3633,6.4882,6.5702,6.5897,6.6552,6.6873,6.6914,6.6914,6.6836,6.6758,6.6712,6.6661,6.6631,6.6611,6.6493,6.6299,6.6303,6.6263,6.6263,6.6263,6.6224,6.6185,6.6185,6.6185,6.6185,6.6185,6.6185,6.6185,6.6185,6.6185,6.6185,6.6185,6.6185,6.6185,6.6185,6.6185,6.6185,6.6185,6.6185,6.6185,6.6185,6.6185,6.6185,6.6185,6.6379,6.6533,6.6533,6.6533,6.6804,6.7655,6.7849,6.8119,6.897,6.9087,6.9396,7.0208,7.0324,7.0556,7.1214,7.1291,7.1291,7.1291,7.1291,7.1291,7.1291,7.1291,7.1291,7.1291,7.1291,7.1291,7.1291,7.1291,7.1291,7.1291,7.1291,7.1291,7.1291,7.1291,7.1291,7.1291,7.1291,7.1291,0.0,5.1414,0.0,5.1414,5.1414,0.0,0.0,0.0,0.0,0.0,0.0,0.0,0.0,0.0,0.0,0.0,0.0,0.0,0.0,0.0,0.0,0.0,0.0,0.0,0.0,0.0,0.0,0.0,0.0,0.0,6.539,6.5546,6.5936,6.6717,6.68,6.6859,6.6914,6.6914,6.6914,6.6875,6.6757,6.6697,6.667,6.662,6.6574,6.6563,6.6588,6.6495,6.6379,6.6379,6.6301,6.6185,6.6185,6.6185,6.6185,6.6185,6.6185,6.6185,6.6185,6.6185,6.6185,6.6185,6.6185,6.6185,6.6185,6.6185,6.6185,6.6185,6.6185,6.6185,6.6185,6.6185,6.6185,6.6185,6.6843,6.7423,6.7423,6.7423,6.7694,6.8545,6.8738,6.9009,6.9783,6.9938,7.0208,7.1098,7.1214,7.1253,7.1291,7.1291,7.1291,7.1291,7.1291,7.1291,7.1291,7.1291,7.1291,7.1291,7.1291,7.1291,7.1291,7.1291,7.1291,7.1291,7.1291,7.1291,7.1291,7.1291,7.1291,7.1291,7.1291,7.1291,0.0,0.0,0.0,5.1414,5.1804,5.2546,0.0,0.0,0.0,0.0,0.0,0.0,0.0,0.0,0.0,0.0,0.0,0.0,0.0,0.0,0.0,0.0,0.0,0.0,0.0,0.0,0.0,0.0,0.0,0.0,6.5585,6.6092,6.6483,6.6795,6.6795,6.6817,6.6914,6.6914,6.6914,6.6914,6.6836,6.6826,6.683,6.6819,6.679,6.678,6.6776,6.6697,6.6514,6.6456,6.6379,6.6301,6.6224,6.6185,6.6185,6.6185,6.6185,6.6185,6.6185,6.6185,6.6185,6.6185,6.6185,6.6185,6.6185,6.6185,6.6185,6.6185,6.6185,6.6185,6.6185,6.6611,6.7191,6.7733,6.8119,6.8468,6.897,6.87,6.8584,6.9396,6.9551,6.9821,7.0672,7.0827,7.0943,7.1253,7.1291,7.1291,7.1291,7.1291,7.1291,7.1291,7.1291,7.1291,7.1291,7.1291,7.1291,7.1291,7.1291,7.1291,7.1291,7.1291,7.1291,7.1291,7.1291,7.1291,7.1291,7.1291,7.1291,7.1291,7.1291,7.1291,5.1414,0.0,0.0,0.0,0.0,5.3014,0.0,0.0,0.0,0.0,0.0,0.0,0.0,0.0,0.0,0.0,0.0,0.0,0.0,0.0,0.0,0.0,0.0,0.0,0.0,0.0,0.0,0.0,0.0,0.0,6.5975,6.6522,6.6795,6.6795,6.6795,6.6813,6.6871,6.6874,6.6914,6.6914,6.6914,6.6914,6.6914,6.6917,6.6922,6.6922,6.6922,6.6805,6.6635,6.654,6.65,6.6456,6.6301,6.6263,6.6263,6.6224,6.6185,6.6185,6.6185,6.6185,6.6185,6.6185,6.6185,6.6185,6.6185,6.6185,6.6185,6.6185,6.6417,6.665,6.665,6.7268,6.8158,6.9009,6.9203,6.9435,7.0247,6.9783,6.9435,7.0286,7.044,7.0634,7.1214,7.1291,7.1291,7.1291,7.1291,7.1291,7.1291,7.1291,7.1291,7.1291,7.1291,7.1291,7.1291,7.1291,7.1291,7.1291,7.1291,7.1291,7.1291,7.1291,7.1291,7.1291,7.1291,7.1291,7.1291,7.1291,7.1291,7.1291,7.1291,7.1291,0.0,0.0,0.0,0.0,0.0,0.0,0.0,0.0,0.0,0.0,0.0,0.0,0.0,0.0,0.0,0.0,0.0,0.0,0.0,0.0,0.0,0.0,0.0,0.0,0.0,0.0,0.0,0.0,0.0,6.5975,6.6756,6.6795,6.6795,6.6795,6.6795,6.6795,6.6795,6.6869,6.6914,6.6914,6.6914,6.6914,6.6914,6.6914,6.6914,6.6914,6.6914,6.6836,6.6719,6.6719,6.6666,6.6574,6.6438,6.6399,6.6379,6.6263,6.6185,6.6185,6.6185,6.6185,6.6185,6.6185,6.6185,6.6185,6.6185,6.6224,6.6224,6.6224,6.6882,6.7539,6.7578,6.8197,6.9048,6.986,7.0054,7.0247,7.1098,7.0634,7.0286,7.1137,7.1291,7.1291,7.1291,7.1291,7.1291,7.1291,7.1291,7.1291,7.1291,7.1291,7.1291,7.1291,7.1291,7.1291,7.1291,7.1291,7.1291,7.1291,7.1291,7.1291,7.1291,7.1291,7.1291,7.1291,7.1291,7.1291,7.1291,7.1291,7.1291,7.1291,7.1291,7.1291,5.1414,0.0,0.0,0.0,0.0,0.0,0.0,5.5786,0.0,0.0,0.0,0.0,0.0,0.0,0.0,0.0,0.0,0.0,0.0,0.0,0.0,0.0,0.0,0.0,0.0,0.0,0.0,0.0,6.5663,6.6561,6.6795,6.6795,6.6795,6.6795,6.6795,6.6795,6.6795,6.6887,6.6904,6.6914,6.6914,6.6914,6.6914,6.6914,6.6914,6.6914,6.6914,6.6875,6.6836,6.6758,6.6672,6.6661,6.6563,6.6477,6.6379,6.634,6.6263,6.6185,6.6185,6.6185,6.6185,6.6185,6.6185,6.6185,6.6185,6.665,6.7152,6.7152,6.7771,6.8584,6.9164,6.9473,6.986,7.075,7.0943,7.1021,7.1253,7.1098,7.1021,7.1253,7.1291,7.1291,7.1291,7.1291,7.1291,7.1291,7.1291,7.1291,7.1291,7.1291,7.1291,7.1291,7.1291,7.1291,7.1291,7.1291,7.1291,7.1291,7.1291,7.1291,7.1291,7.1291,7.1291,7.1291,7.1291,7.1291,7.1291,7.1291,7.1291,7.1291,7.1291,7.1291,0.0,0.0,0.0,0.0,0.0,0.0,5.5626,5.6163,0.0,0.0,0.0,0.0,0.0,0.0,0.0,0.0,0.0,0.0,0.0,0.0,0.0,0.0,0.0,0.0,0.0,0.0,0.0,0.0,6.6053,6.6795,6.6795,6.6795,6.6795,6.6795,6.6795,6.6795,6.6795,6.6873,6.6891,6.6912,6.6914,6.6914,6.6914,6.6914,6.6914,6.6914,6.6914,6.6914,6.6875,6.6836,6.6797,6.6757,6.6666,6.6543,6.6484,6.6361,6.6263,6.6185,6.6185,6.6185,6.6185,6.6185,6.6456,6.6727,6.6727,6.7346,6.8042,6.8042,6.8661,6.9473,7.0324,7.0518,7.0672,7.1175,7.1291,7.1291,7.1291,7.1291,7.1291,7.1291,7.1291,7.1291,7.1291,7.1291,7.1291,7.1291,7.1291,7.1291,7.1291,7.1291,7.1291,7.1291,7.1291,7.1291,7.1291,7.1291,7.1291,7.1291,7.1291,7.1291,7.1291,7.1291,7.1291,7.1291,7.1291,7.1291,7.1291,7.1291,7.1291,7.1291,7.1291,7.1291,0.0,0.0,0.0,0.0,0.0,0.0,5.6302,5.6425,5.6316,0.0,0.0,0.0,0.0,0.0,0.0,0.0,0.0,0.0,0.0,0.0,0.0,0.0,0.0,0.0,0.0,0.0,6.4648,6.5546,6.6366,6.6795,6.6795,6.6795,6.6795,6.6795,6.6795,6.6795,6.6795,6.6873,6.6887,6.6904,6.6912,6.6914,6.6914,6.6914,6.6914,6.6914,6.6914,6.6914,6.6914,6.6914,6.6914,6.6874,6.6688,6.6634,6.6567,6.6358,6.6224,6.6224,6.6224,6.6185,6.6224,6.6301,6.6882,6.7539,6.7617,6.8236,6.897,6.9048,6.9589,7.0324,7.1098,7.1291,7.1291,7.1291,7.1291,7.1291,7.1291,7.1291,7.1291,7.1291,7.1291,7.1291,7.1291,7.1291,7.1291,7.1291,7.1291,7.1291,7.1291,7.1291,7.1291,7.1291,7.1291,7.1291,7.1291,7.1291,7.1291,7.1291,7.1291,7.1291,7.1291,7.1291,7.1291,7.1291,7.1291,7.1291,7.1291,7.1291,7.1291,7.1291,7.1291,7.133,0.0,0.0,0.0,0.0,0.0,0.0,5.6014,5.6158,5.6146,0.0,0.0,0.0,0.0,0.0,0.0,0.0,0.0,0.0,0.0,0.0,0.0,0.0,0.0,0.0,0.0,0.0,6.4648,6.5546,6.6366,6.6795,6.6795,6.6795,6.6795,6.6795,6.6795,6.6795,6.6795,6.6795,6.6848,6.6904,6.6912,6.6914,6.6914,6.6914,6.6914,6.6914,6.6914,6.6914,6.6914,6.6914,6.6914,6.6914,6.6871,6.6798,6.665,6.6574,6.6456,6.634,6.6224,6.6185,6.6301,6.7036,6.7346,6.7617,6.8352,6.9125,6.9899,7.0595,7.0943,7.1098,7.1253,7.1291,7.1291,7.1291,7.1291,7.1291,7.1291,7.1291,7.1291,7.1291,7.1291,7.1291,7.1291,7.1291,7.1291,7.1291,7.1291,7.1291,7.1291,7.1291,7.1291,7.1291,7.1291,7.1291,7.1291,7.1291,7.1291,7.1291,7.1291,7.1291,7.1291,7.1291,7.1291,7.1291,7.1291,7.1291,7.1291,7.1291,7.1291,7.1291,7.1291,7.1678,0.0,0.0,0.0,5.4801,0.0,0.0,0.0,5.6044,5.6001,0.0,0.0,0.0,0.0,0.0,0.0,0.0,0.0,0.0,0.0,0.0,0.0,0.0,0.0,0.0,0.0,0.0,6.4843,6.6092,6.6561,6.6795,6.6795,6.6795,6.6795,6.6795,6.6795,6.6795,6.6795,6.6795,6.6844,6.6891,6.6911,6.6914,6.6914,6.6914,6.6914,6.6914,6.6914,6.6914,6.6914,6.6914,6.6914,6.6875,6.6836,6.677,6.6691,6.6547,6.6456,6.6417,6.6727,6.6843,6.6998,6.7849,6.8429,6.8816,6.928,6.9976,7.075,7.1175,7.1291,7.1291,7.1291,7.1291,7.1291,7.1291,7.1291,7.1291,7.1291,7.1291,7.1291,7.1291,7.1291,7.1291,7.1291,7.1291,7.1291,7.1291,7.1291,7.1291,7.1291,7.1291,7.1291,7.1291,7.1291,7.1291,7.1291,7.1291,7.1291,7.1291,7.1291,7.1291,7.1291,7.1291,7.1291,7.1291,7.1291,7.1523,7.1949,7.1949,7.1949,7.1949,7.1949,7.2413,0.0,0.0,0.0,0.0,0.0,5.5879,0.0,0.0,0.0,0.0,0.0,0.0,0.0,0.0,0.0,0.0,0.0,0.0,0.0,0.0,0.0,0.0,0.0,0.0,0.0,0.0,6.5351,6.6717,6.6795,6.6795,6.6795,6.6795,6.6795,6.6795,6.6795,6.6795,6.6795,6.6795,6.6834,6.6873,6.6908,6.6914,6.6914,6.6914,6.6914,6.6914,6.6914,6.6914,6.6914,6.6914,6.6914,6.6875,6.6797,6.6758,6.6717,6.6533,6.6562,6.6766,6.7346,6.7617,6.7887,6.8738,6.9589,7.0247,7.0247,7.075,7.1291,7.1291,7.1291,7.1291,7.1291,7.1291,7.1291,7.1291,7.1291,7.1291,7.1291,7.1291,7.1291,7.1291,7.1291,7.1291,7.1291,7.1291,7.1291,7.1291,7.1291,7.1291,7.1291,7.1291,7.1291,7.1291,7.1291,7.1291,7.1291,7.1291,7.1291,7.1291,7.1291,7.1291,7.1291,7.1446,7.164,7.1794,7.1794,7.2142,7.2839,7.2839,7.2839,7.2839,7.2839,7.3303,0.0,0.0,0.0,0.0,5.575,0.0,0.0,0.0,0.0,0.0,0.0,0.0,0.0,0.0,0.0,0.0,0.0,0.0,0.0,0.0,0.0,0.0,0.0,0.0,0.0,0.0,0.0,6.6795,6.6795,6.6795,6.6795,6.6795,6.6795,6.6795,6.6795,6.6795,6.6795,6.6795,6.6795,6.6795,6.6859,6.691,6.6914,6.6914,6.6914,6.6914,6.6914,6.6914,6.6914,6.6914,6.6914,6.6914,6.6875,6.6875,6.6875,6.6716,6.7073,6.7634,6.7655,6.8119,6.8777,6.9589,7.044,7.1137,7.1137,7.1214,7.1291,7.1291,7.1291,7.1291,7.1291,7.1291,7.1291,7.1291,7.1291,7.1291,7.1291,7.1291,7.1291,7.1291,7.1291,7.1291,7.1291,7.1291,7.1291,7.1291,7.1291,7.1291,7.1291,7.1291,7.1291,7.1291,7.1291,7.1291,7.1291,7.1291,7.1291,7.1291,7.1291,7.1291,7.1291,7.2026,7.28,7.3574,7.3612,7.3651,7.3767,7.3767,7.3767,7.3767,7.3767,7.4193,0.0,0.0,0.0,0.0,0.0,0.0,0.0,0.0,5.5703,0.0,0.0,0.0,0.0,0.0,0.0,0.0,0.0,0.0,0.0,0.0,0.0,0.0,0.0,0.0,0.0,0.0,0.0,0.0,0.0,6.6795,6.6795,6.6795,6.6795,6.6795,6.6795,6.6795,6.6795,6.6795,6.6795,6.6795,6.6883,6.6904,6.6914,6.6914,6.6914,6.6914,6.6914,6.6914,6.6914,6.6914,6.6914,6.6953,6.7461,6.7344,6.6953,6.7305,6.7647,6.806,6.8932,6.9417,6.9744,7.0518,7.0982,7.1291,7.1291,7.1291,7.1291,7.1291,7.1291,7.1291,7.1291,7.1291,7.1291,7.1291,7.1291,7.1291,7.1291,7.1291,7.1291,7.1291,7.1291,7.1291,7.1291,7.1291,7.1291,7.1291,7.1291,7.1291,7.1291,7.1291,7.1291,7.1291,7.1756,7.2065,7.2065,7.2529,7.28,7.28,7.28,7.28,7.28,7.3148,7.3535,7.3883,7.3883,7.4115,7.4618,7.4618,7.485,7.5353,7.485,7.5044,5.6071,0.0,0.0,0.0,0.0,0.0,0.0,0.0,0.0,0.0,0.0,0.0,0.0,0.0,0.0,0.0,0.0,0.0,0.0,0.0,0.0,0.0,0.0,0.0,0.0,0.0,0.0,0.0,6.6795,6.6795,6.6795,6.6795,6.6795,6.6795,6.6795,6.6795,6.6795,6.6795,6.6795,6.6795,6.6873,6.6895,6.6913,6.6914,6.6914,6.6914,6.6914,6.6914,6.6914,6.6914,6.7031,6.7305,6.7969,6.7969,6.7695,6.8203,6.8528,6.8878,7.0037,7.0525,7.0672,7.1175,7.133,7.133,7.1291,7.1291,7.1291,7.1291,7.1291,7.1291,7.1291,7.1291,7.1291,7.1291,7.1291,7.1291,7.1291,7.1291,7.1291,7.1291,7.1291,7.1291,7.1291,7.1291,7.1291,7.1291,7.1291,7.1291,7.1291,7.1523,7.164,7.164,7.2452,7.2955,7.2955,7.3535,7.3883,7.3883,7.3883,7.3999,7.4231,7.4231,7.4347,7.4579,7.4579,7.4889,7.5469,7.5469,7.5779,7.6359,7.574,7.5817,0.0,0.0,0.0,5.5703,0.0,0.0,0.0,0.0,5.5703,0.0,0.0,0.0,0.0,0.0,5.728,5.8165,0.0,0.0,0.0,0.0,0.0,0.0,0.0,0.0,0.0,0.0,0.0,6.6795,6.6795,6.6795,6.6795,6.6795,6.6795,6.6795,6.6795,6.6795,6.6795,6.6795,6.6795,6.6795,6.6873,6.6887,6.6904,6.6913,6.6914,6.6914,6.6914,6.6914,6.6914,6.6914,6.7383,6.8164,6.8203,6.8711,6.9414,6.9453,6.9882,7.0503,7.0589,7.107,7.1601,7.1523,7.1485,7.1446,7.133,7.1291,7.1291,7.1291,7.1291,7.1291,7.1291,7.1291,7.1291,7.1291,7.1291,7.1291,7.1291,7.1291,7.1291,7.1291,7.1291,7.1291,7.1291,7.1291,7.1291,7.1291,7.1291,7.1291,7.1291,7.2026,7.2568,7.2568,7.3342,7.3844,7.3844,7.3883,7.3883,7.3883,7.3883,7.427,7.5044,7.5082,7.5469,7.6281,7.632,7.632,7.6359,7.6359,7.6359,7.6397,7.6359,7.6359,0.0,0.0,5.5703,5.5703,0.0,0.0,0.0,0.0,0.0,0.0,0.0,0.0,0.0,0.0,5.8742,5.905,5.9819,6.0358,0.0,0.0,0.0,0.0,0.0,0.0,0.0,0.0,0.0,6.6795,6.6795,6.6795,0.0,6.6795,6.6795,6.6795,6.6795,6.6795,6.6795,6.6795,6.6795,6.6795,6.6873,6.6887,6.6904,6.6912,6.6914,6.6914,6.6914,6.6914,6.6953,6.7539,6.793,6.832,6.9414,7.0039,7.0273,7.0273,7.0469,7.0742,7.1239,7.1558,7.1737,7.1667,7.1568,7.1485,7.1446,7.1369,7.1291,7.1291,7.1291,7.1291,7.1291,7.1291,7.1291,7.1291,7.1291,7.1291,7.1291,7.1291,7.1291,7.1291,7.1291,7.1291,7.1291,7.1794,7.1949,7.1369,7.1794,7.2142,7.2142,7.2916,7.3458,7.3458,7.4193,7.4695,7.4695,7.5237,7.5546,7.5546,7.5546,7.5662,7.5933,7.5972,7.6088,7.6397,7.6397,7.6397,7.6397,7.6397,7.6397,7.6397,7.6397,7.6397,5.5827,5.5768,0.0,0.0,5.5934,0.0,5.6165,0.0,0.0,0.0,0.0,0.0,0.0,0.0,5.9588,5.9896,6.0435,6.0896,0.0,6.1743,0.0,0.0,0.0,0.0,0.0,0.0,6.6666,6.6795,6.6778,6.6733,0.0,0.0,6.6795,6.6795,6.6795,6.6795,6.6795,6.6795,6.6795,6.6795,6.6873,6.6883,6.6895,6.6912,6.6914,6.6914,6.7226,6.7344,6.7422,6.8281,6.8828,6.9219,7.0273,7.0898,7.1172,7.1172,7.1172,7.1211,7.1719,7.1875,7.1874,7.1753,7.1682,7.1583,7.159,7.1485,7.1562,7.2104,7.1833,7.1485,7.2065,7.1756,7.1291,7.1291,7.1291,7.1291,7.1291,7.1291,7.1291,7.1291,7.1562,7.1756,7.1756,7.2491,7.2761,7.1872,7.2491,7.3071,7.3071,7.3806,7.4347,7.4347,7.5082,7.5546,7.5546,7.6088,7.6397,7.6397,7.6397,7.6397,7.6397,7.6397,7.6243,7.5933,7.6243,7.6243,7.5933,7.6243,7.6397,7.6397,7.6397,7.6397]},{"header":{"parameterUnit":"m.s-1","parameterCategory":1,"la1":30.6,"la2":29.2853,"lo1":-89.7004,"lo2":-87.6739,"dy":0.0162,"dx":0.0183,"nx":112,"ny":82,"refTime":"2023-11-14T06:00:00:Z","depth":0,"parameterNumber":3,"parameterNumberName":"V-component_of_WINDS"},"data":[0.0,0.0,0.0,0.0,0.0,0.0,0.0,0.0,0.0,0.0,0.0,0.0,0.0,0.0,0.0,0.0,0.0,0.0,0.0,0.0,0.0,0.0,0.0,0.0,0.0,0.0,0.0,0.0,0.0,0.0,0.0,0.0,0.0,0.0,0.0,0.0,0.0,0.0,0.0,0.0,0.0,0.0,0.0,0.0,0.0,0.0,0.0,0.0,0.0,0.0,0.0,0.0,0.0,0.0,0.0,0.0,0.0,0.0,0.0,0.0,0.0,0.0,0.0,0.0,0.0,0.0,0.0,0.0,0.0,0.0,0.0,0.0,0.0,0.0,0.0,0.0,0.0,0.0,0.0,0.0,0.0,0.0,0.0,0.0,0.0,0.0,0.0,0.0,0.0,0.0,0.0,-0.9822,-0.9822,-0.9822,-0.9822,-0.9822,-0.9822,-0.9822,0.0,0.0,0.0,0.0,0.0,0.0,0.0,0.0,0.0,0.0,0.0,0.0,0.0,0.0,0.0,0.0,0.0,0.0,0.0,0.0,0.0,0.0,0.0,0.0,0.0,0.0,0.0,0.0,0.0,0.0,0.0,0.0,0.0,0.0,0.0,0.0,0.0,0.0,0.0,0.0,0.0,0.0,0.0,0.0,0.0,0.0,0.0,0.0,0.0,0.0,0.0,0.0,0.0,0.0,0.0,0.0,0.0,0.0,0.0,0.0,0.0,0.0,0.0,0.0,0.0,0.0,0.0,0.0,0.0,0.0,0.0,0.0,0.0,0.0,0.0,0.0,0.0,0.0,0.0,0.0,0.0,0.0,0.0,0.0,0.0,0.0,0.0,0.0,0.0,0.0,0.0,0.0,0.0,0.0,0.0,0.0,0.0,0.0,0.0,0.0,0.0,0.0,0.0,0.0,-0.9822,-0.9822,-0.9822,-0.9822,-0.9822,-0.9822,-0.9822,-0.9822,0.0,0.0,0.0,0.0,0.0,0.0,0.0,0.0,0.0,0.0,0.0,0.0,0.0,0.0,0.0,0.0,0.0,0.0,0.0,0.0,0.0,0.0,0.0,0.0,0.0,0.0,0.0,0.0,0.0,0.0,0.0,0.0,0.0,0.0,0.0,0.0,0.0,0.0,0.0,0.0,0.0,0.0,0.0,0.0,0.0,0.0,0.0,0.0,0.0,0.0,0.0,0.0,0.0,0.0,0.0,0.0,0.0,0.0,0.0,0.0,0.0,0.0,0.0,0.0,0.0,0.0,0.0,0.0,0.0,0.0,0.0,0.0,0.0,0.0,0.0,0.0,0.0,0.0,0.0,0.0,0.0,0.0,0.0,0.0,0.0,0.0,0.0,0.0,0.0,0.0,0.0,0.0,0.0,0.0,0.0,0.0,0.0,0.0,0.0,0.0,0.0,0.0,0.0,-0.9822,-0.9822,-0.9822,-0.9822,-0.9822,-0.9822,-0.9822,-0.9822,-0.9822,-0.9822,0.0,0.0,0.0,0.0,0.0,0.0,0.0,0.0,0.0,0.0,0.0,0.0,0.0,0.0,0.0,0.0,0.0,0.0,0.0,0.0,0.0,0.0,0.0,0.0,0.0,0.0,0.0,0.0,0.0,0.0,0.0,0.0,0.0,0.0,0.0,0.0,0.0,0.0,0.0,0.0,0.0,0.0,0.0,0.0,0.0,0.0,0.0,0.0,0.0,0.0,0.0,0.0,0.0,0.0,0.0,0.0,0.0,0.0,0.0,0.0,0.0,0.0,0.0,0.0,0.0,0.0,0.0,0.0,0.0,0.0,0.0,0.0,0.0,0.0,0.0,0.0,0.0,0.0,0.0,0.0,0.0,0.0,0.0,0.0,0.0,0.0,0.0,0.0,0.0,0.0,0.0,0.0,0.0,0.0,0.0,0.0,0.0,0.0,0.0,0.0,0.0,0.0,-0.9822,-0.9822,-0.9822,-0.9822,-0.9822,-0.9822,-0.9822,-0.9822,-0.9822,-0.9822,0.0,0.0,0.0,0.0,0.0,0.0,0.0,0.0,0.0,0.0,0.0,0.0,0.0,0.0,0.0,0.0,0.0,0.0,0.0,0.0,0.0,0.0,0.0,0.0,0.0,0.0,0.0,0.0,0.0,0.0,0.0,0.0,0.0,0.0,0.0,0.0,0.0,0.0,0.0,0.0,0.0,0.0,0.0,0.0,0.0,0.0,0.0,0.0,0.0,0.0,0.0,0.0,0.0,0.0,0.0,0.0,0.0,0.0,0.0,0.0,0.0,0.0,0.0,0.0,0.0,0.0,0.0,0.0,0.0,0.0,0.0,0.0,0.0,0.0,0.0,0.0,0.0,0.0,0.0,0.0,0.0,0.0,0.0,0.0,0.0,0.0,0.0,0.0,0.0,0.0,0.0,0.0,0.0,0.0,0.0,0.0,0.0,0.0,0.0,0.0,0.0,0.0,-0.9822,-0.9822,-0.9822,-0.9822,-0.9822,-0.9822,-0.9822,-0.9822,-0.9822,-0.9822,0.0,0.0,0.0,0.0,0.0,0.0,0.0,0.0,0.0,0.0,0.0,0.0,0.0,0.0,0.0,0.0,0.0,0.0,0.0,0.0,0.0,0.0,0.0,0.0,0.0,0.0,0.0,0.0,0.0,0.0,0.0,0.0,0.0,0.0,0.0,0.0,0.0,0.0,0.0,0.0,0.0,0.0,0.0,0.0,0.0,0.0,0.0,0.0,0.0,0.0,0.0,0.0,0.0,0.0,0.0,0.0,0.0,0.0,0.0,0.0,0.0,0.0,0.0,0.0,0.0,0.0,0.0,0.0,0.0,0.0,0.0,0.0,0.0,0.0,0.0,0.0,0.0,0.0,0.0,0.0,0.0,0.0,0.0,0.0,0.0,0.0,0.0,0.0,0.0,0.0,0.0,0.0,0.0,0.0,0.0,0.0,0.0,0.0,0.0,0.0,0.0,0.0,-0.9822,-0.9822,0.0,-0.9822,-0.9822,-0.9822,-0.9822,-0.9822,-0.9822,0.0,0.0,0.0,0.0,0.0,0.0,0.0,0.0,0.0,0.0,0.0,0.0,0.0,0.0,0.0,0.0,0.0,0.0,0.0,0.0,0.0,0.0,0.0,0.0,0.0,0.0,0.0,0.0,0.0,0.0,0.0,0.0,0.0,0.0,0.0,0.0,0.0,0.0,0.0,0.0,0.0,0.0,0.0,0.0,0.0,0.0,0.0,0.0,0.0,0.0,0.0,0.0,0.0,0.0,0.0,0.0,0.0,0.0,0.0,0.0,0.0,0.0,0.0,0.0,0.0,0.0,0.0,0.0,0.0,0.0,0.0,0.0,0.0,0.0,0.0,0.0,0.0,0.0,0.0,0.0,0.0,0.0,0.0,0.0,0.0,0.0,0.0,0.0,0.0,0.0,0.0,0.0,0.0,0.0,0.0,0.0,0.0,0.0,0.0,0.0,0.0,0.0,-0.9822,-0.9822,-0.9822,0.0,-0.9822,-0.9822,-0.9822,-0.9822,-0.9822,-0.9822,0.0,0.0,0.0,0.0,0.0,0.0,0.0,0.0,0.0,0.0,0.0,0.0,0.0,0.0,0.0,0.0,0.0,0.0,0.0,0.0,0.0,0.0,0.0,0.0,0.0,0.0,0.0,0.0,0.0,0.0,0.0,0.0,0.0,0.0,0.0,0.0,0.0,0.0,0.0,0.0,0.0,0.0,0.0,0.0,0.0,0.0,0.0,0.0,0.0,0.0,0.0,0.0,0.0,0.0,0.0,0.0,0.0,0.0,0.0,0.0,0.0,0.0,0.0,0.0,0.0,0.0,0.0,0.0,0.0,0.0,0.0,0.0,0.0,0.0,0.0,0.0,0.0,0.0,0.0,0.0,0.0,0.0,0.0,0.0,0.0,0.0,0.0,0.0,0.0,0.0,0.0,0.0,0.0,0.0,0.0,0.0,0.0,0.0,0.0,0.0,0.0,0.0,-0.9822,-0.9822,-0.9822,-0.9822,-0.9822,-0.9822,-0.9822,-0.9822,-0.9822,0.0,0.0,0.0,0.0,0.0,0.0,0.0,0.0,0.0,0.0,0.0,0.0,0.0,0.0,0.0,0.0,0.0,0.0,0.0,0.0,0.0,0.0,0.0,0.0,0.0,0.0,0.0,0.0,0.0,0.0,0.0,0.0,0.0,0.0,0.0,0.0,0.0,0.0,0.0,0.0,0.0,0.0,0.0,0.0,0.0,0.0,0.0,0.0,0.0,0.0,0.0,0.0,0.0,0.0,0.0,0.0,0.0,0.0,0.0,0.0,0.0,0.0,0.0,0.0,0.0,0.0,0.0,0.0,0.0,0.0,0.0,0.0,0.0,0.0,0.0,0.0,0.0,0.0,0.0,0.0,0.0,0.0,0.0,0.0,0.0,0.0,0.0,0.0,0.0,0.0,0.0,0.0,0.0,0.0,0.0,0.0,0.0,0.0,0.0,0.0,0.0,0.0,0.0,0.0,-0.9822,-0.9822,-0.9822,-0.9822,-0.9822,-0.9822,-0.9822,-0.9822,-0.9822,0.0,0.0,0.0,0.0,0.0,0.0,0.0,0.0,0.0,0.0,0.0,0.0,0.0,0.0,0.0,0.0,0.0,0.0,0.0,0.0,0.0,0.0,0.0,0.0,0.0,0.0,0.0,0.0,0.0,0.0,0.0,0.0,0.0,0.0,0.0,0.0,0.0,0.0,0.0,0.0,0.0,0.0,0.0,0.0,0.0,0.0,0.0,0.0,0.0,0.0,0.0,0.0,0.0,0.0,0.0,0.0,0.0,0.0,0.0,0.0,0.0,0.0,0.0,0.0,0.0,0.0,0.0,0.0,0.0,0.0,0.0,0.0,0.0,0.0,0.0,0.0,0.0,0.0,0.0,0.0,0.0,0.0,0.0,0.0,0.0,0.0,0.0,0.0,0.0,0.0,0.0,0.0,0.0,0.0,0.0,0.0,0.0,0.0,0.0,0.0,0.0,0.0,-0.9822,-0.9822,-0.9822,-0.9822,-0.9822,-0.9822,-0.9822,-0.9822,-0.9822,-0.9822,0.0,0.0,0.0,0.0,0.0,0.0,0.0,0.0,0.0,0.0,0.0,0.0,0.0,0.0,0.0,0.0,0.0,0.0,0.0,0.0,0.0,0.0,0.0,0.0,0.0,0.0,0.0,0.0,0.0,0.0,0.0,0.0,0.0,0.0,0.0,0.0,0.0,0.0,0.0,0.0,0.0,0.0,0.0,0.0,0.0,0.0,0.0,0.0,0.0,0.0,0.0,0.0,0.0,0.0,0.0,0.0,0.0,0.0,0.0,0.0,0.0,0.0,0.0,0.0,0.0,0.0,0.0,0.0,0.0,0.0,0.0,0.0,0.0,0.0,0.0,0.0,0.0,0.0,0.0,0.0,0.0,0.0,0.0,0.0,0.0,0.0,0.0,0.0,0.0,0.0,0.0,0.0,0.0,0.0,0.0,0.0,0.0,0.0,0.0,0.0,0.0,0.0,-0.9822,-0.9822,-0.9822,-0.9822,-0.9822,-0.9822,-0.9822,-0.9822,-0.9829,-0.9842,0.0,0.0,0.0,0.0,0.0,0.0,0.0,0.0,0.0,0.0,0.0,0.0,0.0,0.0,0.0,0.0,0.0,0.0,0.0,0.0,0.0,0.0,0.0,0.0,0.0,0.0,0.0,0.0,0.0,0.0,0.0,0.0,0.0,0.0,0.0,0.0,0.0,0.0,0.0,0.0,0.0,0.0,0.0,0.0,0.0,0.0,0.0,0.0,0.0,0.0,0.0,0.0,0.0,0.0,0.0,0.0,0.0,0.0,0.0,0.0,-0.7154,0.0,0.0,0.0,0.0,0.0,0.0,0.0,0.0,0.0,0.0,0.0,0.0,0.0,0.0,0.0,0.0,0.0,0.0,0.0,0.0,0.0,0.0,0.0,0.0,0.0,0.0,0.0,0.0,0.0,0.0,0.0,0.0,0.0,0.0,0.0,0.0,0.0,0.0,0.0,0.0,0.0,-0.9822,-0.9822,-0.9822,-0.9822,-0.9822,-0.9822,-0.9822,-0.9822,-0.9869,-0.9992,0.0,0.0,0.0,0.0,0.0,0.0,0.0,0.0,0.0,0.0,0.0,0.0,0.0,0.0,0.0,0.0,0.0,0.0,0.0,0.0,0.0,0.0,0.0,0.0,0.0,0.0,0.0,0.0,0.0,0.0,0.0,0.0,0.0,0.0,0.0,0.0,0.0,0.0,0.0,0.0,0.0,0.0,0.0,0.0,0.0,0.0,0.0,0.0,0.0,0.0,0.0,0.0,0.0,0.0,0.0,0.0,0.0,0.0,0.0,0.0,0.0,-0.7154,0.0,0.0,0.0,0.0,0.0,0.0,0.0,0.0,0.0,0.0,0.0,0.0,0.0,0.0,0.0,0.0,0.0,0.0,0.0,0.0,0.0,0.0,0.0,0.0,0.0,0.0,0.0,0.0,0.0,0.0,0.0,0.0,0.0,0.0,0.0,0.0,0.0,0.0,0.0,0.0,-0.9822,-0.9822,-0.9822,-0.9822,-0.9883,-0.993,-0.993,-0.9998,-1.0073,-1.0154,-1.0086,0.0,0.0,0.0,0.0,0.0,0.0,0.0,0.0,0.0,0.0,0.0,0.0,0.0,0.0,0.0,0.0,0.0,0.0,0.0,0.0,0.0,0.0,0.0,0.0,0.0,0.0,0.0,0.0,0.0,0.0,0.0,0.0,0.0,0.0,0.0,0.0,0.0,0.0,0.0,0.0,0.0,0.0,0.0,0.0,0.0,0.0,0.0,0.0,0.0,0.0,0.0,0.0,0.0,0.0,0.0,-0.7332,-0.7332,-0.722,-0.722,-0.722,-0.7192,-0.7265,0.0,0.0,0.0,0.0,0.0,0.0,0.0,0.0,0.0,0.0,0.0,0.0,0.0,0.0,0.0,0.0,0.0,0.0,0.0,0.0,0.0,0.0,0.0,0.0,0.0,-0.8366,-0.8616,0.0,0.0,0.0,0.0,0.0,0.0,0.0,0.0,0.0,0.0,0.0,0.0,-0.9822,-0.9842,-0.9863,-0.9863,-0.9998,-1.0093,-1.0093,-1.0209,-1.029,-1.0317,-1.0297,-1.0304,0.0,0.0,0.0,0.0,0.0,0.0,0.0,0.0,0.0,0.0,0.0,0.0,0.0,0.0,0.0,0.0,0.0,0.0,0.0,0.0,0.0,0.0,0.0,0.0,0.0,0.0,0.0,0.0,0.0,0.0,0.0,0.0,-0.6958,-0.7527,0.0,0.0,0.0,0.0,0.0,0.0,0.0,0.0,0.0,0.0,0.0,0.0,0.0,0.0,-0.7154,-0.7145,-0.7198,-0.7198,-0.7657,-0.7823,-0.7823,-0.7591,-0.747,-0.7591,-0.7591,0.0,-0.7265,-0.7838,0.0,0.0,0.0,0.0,0.0,0.0,0.0,0.0,0.0,0.0,0.0,0.0,0.0,0.0,0.0,0.0,0.0,0.0,0.0,0.0,0.0,0.0,-0.7994,-0.7994,-0.7994,-0.8116,0.0,-0.922,-0.9335,-0.9335,0.0,0.0,0.0,0.0,0.0,0.0,0.0,0.0,-0.9822,-0.9937,-1.0019,-1.0019,-1.0161,-1.0249,-1.0249,-1.027,-1.0331,-1.046,-1.0351,-1.0392,-1.0649,-1.0419,0.0,0.0,0.0,0.0,0.0,0.0,0.0,0.0,0.0,0.0,0.0,0.0,0.0,0.0,0.0,0.0,0.0,0.0,0.0,0.0,0.0,0.0,0.0,0.0,0.0,0.0,0.0,0.0,0.0,-0.6438,-0.6665,-0.7001,-0.7124,-0.7247,0.0,0.0,0.0,0.0,0.0,0.0,0.0,0.0,0.0,-0.7252,-0.7258,-0.7177,-0.7241,-0.718,-0.7322,-0.7558,-0.7852,-0.7874,-0.7874,-0.7641,-0.7519,-0.7635,-0.7519,-0.7459,-0.7361,-0.7932,-0.8425,-0.8839,0.0,0.0,0.0,0.0,0.0,-0.8929,-0.8744,0.0,0.0,0.0,0.0,0.0,0.0,0.0,0.0,0.0,0.0,0.0,0.0,0.0,0.0,-0.7872,-0.7994,-0.8244,-0.861,-0.8976,-0.9335,0.0,-0.97,-0.9822,-0.9822,0.0,0.0,0.0,0.0,0.0,-0.9937,-1.0005,-1.008,-1.0168,-1.031,-1.0399,-1.0399,-1.048,-1.0555,-1.0616,-1.0561,-1.0582,-1.0717,-1.0595,-1.0514,0.0,0.0,0.0,0.0,0.0,0.0,0.0,0.0,0.0,0.0,0.0,0.0,0.0,0.0,0.0,0.0,0.0,0.0,0.0,0.0,0.0,0.0,0.0,0.0,0.0,0.0,0.0,0.0,-0.6379,-0.65,-0.6728,-0.6845,-0.6952,0.0,0.0,0.0,0.0,0.0,0.0,-0.7154,-0.7182,-0.7241,-0.7215,-0.7366,-0.7426,-0.7397,-0.7429,-0.7568,-0.7925,-0.7954,-0.7853,-0.7853,-0.7729,-0.7729,-0.7729,-0.7611,-0.7611,-0.7724,-0.8125,-0.8347,-0.8389,-0.8841,-0.8904,-0.8714,-0.8696,-0.8732,-0.8732,-0.8732,-0.861,-0.861,-0.861,0.0,-0.8732,-0.861,0.0,0.0,0.0,0.0,-0.8244,-0.8244,0.0,-0.7872,-0.7872,-0.8122,-0.8372,-0.8494,-0.8976,-0.9335,0.0,-0.97,-0.9822,-0.9822,0.0,0.0,0.0,0.0,-0.9924,-1.0032,-1.0114,-1.0209,-1.0324,-1.0466,-1.0548,-1.0548,-1.0656,-1.0717,-1.0717,-1.0717,-1.0717,-1.0717,-1.0717,-1.0663,0.0,0.0,0.0,0.0,0.0,0.0,0.0,0.0,0.0,0.0,0.0,0.0,0.0,0.0,0.0,0.0,0.0,0.0,0.0,0.0,0.0,0.0,0.0,0.0,0.0,0.0,0.0,0.0,0.0,0.0,-0.6743,-0.7073,0.0,0.0,0.0,0.0,-0.7154,-0.7154,-0.7154,-0.7154,-0.715,-0.7215,-0.722,-0.7685,-0.7869,-0.7874,-0.7875,-0.7937,-0.7937,-0.7922,-0.785,-0.785,-0.785,-0.785,-0.785,-0.785,-0.8099,-0.8332,-0.8083,-0.8054,-0.8283,-0.8528,-0.8726,-0.8848,-0.8488,-0.8366,-0.8366,-0.8116,-0.7994,-0.7994,-0.7994,-0.8122,-0.8366,-0.7994,-0.8122,0.0,0.0,-0.7994,-0.7872,-0.7872,-0.7872,-0.7872,-0.7872,-0.8122,-0.8488,-0.8854,-0.9098,-0.9335,0.0,-0.9579,-0.9822,-0.9822,0.0,-0.9822,-0.9822,-0.9944,-1.0039,-1.0046,-1.0297,-1.0473,-1.048,-1.0616,-1.0711,-1.0711,-1.0717,-1.0717,-1.0717,-1.0717,-1.0717,-1.0717,-1.0717,-1.0717,-1.0711,-1.1858,0.0,0.0,0.0,0.0,0.0,0.0,0.0,0.0,0.0,0.0,0.0,0.0,0.0,0.0,0.0,0.0,0.0,0.0,0.0,0.0,0.0,0.0,0.0,0.0,0.0,0.0,0.0,0.0,-0.6536,-0.6926,0.0,0.0,-0.7154,-0.7154,-0.7154,-0.7225,-0.7387,-0.7618,-0.7623,-0.7608,-0.769,-0.7853,-0.7914,-0.7867,-0.7911,-0.7933,-0.7933,-0.785,-0.7872,-0.7872,-0.7872,-0.7872,-0.7872,-0.7872,-0.7994,-0.8111,-0.8021,-0.8136,-0.8303,-0.8418,-0.8326,-0.8238,-0.8116,-0.8116,-0.8116,-0.7994,-0.7872,-0.7872,-0.7872,-0.7994,-0.7994,-0.7994,-0.7994,-0.7994,-0.7994,-0.7872,-0.7872,-0.7872,-0.8116,-0.8244,-0.8244,-0.861,-0.8976,-0.9092,-0.9457,-0.9579,-0.9579,-0.97,-0.9822,-0.9822,-0.9822,-0.9856,-0.9951,-1.0012,-1.012,-1.031,-1.0426,-1.0527,-1.0629,-1.0683,-1.0717,-1.0717,-1.0717,-1.0717,-1.0717,-1.0717,-1.0717,-1.0717,-1.0717,-1.0717,-1.0717,-1.2103,-1.3302,0.0,0.0,0.0,0.0,0.0,0.0,0.0,0.0,0.0,0.0,0.0,0.0,0.0,0.0,0.0,0.0,0.0,0.0,0.0,0.0,0.0,0.0,0.0,0.0,0.0,0.0,-0.6494,-0.6642,-0.7035,-0.7154,-0.7154,-0.7154,-0.7282,-0.7326,-0.729,-0.747,-0.7864,-0.7874,-0.7858,-0.7943,-0.7862,-0.7917,-0.7872,-0.7872,-0.7872,-0.7872,-0.7872,-0.7872,-0.7872,-0.7872,-0.7872,-0.7872,-0.7872,-0.7872,-0.7872,-0.7872,-0.7994,-0.8244,-0.8244,-0.8122,-0.7872,-0.7872,-0.7872,-0.7872,-0.7994,-0.8116,-0.8238,-0.8116,-0.8116,-0.7994,-0.7994,-0.7872,-0.7872,-0.7872,-0.7872,-0.7872,-0.7872,-0.8116,-0.8244,-0.8372,-0.8732,-0.9214,-0.9335,-0.9579,-0.9822,-0.9822,-0.9822,-0.9822,-0.9822,-0.9863,-0.993,-1.0032,-1.0134,-1.027,-1.0466,-1.0534,-1.0609,-1.0711,-1.0717,-1.0717,-1.0717,-1.0717,-1.0717,-1.0717,-1.0717,-1.0717,-1.0717,-1.0717,-1.0982,-1.1372,-1.3202,-1.4827,-1.6095,0.0,0.0,0.0,0.0,0.0,0.0,0.0,0.0,0.0,0.0,0.0,0.0,0.0,0.0,0.0,0.0,0.0,0.0,0.0,0.0,0.0,0.0,0.0,-0.639,-0.6401,-0.6627,-0.7186,-0.7194,-0.7154,-0.7154,-0.716,-0.7321,-0.7442,-0.7459,-0.7634,-0.7874,-0.7881,-0.7948,-0.7948,-0.7933,-0.7872,-0.7872,-0.7872,-0.7872,-0.7872,-0.7872,-0.7872,-0.7872,-0.7872,-0.7872,-0.7872,-0.7872,-0.7872,-0.7872,-0.7872,-0.7872,-0.7872,-0.7872,-0.7872,-0.7872,-0.7872,-0.7872,-0.7994,-0.8244,-0.861,-0.8854,-0.8494,-0.8372,-0.8366,-0.7994,-0.7872,-0.7872,-0.7872,-0.7872,-0.7872,-0.7872,-0.7872,-0.7994,-0.8366,-0.861,-0.8976,-0.9214,-0.9579,-0.9822,-0.9822,-0.9822,-0.9829,-0.9829,-0.9951,-1.0053,-1.0059,-1.031,0.0,-1.05,-1.0629,-1.0717,-1.0717,-1.0717,-1.0717,-1.0717,-1.0717,-1.0717,-1.0717,-1.0717,-1.0717,-1.0717,-1.0717,-1.1372,-1.2816,-1.5544,-1.7636,-1.9072,0.0,0.0,0.0,0.0,0.0,0.0,0.0,0.0,0.0,0.0,0.0,0.0,0.0,0.0,0.0,0.0,0.0,0.0,0.0,0.0,0.0,0.0,-0.6448,-0.638,-0.6355,-0.66,-0.7174,-0.7253,-0.7154,-0.7154,-0.7348,-0.7414,-0.7453,-0.7735,-0.7858,-0.7892,-0.7884,-0.7944,-0.7944,-0.7856,-0.7872,-0.7872,-0.7872,-0.7872,-0.7872,-0.7872,-0.7872,-0.7872,-0.7872,-0.7872,-0.7872,-0.7872,-0.7872,-0.7872,-0.7872,-0.7872,-0.7872,-0.7872,-0.7872,-0.7872,-0.7872,-0.7994,-0.8366,-0.861,-0.8854,-0.8854,-0.8732,-0.861,-0.8372,-0.8244,-0.8116,-0.7872,-0.7872,-0.7872,-0.7872,-0.7872,-0.8116,-0.8366,-0.8732,-0.8976,-0.9335,-0.9579,-0.97,-0.9822,-0.9822,-0.991,-0.9985,-0.9985,-1.0019,-1.012,-1.0337,0.0,0.0,-1.0643,-1.0697,-1.0717,-1.0717,-1.0717,-1.0717,-1.0717,-1.0717,-1.0717,0.0,-1.0717,-1.0717,-1.0717,-1.0717,-1.1901,-1.4259,-1.6073,-1.7636,0.0,0.0,0.0,0.0,0.0,0.0,0.0,0.0,0.0,0.0,0.0,0.0,0.0,0.0,0.0,0.0,0.0,0.0,0.0,0.0,0.0,0.0,-0.6437,-0.6453,-0.6507,-0.6681,-0.6823,-0.7197,-0.7155,-0.7154,-0.7154,-0.7381,-0.7475,-0.7525,-0.7713,-0.7845,-0.7895,-0.7955,-0.7872,-0.7872,-0.7872,-0.7872,-0.7872,-0.7872,-0.7872,-0.7872,-0.7872,-0.7872,-0.7872,-0.7872,-0.7872,0.0,-0.7872,-0.7872,-0.7872,-0.7872,-0.7872,0.0,0.0,0.0,0.0,0.0,-0.8366,-0.8854,-0.8976,-0.922,-0.9214,-0.9098,-0.8976,-0.8732,-0.861,-0.8488,-0.8238,-0.8116,-0.8122,-0.8116,-0.7994,-0.8122,-0.8488,-0.8854,-0.9098,-0.9335,-0.97,-0.9822,-0.9822,-0.9822,0.0,0.0,-0.9876,-1.0062,-1.0297,-1.0466,-1.0548,-1.0622,0.0,-1.0717,-1.0717,-1.0717,-1.0717,-1.0717,-1.0717,-1.0717,0.0,0.0,0.0,-1.0717,-1.0717,-1.1769,0.0,0.0,0.0,-1.8291,-1.9072,0.0,0.0,0.0,-1.8662,-1.8577,0.0,0.0,0.0,0.0,0.0,0.0,0.0,0.0,0.0,0.0,0.0,0.0,0.0,0.0,0.0,0.0,-0.6437,-0.6486,-0.6724,-0.7055,-0.7174,-0.7191,-0.7199,-0.7154,-0.7154,-0.7279,-0.7404,-0.7508,-0.7644,-0.7763,-0.7867,0.0,0.0,0.0,0.0,-0.7872,-0.7872,-0.7872,-0.7872,-0.7872,-0.7872,-0.7872,-0.7872,-0.7872,-0.7872,-0.7872,-0.7872,-0.7872,-0.7872,-0.7872,-0.7872,-0.7872,-0.7994,-0.7994,-0.7994,-0.8366,-0.8854,0.0,0.0,0.0,0.0,-0.9457,-0.9335,-0.9214,-0.8976,-0.8976,-0.8854,-0.8488,-0.8372,-0.8366,-0.7994,-0.8122,-0.8366,-0.8732,-0.8976,-0.9335,-0.97,-0.97,-0.9707,-0.9721,-0.9848,-0.987,-0.9755,-1.0148,-1.05,-1.0514,-1.0636,0.0,-1.0717,-1.0717,-1.0717,-1.0717,0.0,0.0,-1.0717,-1.0717,-1.0717,-1.0717,-1.0717,-1.0717,-1.0717,-1.3341,-1.4912,-1.4912,-1.7647,-1.9072,-1.9072,-1.9072,-1.9072,-1.9072,-1.8843,-1.8855,0.0,0.0,0.0,0.0,0.0,0.0,0.0,0.0,0.0,0.0,0.0,0.0,0.0,0.0,0.0,-0.6437,-0.6437,-0.6513,-0.6736,-0.6895,-0.7063,-0.7191,-0.7199,-0.7154,-0.7154,-0.7355,-0.7491,-0.7519,-0.772,-0.785,-0.7872,-0.7872,0.0,-0.7872,-0.7872,-0.7872,-0.7872,-0.7872,-0.7872,-0.7872,0.0,0.0,-0.7872,-0.7872,-0.7872,-0.7872,-0.7872,-0.7872,-0.7872,-0.7872,-0.7872,-0.7872,-0.8244,-0.8244,-0.8366,-0.8976,-0.9214,-0.9335,-0.9579,-0.97,-0.9822,-0.97,-0.9579,-0.9335,-0.9214,-0.9098,0.0,-0.8488,-0.8372,-0.8366,-0.7994,-0.7994,-0.8116,-0.8366,-0.8488,-0.8732,-0.9335,-0.9457,-0.9374,-0.949,-0.9619,-0.9634,-0.9522,-1.0084,-1.0404,-1.0267,-1.0571,-1.0717,-1.0717,-1.0717,-1.0717,-1.0717,-1.0717,-1.0717,-1.0717,-1.0717,-1.0717,-1.0717,-1.0717,-1.0717,-1.0717,-1.3341,-1.4912,-1.4912,-1.7647,-1.9072,-1.9072,-1.9072,-1.9072,-1.9072,-1.9024,-1.9024,0.0,0.0,0.0,0.0,0.0,0.0,0.0,0.0,0.0,0.0,0.0,-0.6437,0.0,0.0,-0.6437,-0.6437,-0.6437,-0.6524,-0.6768,-0.6801,-0.6978,-0.716,-0.7232,-0.7154,-0.7154,-0.7377,-0.7519,-0.7519,-0.7736,-0.7872,-0.7872,-0.7818,-0.7812,-0.7872,-0.7818,-0.7812,-0.7872,-0.7872,-0.7872,-0.7872,-0.7872,-0.7872,-0.7872,-0.7872,-0.7872,-0.7872,-0.7872,-0.7905,-0.7964,-0.803,-0.8051,-0.8051,-0.8432,-0.8605,-0.8732,-0.8976,-0.9335,-0.9579,-0.97,-0.9822,-0.9822,-0.9822,-0.97,-0.9579,-0.9579,-0.9457,-0.9335,-0.8976,-0.8732,-0.861,-0.8244,-0.8122,-0.8244,-0.8366,-0.861,-0.8976,-0.9214,-0.9394,-0.9464,-0.9542,-0.9469,-0.9503,-0.9181,-0.9645,-1.0109,-0.9915,-1.0193,-1.0459,-1.0459,-1.0585,-1.0717,-1.0717,-1.0717,-1.0717,-1.0717,-1.0717,-1.0751,-1.0826,-1.0765,-1.1017,-1.1881,-1.3779,-1.5173,-1.5944,-1.8033,-1.9072,-1.9072,-1.9072,-1.9072,-1.9072,-1.9072,-1.9072,0.0,0.0,0.0,0.0,0.0,0.0,0.0,0.0,-0.6426,-0.6437,-0.6437,-0.6437,-0.6437,-0.6437,-0.6437,-0.6437,-0.6437,-0.6524,-0.6768,-0.6801,-0.6888,-0.7127,-0.7154,-0.7154,-0.7154,-0.7377,-0.7519,-0.7519,-0.7736,-0.7861,-0.7839,-0.7774,-0.7769,-0.7834,-0.7769,-0.778,-0.7872,-0.7872,-0.7872,-0.7872,-0.7872,-0.7872,-0.7872,-0.7872,-0.7872,-0.7872,-0.7894,-0.7964,-0.8062,-0.8187,-0.8236,-0.8236,-0.8486,-0.8746,-0.8928,-0.9026,-0.9361,-0.97,-0.9822,-0.9822,-0.9822,-0.9822,-0.9822,-0.9822,-0.9822,-0.9822,-0.97,-0.9335,-0.9098,-0.8854,-0.8366,-0.8244,-0.8244,-0.8244,-0.8732,-0.9098,-0.913,-0.9224,-0.9318,-0.9375,-0.9307,-0.9205,-0.8836,-0.9191,-0.9528,-0.9661,-0.9927,-1.0193,-1.0326,-1.0585,-1.0717,-1.0717,-1.0717,-1.0731,-1.0765,-1.0792,-1.086,-1.0982,-1.0873,-1.1524,-1.2982,-1.4316,-1.5682,-1.712,-1.8512,-1.9157,-1.9157,-1.9096,-1.9072,-1.9072,-1.9072,-1.9072,-1.3596,-1.0904,-0.797,-0.7977,-0.8018,-0.7952,0.0,0.0,-0.6437,-0.6437,-0.6437,-0.6437,-0.6437,-0.6437,-0.6437,-0.6437,-0.6437,-0.6524,-0.6768,-0.6801,-0.6888,-0.7127,-0.7154,-0.7154,-0.7154,-0.7377,-0.7519,-0.7519,-0.7736,-0.7828,-0.7725,-0.7807,-0.7812,-0.7725,-0.7807,-0.7856,-0.7872,-0.7872,-0.7872,-0.7872,-0.7872,-0.7872,-0.7872,-0.7872,-0.7872,-0.7877,-0.7986,-0.804,-0.8062,-0.8187,-0.8236,-0.8236,-0.8236,-0.8469,-0.8816,-0.9199,-0.9452,-0.9457,-0.97,-0.9822,-0.9822,-0.9822,-0.9822,-0.9822,-0.9822,-0.9822,-0.97,-0.9098,-0.8976,-0.8732,-0.8116,-0.7994,-0.7994,-0.7994,-0.7994,-0.8144,-0.8505,-0.8664,-0.874,-0.898,-0.8915,-0.8841,-0.8684,-0.8712,-0.8989,-0.9661,-0.9927,-1.0326,-1.0591,-1.0717,-1.0717,-1.0717,-1.0717,-1.0772,-1.0914,-1.1043,-1.1118,-1.1138,-1.1124,-1.1805,-1.3319,-1.4647,-1.6116,-1.7615,-1.8874,-1.9422,-1.9422,-1.9193,-1.9072,-1.9072,-1.9072,-1.9072,-1.4267,-1.304,-1.111,0.0,-0.7502,-0.7036,-0.7036,-0.6736,-0.6437,-0.6437,-0.6437,-0.6437,-0.6437,-0.6437,-0.6437,0.0,-0.6437,-0.6497,-0.6671,-0.6757,-0.6866,-0.7035,-0.7111,-0.7154,-0.7154,-0.7312,-0.7442,-0.7513,-0.7676,-0.778,-0.7801,-0.778,-0.778,-0.7801,-0.778,-0.7807,-0.7872,-0.7872,-0.7872,-0.7872,-0.7872,-0.7872,-0.7872,-0.7872,-0.7872,-0.7883,-0.8073,-0.816,-0.8176,-0.8361,-0.8437,-0.8437,-0.8437,-0.853,-0.8582,-0.9221,-0.9456,-0.9464,-0.9828,-0.9897,-0.9822,-0.9822,-0.9822,-0.9822,-0.9822,-0.97,-0.9457,-0.922,-0.8854,-0.8488,-0.8244,-0.7994,-0.7872,-0.7872,-0.8049,-0.8234,-0.8409,-0.8666,-0.8805,-0.8915,-0.8864,-0.8662,-0.8579,-0.859,-0.8723,-0.9256,-0.9522,-0.9655,-0.9782,-0.9921,-1.0219,-1.043,-1.065,-1.073,-1.107,-1.1131,-1.1199,-1.1287,-1.1212,-1.2298,-1.4595,-1.5165,-1.6601,-1.8933,-1.9495,-1.9712,-1.9712,-1.9434,-1.9301,-1.9301,-1.9145,-1.9072,-1.428,-1.434,0.0,-0.906,-0.7384,-0.6714,-0.642,-0.6531,-0.6537,-0.6437,-0.6437,-0.6437,-0.6437,-0.6437,-0.6437,-0.6437,-0.6437,-0.648,-0.66,-0.6725,-0.6844,-0.697,-0.7084,-0.7154,-0.7154,-0.7263,-0.7388,-0.7508,-0.7633,-0.7736,-0.7818,-0.7774,-0.7774,-0.7823,-0.7774,-0.7785,-0.7872,-0.7872,-0.7872,-0.7872,-0.7872,-0.7872,-0.7872,-0.7872,-0.7872,-0.7883,-0.8095,-0.8204,-0.8253,-0.8454,-0.8557,-0.859,-0.859,-0.8535,-0.8454,-0.901,-0.9379,-0.9487,-0.9857,-0.9915,-0.9944,-0.9897,-0.9761,-0.9754,-0.9836,-0.9457,-0.9214,-0.9214,-0.8854,-0.8372,-0.8244,-0.8116,-0.7877,-0.7915,-0.8234,-0.8443,-0.8511,-0.8676,-0.8819,-0.8853,-0.8662,-0.859,-0.859,-0.859,-0.8717,-0.8984,-0.8984,-0.8984,-0.925,-0.9552,-0.9899,-1.0438,-1.058,-1.0809,-1.1226,-1.1267,-1.1335,-1.145,-1.1348,-1.2719,-1.5626,-1.5763,-1.7056,-2.0098,-2.0026,-1.9989,-1.9989,-1.9712,-1.9579,-1.9579,-1.9386,-1.9253,-1.4304,-1.4268,-1.3277,-0.9104,-0.7943,-0.7694,-0.662,-0.6736,-0.6848,-0.6437,-0.6437,-0.6437,-0.6437,-0.6437,-0.6437,-0.6437,-0.6437,-0.648,-0.66,-0.6725,-0.6844,-0.697,-0.7084,-0.7154,0.0,-0.7263,-0.7388,-0.7508,-0.7633,-0.7703,-0.7709,-0.7807,-0.7818,-0.7709,-0.7812,-0.7867,-0.7872,-0.7872,-0.7872,-0.7872,-0.7872,-0.7872,-0.7872,-0.7872,-0.7872,-0.7877,-0.8002,-0.8127,-0.8247,-0.8372,-0.8486,-0.859,-0.859,-0.8584,-0.8579,-0.8972,-0.9211,-0.9373,-0.9621,-1.0009,-1.0243,-1.0093,-0.9797,-0.9647,-0.9747,-0.9335,-0.8854,-0.8854,-0.861,-0.8366,-0.7994,-0.7872,-0.7899,-0.8019,-0.8051,-0.8117,-0.8356,-0.841,-0.8448,-0.8562,-0.8584,-0.859,-0.859,-0.859,-0.859,-0.859,-0.859,-0.8856,-0.9528,-0.9771,-1.0036,-1.0586,-1.0735,-1.0959,-1.1382,-1.1518,-1.1606,-1.1613,-1.1606,-1.2873,-1.5981,-1.6112,-1.7529,-2.0641,-2.04,-2.0267,-2.0267,-2.0002,-1.9869,-1.9869,-1.9869,-1.9712,-1.4292,-1.4256,-1.4002,-1.2554,-1.0583,-0.8909,-0.8315,-0.7534,-0.6742,-0.6437,-0.6437,-0.6437,-0.6437,-0.6437,-0.6437,-0.6437,-0.6437,-0.6448,-0.6491,-0.6676,-0.6817,-0.6861,-0.7035,0.0,0.0,0.0,0.0,-0.7502,-0.7557,-0.7649,-0.7807,-0.785,-0.7856,-0.7812,-0.785,-0.7872,-0.7872,-0.7872,-0.7872,-0.7872,-0.7872,-0.7872,-0.7872,-0.7872,-0.7872,-0.7877,-0.8002,-0.8079,-0.8133,-0.8334,-0.8443,-0.8481,-0.8557,-0.859,-0.859,-0.8717,-0.8933,-0.924,-0.9417,-0.9582,-0.9627,-0.9703,-0.969,-0.9677,-1.0015,-0.9619,-0.9117,-0.9117,-0.874,-0.8243,-0.8111,-0.8111,-0.8122,-0.8166,-0.8236,-0.8318,-0.8399,-0.8475,-0.8541,-0.8579,-0.859,-0.859,-0.859,-0.859,-0.859,-0.859,-0.8655,-0.8844,-0.9115,-0.9297,-0.9445,-0.9906,-1.0315,-1.0817,-1.111,-1.1449,-1.1619,-1.1619,-1.1619,-1.2888,-1.599,-1.6131,-1.7549,-2.0665,-2.0581,-2.0533,-2.0533,-2.0279,-2.0146,-2.0146,-1.9965,-1.9833,-1.4292,-1.434,-1.4171,-1.3676,-1.158,-0.9501,-0.9106,-0.7832,-0.6742,-0.6437,-0.6437,-0.6437,-0.6437,-0.6437,-0.6437,-0.6437,-0.6437,-0.6437,-0.6437,-0.6649,-0.6801,-0.6801,-0.7013,0.0,0.0,0.0,0.0,-0.7502,-0.7519,-0.7622,-0.7856,-0.7872,-0.7872,-0.7872,-0.7872,-0.7872,-0.7872,-0.7872,-0.7872,-0.7872,-0.7872,-0.7872,-0.7872,-0.7872,-0.7872,-0.7877,-0.7954,-0.8013,-0.8068,-0.8269,-0.8378,-0.8432,-0.8546,-0.859,-0.859,-0.859,-0.8717,-0.8972,-0.9156,-0.9335,-0.9386,-0.9594,-0.9447,-0.9441,-0.978,-0.9379,-0.8869,-0.8997,-0.8614,-0.8236,-0.8236,-0.8236,-0.8247,-0.8291,-0.8361,-0.8432,-0.847,-0.8535,-0.859,-0.859,-0.859,-0.859,-0.859,-0.859,-0.86,-0.8644,-0.8758,-0.8834,-0.8834,-0.9008,-0.9292,-0.9758,-1.012,-1.0462,-1.09,-1.1188,-1.1476,-1.1619,-1.1619,-1.2753,-1.5141,-1.5849,-1.7268,-1.982,-2.0388,-2.0665,-2.0665,-2.0496,-2.0412,-2.0412,-2.0243,-2.011,-1.4292,-1.4292,-1.3992,-1.2608,-1.1025,-0.9559,-0.8992,-0.7826,-0.6842,-0.6437,-0.6437,-0.6437,0.0,0.0,-0.6437,-0.6437,-0.6437,-0.6437,-0.6437,-0.6649,-0.6801,0.0,0.0,0.0,0.0,0.0,0.0,-0.7491,0.0,-0.7616,-0.785,-0.7867,-0.7872,-0.7872,-0.7872,-0.7872,-0.7872,-0.7872,-0.7872,-0.7872,-0.7872,-0.7872,-0.7872,-0.7872,-0.7872,-0.7872,-0.7872,-0.7937,-0.8051,-0.8182,-0.8301,-0.8421,-0.8541,-0.859,-0.859,-0.859,-0.859,-0.8584,-0.8984,-0.9389,-0.9643,-0.9377,-0.9205,-0.8921,-0.9178,-0.8759,-0.8253,-0.8637,-0.8509,-0.8253,-0.8253,-0.8253,-0.8285,-0.8399,-0.8426,-0.8454,-0.8562,-0.859,-0.859,-0.859,-0.859,-0.859,-0.859,-0.8595,-0.8638,-0.8753,-0.8878,-0.8959,-0.8959,-0.9068,-0.9325,-0.9867,-0.9879,-1.0167,-1.09,-1.1044,-1.1188,-1.1619,-1.1619,-1.233,-1.388,-1.5425,-1.6836,-1.8552,-1.9959,-2.0665,-2.0665,-2.0665,-2.0665,-2.0665,-2.0665,-2.0533,-1.4292,-1.4292,-1.4196,-1.3896,-1.2813,-1.1541,-1.0271,-0.9099,-0.7918,-0.6637,-0.6437,-0.6437,0.0,0.0,0.0,-0.6437,-0.6437,0.0,-0.6437,-0.6649,0.0,-0.6801,0.0,-0.7154,-0.7154,-0.7154,0.0,0.0,-0.7464,-0.7584,-0.7736,-0.7823,-0.7872,-0.7872,-0.7872,-0.7872,-0.7872,-0.7872,-0.7872,-0.7872,-0.7872,-0.7872,-0.7872,-0.7872,-0.7872,-0.7872,-0.7872,-0.7888,-0.7932,-0.8149,-0.8253,-0.8301,-0.8508,-0.859,-0.859,-0.859,-0.859,-0.859,-0.8717,-0.8856,-0.8851,-0.9082,-0.9071,-0.9065,-0.9432,-0.9288,-0.8887,-0.9019,-0.8761,-0.8497,-0.8497,-0.8497,-0.8508,-0.8535,-0.8546,-0.8552,-0.8584,-0.859,-0.859,-0.859,-0.859,-0.859,-0.859,-0.8666,-0.8736,-0.8764,-0.8948,-0.909,-0.909,-0.9188,-0.9275,-0.9446,-0.9735,-1.0167,-1.0599,-1.0894,-1.1188,-1.1619,-1.1619,-1.2753,-1.5425,-1.5849,-1.7409,-2.0098,-2.0527,-2.0665,-2.0665,-2.0665,-2.0665,-2.0665,-2.0665,-2.0629,-1.3619,-1.363,-1.363,-1.363,-1.2446,-1.1072,-1.028,-0.8901,-0.7521,-0.6637,-0.6437,0.0,-0.6437,0.0,0.0,0.0,0.0,0.0,-0.6437,-0.6649,-0.6801,0.0,-0.7013,0.0,-0.7154,-0.7154,-0.7182,0.0,-0.7372,-0.7513,-0.7693,-0.7763,-0.7818,-0.7872,-0.7872,-0.7872,-0.7872,-0.7872,-0.7872,-0.7872,-0.7872,-0.7872,-0.7872,-0.7872,-0.7872,-0.7872,0.0,-0.7872,-0.7888,-0.8133,-0.8236,-0.8258,-0.8497,-0.859,-0.859,-0.859,-0.859,-0.859,-0.859,-0.859,-0.8584,-0.8851,-0.8851,-0.8984,-0.9123,-0.9123,-0.8851,-0.8851,-0.8717,-0.859,-0.859,-0.859,-0.859,-0.859,-0.859,-0.859,-0.859,-0.859,-0.859,-0.859,-0.8633,-0.8666,-0.8666,-0.8769,-0.8867,-0.8921,-0.9046,-0.9155,-0.9204,-0.9264,-0.9302,-0.9302,-0.9446,-0.9735,-1.0167,-1.0606,-1.0894,-1.1332,-1.1476,-1.261,-1.5008,-1.5707,-1.7268,-1.968,-2.0388,-2.0665,-2.0665,-2.0665,-2.0665,-2.0665,-2.0665,-2.0665,-1.2759,-1.2759,-1.2759,-1.2759,-1.1277,-0.9805,-0.9608,-0.8124,-0.6637,-0.6437,-0.6437,-0.6437,-0.6437,-0.6437,-0.6437,-0.6437,0.0,-0.6437,-0.6437,-0.6649,-0.6801,-0.6801,-0.7013,-0.7154,-0.7154,-0.7154,-0.7154,-0.7154,-0.7252,-0.7421,-0.7665,-0.7693,-0.7752,-0.7867,-0.7872,-0.7872,-0.7872,-0.7872,-0.7872,-0.7872,-0.7872,-0.7872,-0.7872,-0.7872,-0.7872,-0.7872,0.0,0.0,-0.7888,-0.8133,-0.8236,-0.8258,-0.8497,-0.859,-0.859,-0.859,-0.859,-0.859,-0.859,-0.859,-0.859,-0.859,-0.859,-0.859,-0.859,-0.859,-0.859,-0.859,-0.859,-0.859,-0.859,-0.859,-0.859,-0.859,-0.859,-0.859,-0.859,-0.859,-0.859,-0.8606,-0.8698,-0.8774,-0.8791,-0.8894,-0.9014,-0.9117,-0.915,-0.9193,-0.9291,-0.9302,-0.9302,-0.9302,-0.9302,-0.9446,-0.9879,-1.0311,-1.0599,-1.1044,-1.1332,-1.233,-1.4164,-1.5425,-1.6987,-1.8692,-1.9959,-2.0665,-2.0665,-2.0665,-2.0665,-2.0665,-2.0665,-2.0665,-1.2759,-1.2759,-1.2759,-1.2759,-1.2058,-1.0974,-0.9903,-0.881,0.0,-0.6631,-0.6437,-0.6437,-0.6437,-0.6437,-0.6437,-0.6437,0.0,0.0,0.0,0.0,-0.6801,0.0,0.0,0.0,0.0,0.0,0.0,0.0,0.0,0.0,-0.7535,-0.7649,-0.7752,-0.7867,-0.7872,-0.7872,-0.7872,-0.7872,-0.7872,-0.7872,-0.7872,-0.7872,-0.7872,-0.7872,-0.7872,-0.7872,0.0,0.0,-0.7888,-0.8133,-0.8236,-0.8258,-0.8497,-0.859,-0.859,-0.859,-0.859,-0.859,-0.859,-0.859,-0.859,-0.859,-0.859,-0.859,-0.859,-0.859,-0.859,-0.859,-0.859,-0.859,-0.859,-0.859,-0.859,-0.859,-0.859,-0.859,-0.859,-0.859,-0.8617,-0.872,-0.8758,-0.8802,-0.8905,-0.9024,-0.9111,-0.9133,-0.9215,-0.928,-0.9302,-0.9302,-0.9302,-0.9302,-0.9302,-0.9446,-0.9879,-1.0311,-1.0599,-1.1044,-1.1332,-1.2888,-1.5566,-1.599,-1.7409,-2.0249,-2.0527,-2.0665,-2.0665,-2.0665,-2.0665,-2.0665,-2.0665,-2.0665,-1.198,-1.198,-1.1883,-1.1492,-1.0699,-0.9895,-0.8817,0.0,0.0,-0.6537,-0.6437,-0.6437,-0.6437,-0.6437,0.0,-0.6437,0.0,0.0,0.0,0.0,0.0,0.0,0.0,0.0,0.0,0.0,0.0,0.0,0.0,0.0,-0.7415,-0.76,-0.7752,-0.7867,-0.7872,-0.7872,-0.7872,-0.7872,-0.7872,-0.7872,-0.7872,-0.7872,-0.7872,-0.7872,-0.7872,-0.7872,-0.7872,0.0,-0.7888,-0.8133,-0.8236,-0.8258,-0.8497,-0.859,-0.859,-0.859,-0.859,-0.859,-0.859,-0.859,-0.859,-0.859,-0.859,-0.859,-0.859,-0.859,-0.859,-0.859,-0.859,-0.859,-0.859,-0.859,-0.859,-0.859,-0.859,-0.859,-0.859,-0.8638,-0.8698,-0.8758,-0.8872,-0.8981,-0.9035,-0.9144,-0.922,-0.922,-0.9269,-0.9302,-0.9302,-0.9302,-0.9302,-0.9302,-0.9302,-0.9446,-0.959,-1.0023,-1.0311,-1.075,-1.1038,-1.2745,-1.599,-1.6131,-1.7549,-2.0665,-2.0665,-2.0665,-2.0665,-2.0665,-2.0665,-2.0665,-2.0665,-2.0665,-1.0699,-1.0699,-1.0502,-0.992,-0.9122,-0.8428,-0.7733,-0.693,0.0,-0.6437,-0.6437,-0.6437,-0.6437,-0.6437,-0.6437,-0.6437,-0.6437,-0.6437,0.0,0.0,0.0,0.0,0.0,0.0,0.0,0.0,0.0,0.0,0.0,0.0,0.0,-0.7568,-0.7741,-0.7834,-0.7856,-0.7872,-0.7872,-0.7872,-0.7872,-0.7872,-0.7872,-0.7872,-0.7872,-0.7872,-0.7872,-0.7872,-0.7872,0.0,0.0,-0.8133,-0.8236,-0.8258,-0.8497,-0.859,-0.859,-0.859,-0.859,-0.859,-0.859,-0.859,-0.859,-0.859,-0.859,-0.859,-0.859,-0.859,-0.859,-0.859,-0.859,-0.859,-0.859,-0.859,-0.859,-0.859,-0.859,-0.8595,-0.8622,-0.8704,-0.8785,-0.884,-0.9003,-0.9144,-0.9166,-0.9242,-0.9302,-0.9302,-0.9302,-0.9302,-0.9302,-0.9302,-0.9302,-0.9302,-0.9302,-0.9302,-0.9302,-0.9735,-1.0023,-1.0311,-1.075,-1.2316,-1.5425,-1.5849,-1.7409,-2.0098,-2.0527,-2.0665,-2.0665,-2.0665,-2.0665,-2.0665,-2.0665,-2.0665,-0.9221,-0.9023,-0.9023,-0.8924,-0.8329,-0.7726,-0.7633,0.0,-0.6437,-0.6437,-0.6437,-0.6437,-0.6437,-0.6437,-0.6437,-0.6437,-0.6437,-0.6437,-0.6437,0.0,0.0,0.0,0.0,0.0,0.0,0.0,0.0,0.0,0.0,0.0,0.0,-0.7568,-0.7703,-0.772,-0.7818,-0.7872,-0.7872,-0.7872,-0.7872,-0.7872,-0.7872,-0.7872,-0.7872,-0.7872,-0.7872,-0.7872,0.0,0.0,0.0,-0.8133,-0.8236,-0.8258,-0.8497,-0.859,-0.859,-0.859,-0.859,-0.859,-0.859,-0.859,-0.859,-0.859,-0.859,-0.859,-0.859,-0.859,-0.859,-0.859,-0.859,-0.859,-0.859,-0.859,-0.859,-0.859,-0.859,-0.8617,-0.8731,-0.8764,-0.8834,-0.9057,-0.9117,-0.9166,-0.9269,-0.9296,-0.9302,-0.9302,-0.9302,-0.9302,-0.9302,-0.9302,-0.9302,-0.9302,-0.9302,-0.9302,-0.9302,-0.9735,-0.9879,-1.0023,-1.0606,-1.1749,-1.3444,-1.5141,-1.6836,-1.8552,-1.9959,-2.0665,-2.0665,-2.0665,-2.0665,-2.0665,-2.0665,-2.0665,-0.8924,-0.8825,-0.8726,-0.823,-0.7826,-0.7428,-0.7036,-0.6637,-0.6437,-0.6437,-0.6437,-0.6437,-0.6437,-0.6437,-0.6437,-0.6437,-0.6437,-0.6437,-0.6437,-0.6649,0.0,0.0,0.0,0.0,0.0,0.0,0.0,0.0,0.0,0.0,0.0,-0.7459,-0.7627,-0.7698,-0.7812,-0.7872,-0.7872,-0.7872,-0.7872,-0.7872,-0.7872,-0.7872,-0.7872,-0.7872,-0.7872,-0.7872,0.0,0.0,0.0,-0.8133,-0.8236,-0.8258,-0.8497,-0.859,-0.859,-0.859,-0.859,-0.859,-0.859,-0.859,-0.859,-0.859,-0.859,-0.859,-0.859,-0.859,-0.859,-0.859,-0.859,-0.859,-0.859,-0.859,-0.8606,-0.8682,-0.8698,-0.8731,-0.8851,-0.8938,-0.9019,-0.9117,-0.9188,-0.9253,-0.9296,-0.9302,-0.9302,-0.9302,-0.9302,-0.9302,-0.9302,-0.9302,-0.9302,-0.9302,-0.9302,-0.9302,-0.9302,-0.9446,-0.959,-0.9879,-1.0167,-1.1168,-1.3167,-1.4858,-1.6554,-1.8412,-1.9959,-2.0665,-2.0665,-2.0665,-2.0665,-2.0665,-2.0665,-2.0665,-0.8131,-0.8131,-0.7925,-0.7434,-0.7235,-0.7129,-0.6537,-0.6437,-0.6437,-0.6437,-0.6437,-0.6437,-0.6437,-0.6437,-0.6437,-0.6437,-0.6437,-0.6437,-0.6437,-0.6649,-0.6801,0.0,0.0,0.0,0.0,0.0,0.0,0.0,0.0,0.0,0.0,-0.735,-0.7519,-0.7644,-0.7763,-0.7839,-0.7872,-0.7872,-0.7872,-0.7872,-0.7872,-0.7872,-0.7872,-0.7872,-0.7872,-0.7872,0.0,0.0,0.0,-0.8149,-0.8258,-0.8312,-0.8508,-0.859,-0.859,-0.859,-0.859,-0.859,-0.859,-0.859,-0.859,-0.859,-0.859,-0.859,-0.859,-0.859,-0.859,-0.859,-0.859,-0.8595,-0.8633,-0.8638,-0.8671,-0.8796,-0.8823,-0.8856,-0.8981,-0.9073,-0.9144,-0.9177,-0.9247,-0.9302,-0.9302,-0.9302,-0.9302,-0.9302,-0.9302,-0.9302,-0.9302,-0.9302,-0.9302,-0.9302,-0.9302,-0.9302,-0.9302,-0.9302,-0.9446,-0.9735,-0.9879,-1.0737,-1.2452,-1.4006,-1.5849,-1.77,-1.9251,-2.0249,-2.0665,-2.0665,-2.0665,-2.0665,-2.0665,-2.0665,-0.6637,-0.6437,-0.6437,-0.6437,-0.6437,-0.6437,-0.6437,-0.6437,-0.6437,-0.6437,-0.6437,-0.6437,-0.6437,-0.6437,-0.6437,-0.6437,-0.6437,-0.6437,-0.6437,-0.6649,0.0,0.0,0.0,0.0,0.0,0.0,0.0,0.0,0.0,0.0,0.0,0.0,-0.7394,-0.7519,-0.7638,-0.7758,-0.7872,-0.7872,-0.7872,-0.7872,-0.7872,-0.7872,-0.7872,-0.7872,-0.7872,0.0,0.0,0.0,0.0,-0.8187,-0.8307,-0.8426,-0.8541,-0.859,-0.859,-0.859,-0.859,-0.859,-0.859,-0.859,-0.859,-0.859,-0.859,-0.859,-0.859,-0.859,-0.859,-0.859,-0.859,-0.8617,-0.8736,-0.8769,-0.8802,-0.8921,-0.8948,-0.8986,-0.9106,-0.9133,-0.9166,-0.928,-0.9302,-0.9302,-0.9302,-0.9302,-0.9302,-0.9302,-0.9302,-0.9302,-0.9302,-0.9302,-0.9302,-0.9302,-0.9302,-0.9302,-0.9302,-0.9302,-0.9302,-0.9302,-0.9735,-1.0023,-1.0455,-1.2309,-1.4156,-1.6131,-1.7689,-1.9111,-2.0665,-2.0665,-2.0665,-2.0665,-2.0665,-2.0665,-0.6437,-0.6437,-0.6437,-0.6437,-0.6437,-0.6437,-0.6437,-0.6437,-0.6437,-0.6437,-0.6437,-0.6437,-0.6437,-0.6437,-0.6437,-0.6437,-0.6437,-0.6442,-0.6353,0.0,0.0,0.0,0.0,0.0,0.0,0.0,0.0,0.0,0.0,0.0,0.0,0.0,-0.7307,-0.7513,-0.7638,-0.7758,-0.7872,-0.7872,-0.7872,-0.7872,-0.7872,-0.7872,-0.7872,-0.7872,0.0,0.0,0.0,0.0,0.0,-0.8187,-0.8307,-0.8432,-0.8546,-0.859,-0.859,-0.859,-0.8638,-0.8715,-0.8715,-0.8769,-0.8823,-0.8736,-0.8715,-0.8698,-0.8611,-0.859,-0.8606,-0.8687,-0.8774,-0.8845,-0.8883,-0.8894,-0.8927,-0.9046,-0.9079,-0.9106,-0.9226,-0.9253,-0.9264,-0.9296,-0.9302,-0.9302,-0.9302,-0.9302,-0.9302,-0.9302,-0.9302,-0.9302,-0.9302,-0.9302,-0.9302,-0.9302,-0.9302,-0.9302,-0.9302,-0.9302,-0.9302,-0.9302,-0.9446,-0.9735,-1.0023,-1.1592,-1.2873,-1.3721,-1.6554,-1.8261,-1.8681,-2.0098,-2.0665,-2.0665,-2.0665,-2.0665,-0.6437,-0.6437,-0.6437,-0.6437,-0.6437,-0.6437,-0.6437,-0.6437,-0.6437,-0.6437,-0.6437,-0.6437,-0.6437,-0.6437,-0.6437,-0.6437,-0.6437,-0.6453,-0.6513,0.0,0.0,0.0,0.0,0.0,0.0,0.0,0.0,0.0,0.0,0.0,0.0,0.0,-0.7312,-0.7513,-0.7595,-0.7709,-0.7872,-0.7872,-0.7872,-0.7872,-0.7872,-0.7872,-0.7872,-0.7872,0.0,0.0,0.0,0.0,0.0,-0.8204,-0.8361,-0.8557,-0.8628,-0.8682,-0.8725,-0.8725,-0.8774,-0.884,-0.884,-0.8889,-0.8932,-0.8807,-0.8769,-0.8764,-0.8736,-0.8693,-0.8682,-0.8807,-0.8894,-0.8965,-0.9008,-0.9019,-0.9052,-0.9171,-0.9198,-0.922,-0.9291,-0.9302,-0.9302,-0.9302,-0.9302,-0.9302,-0.9302,-0.9302,-0.9302,-0.9302,-0.9302,-0.9302,-0.9302,-0.9302,-0.9302,-0.9302,-0.9302,-0.9302,-0.9302,-0.9302,-0.9302,-0.9302,-0.9302,-0.9446,-0.9879,-1.0731,-1.1729,-1.2731,-1.4858,-1.6131,-1.6695,-1.8681,-1.9669,-1.982,-2.0388,-2.0665,0.0,-0.6437,-0.6437,-0.6437,-0.6437,-0.6437,-0.6437,-0.6437,0.0,-0.6437,-0.6437,-0.6437,-0.6437,-0.6437,-0.6437,-0.6437,-0.6442,-0.6491,-0.6605,-0.6834,0.0,0.0,0.0,0.0,0.0,0.0,0.0,0.0,0.0,0.0,0.0,0.0,0.0,-0.7513,-0.7529,-0.7644,-0.7867,-0.7872,-0.7872,-0.7872,-0.7872,-0.7872,-0.7872,-0.7872,0.0,0.0,0.0,0.0,0.0,-0.8258,-0.847,-0.8785,-0.8785,-0.8851,-0.8954,-0.8954,-0.8959,-0.8965,-0.8965,-0.897,-0.8954,-0.8834,-0.8791,-0.8807,-0.8927,-0.8889,-0.8818,-0.8932,-0.897,-0.9003,-0.9117,-0.915,-0.9171,-0.928,-0.9302,-0.9302,-0.9302,-0.9302,-0.9302,-0.9302,-0.9302,-0.9302,-0.9302,-0.9302,-0.9302,-0.9302,-0.9302,-0.9302,-0.9302,-0.9302,-0.9302,-0.9302,-0.9302,-0.9302,-0.9302,-0.9302,-0.9302,-0.9302,-0.9302,-0.9446,-0.9879,-0.9879,-1.0737,-1.2445,-1.2588,-1.3436,-1.4982,-1.6836,-1.797,-1.8412,-1.9959,-2.0665,-0.6437,0.0,-0.6437,-0.6437,-0.6437,-0.6437,0.0,-0.6437,-0.6437,-0.6437,-0.6437,-0.6437,-0.6437,-0.6437,-0.6437,-0.6437,-0.6513,-0.6589,-0.6627,0.0,0.0,0.0,0.0,0.0,0.0,0.0,0.0,0.0,0.0,0.0,0.0,0.0,0.0,-0.7513,-0.7611,-0.7725,-0.7872,-0.7872,-0.7872,-0.7872,-0.7872,-0.7872,-0.7872,-0.7872,0.0,0.0,0.0,0.0,-0.8383,-0.847,-0.8666,-0.891,-0.891,-0.8927,-0.8954,-0.8954,-0.9008,-0.909,-0.909,-0.915,-0.9204,-0.9084,-0.8986,-0.8932,-0.9052,-0.9073,-0.9057,-0.9084,-0.9155,-0.9226,-0.9258,-0.9264,-0.9269,-0.9296,-0.9302,-0.9302,-0.9302,-0.9302,-0.9302,-0.9302,-0.9302,-0.9302,-0.9302,-0.9302,-0.9302,-0.9302,-0.9302,-0.9302,-0.9302,-0.9302,-0.9302,-0.9302,-0.9302,-0.9302,-0.9302,-0.9302,-0.9302,-0.9302,-0.9302,-0.9302,-0.9446,-0.9446,-0.959,-1.0017,-1.1442,-1.3143,-1.4982,-1.6272,-1.7268,-1.797,-1.9251,-2.0098,-0.6037,-0.6237,-0.6437,-0.6437,-0.6437,-0.6437,-0.6437,-0.6437,-0.6437,-0.6437,-0.6437,-0.6437,-0.6437,-0.6437,-0.6353,-0.6412,-0.6476,-0.6599,0.0,0.0,0.0,0.0,0.0,0.0,0.0,0.0,0.0,0.0,0.0,0.0,0.0,0.0,0.0,0.0,-0.772,-0.7807,-0.7872,-0.7872,-0.7872,-0.7872,-0.7872,-0.7872,-0.7872,-0.7872,0.0,0.0,0.0,0.0,-0.8584,-0.8644,-0.8812,-0.9035,-0.9035,-0.9068,-0.9111,-0.9111,-0.9155,-0.9209,-0.9209,-0.922,-0.9226,-0.9215,-0.9133,-0.9057,-0.9177,-0.9209,-0.9209,-0.9209,-0.9258,-0.9302,-0.9302,-0.9302,-0.9302,-0.9302,-0.9302,-0.9302,-0.9302,-0.9302,-0.9302,-0.9302,-0.9302,-0.9302,-0.9302,-0.9302,-0.9302,-0.9302,-0.9302,-0.9302,-0.9302,-0.9302,-0.9302,-0.9302,-0.9302,-0.9302,-0.9302,-0.9302,-0.9302,-0.9302,-0.9302,-0.9302,-0.9302,-0.9302,-0.9302,-0.9302,-1.0305,-1.1442,-1.2723,-1.4006,-1.5141,-1.6272,-1.7549,-1.8692,-0.5536,-0.5737,-0.6032,-0.6337,-0.6437,-0.6437,-0.6437,-0.6437,-0.6437,-0.6437,0.0,-0.6442,-0.6458,-0.6364,0.0,0.0,0.0,0.0,0.0,0.0,0.0,0.0,0.0,0.0,0.0,0.0,0.0,0.0,0.0,0.0,0.0,0.0,0.0,-0.7725,-0.7839,-0.7899,-0.7899,-0.7883,-0.7872,-0.7872,-0.7872,-0.7883,-0.7899,-0.7899,0.0,0.0,0.0,0.0,-0.8802,-0.8818,-0.8959,-0.916,-0.916,-0.922,-0.9302,-0.9302,-0.9302,-0.9302,-0.9302,-0.9242,-0.9177,-0.9275,-0.9237,-0.9177,-0.9275,-0.9302,-0.9302,-0.9302,-0.9302,-0.9302,-0.9302,-0.9302,-0.9302,-0.9302,-0.9302,-0.9302,-0.9302,-0.9302,-0.9302,-0.9302,-0.9302,-0.9302,-0.9302,-0.9302,-0.9302,-0.9302,-0.9302,-0.9302,-0.9302,-0.9302,-0.9302,-0.9302,-0.9302,-0.9302,-0.9302,-0.9302,-0.9302,-0.9302,-0.9302,-0.9302,-0.9302,-0.9302,-0.9302,-0.9302,-0.9302,-0.9446,-0.9879,-1.1305,-1.2723,-1.4148,-1.5566,-1.6846,-0.5436,-0.4826,-0.4422,-0.6032,-0.6437,-0.6437,-0.6437,-0.6437,-0.6437,-0.6437,-0.6437,-0.6469,0.0,-0.6492,0.0,0.0,0.0,0.0,0.0,0.0,0.0,0.0,0.0,0.0,0.0,0.0,0.0,0.0,0.0,0.0,0.0,0.0,0.0,-0.7845,-0.7964,-0.8024,-0.8024,-0.7921,-0.7872,-0.7872,-0.7872,-0.7926,-0.8024,-0.8024,-0.816,0.0,0.0,-0.8682,-0.8932,-0.9035,-0.9155,-0.928,-0.928,-0.9291,-0.9302,-0.9302,-0.9302,-0.9302,-0.9302,-0.9291,-0.928,-0.9296,-0.9291,-0.928,-0.9296,-0.9302,-0.9302,-0.9302,-0.9302,-0.9302,-0.9302,-0.9302,-0.9302,-0.9302,-0.9302,-0.9302,-0.9302,-0.9302,-0.9302,-0.9302,-0.9302,-0.9302,-0.9302,-0.9302,-0.9302,-0.9302,-0.9302,-0.9302,-0.9302,-0.9302,-0.9302,-0.9302,-0.9302,-0.9302,-0.9302,-0.9302,-0.9302,-0.9302,-0.9302,-0.9302,-0.9302,-0.9302,-0.9302,-0.9302,-0.9302,-0.9302,-0.9446,-1.0593,-1.1592,-1.2437,-1.3721,-1.4707,-0.4634,-0.4529,-0.4329,-0.4826,-0.4526,-0.4325,-0.4826,-0.4526,-0.4336,-0.4896,0.0,0.0,0.0,0.0,0.0,0.0,0.0,0.0,0.0,0.0,0.0,0.0,0.0,0.0,0.0,0.0,0.0,0.0,0.0,0.0,0.0,0.0,0.0,0.0,-0.8122,-0.8149,-0.8149,-0.8095,-0.8002,-0.7872,-0.7937,-0.7997,-0.8057,-0.8193,-0.8383,-0.8617,0.0,-0.8921,-0.9144,-0.9204,-0.9258,-0.9302,-0.9302,-0.9302,-0.9302,-0.9302,-0.9302,-0.9302,-0.9302,-0.9302,-0.9302,-0.9302,-0.9302,-0.9302,-0.9302,-0.9302,-0.9302,-0.9302,-0.9302,-0.9302,-0.9302,-0.9302,-0.9302,-0.9302,-0.9302,-0.9302,-0.9302,-0.9302,-0.9302,-0.9302,-0.9302,-0.9302,-0.9302,-0.9302,-0.9302,-0.9302,-0.9302,-0.9302,-0.9302,-0.9302,-0.9302,-0.9302,-0.9302,-0.9302,-0.9302,-0.9302,-0.9302,-0.9302,-0.9302,-0.9302,-0.9302,-0.9302,-0.9302,-0.9302,-0.9302,-0.9302,-0.9302,-0.9879,-1.0593,-1.1449,-1.2022,-1.2873,-0.3729,-0.3629,-0.3528,-0.3237,-0.2937,-0.2835,-0.324,-0.2845,-0.256,0.0,0.0,0.0,0.0,0.0,0.0,0.0,0.0,0.0,0.0,0.0,0.0,0.0,0.0,0.0,0.0,0.0,0.0,0.0,0.0,0.0,0.0,0.0,0.0,0.0,-0.8285,-0.828,-0.828,-0.8253,-0.8144,-0.7959,-0.8051,-0.8127,-0.8187,-0.8372,-0.8606,-0.8861,-0.8954,-0.9111,-0.9302,-0.9302,-0.9302,-0.9302,-0.9302,-0.9302,-0.9302,-0.9302,-0.9302,-0.9302,-0.9302,-0.9302,-0.9302,-0.9302,-0.9302,-0.9302,-0.9302,-0.9302,-0.9302,-0.9302,-0.9302,-0.9302,-0.9302,-0.9302,-0.9302,-0.9302,-0.9302,-0.9302,-0.9302,-0.9302,-0.9302,-0.9302,-0.9302,-0.9302,-0.9302,-0.9302,-0.9302,-0.9302,-0.9302,-0.9302,-0.9302,-0.9302,-0.9302,-0.9302,-0.9302,-0.9302,-0.9302,-0.9302,-0.9302,-0.9302,-0.9302,-0.9302,-0.9302,-0.9302,-0.9302,-0.9302,-0.9302,-0.9302,-0.9302,-0.9302,-0.9735,-1.0593,-1.0593,-1.1025,-0.272,-0.1411,-0.0304,-0.144,-0.2684,-0.3303,-0.268,-0.2402,0.0,-0.2435,0.0,0.0,0.0,0.0,0.0,0.0,0.0,0.0,0.0,0.0,0.0,0.0,0.0,0.0,0.0,0.0,0.0,0.0,0.0,0.0,0.0,0.0,0.0,0.0,0.0,-0.8552,-0.8552,-0.8296,-0.8225,-0.8209,-0.822,-0.8334,-0.8552,-0.8568,-0.8769,-0.9111,-0.9117,-0.9193,-0.9302,-0.9302,-0.9302,-0.9302,-0.9302,-0.9302,-0.9302,-0.9302,-0.9302,-0.9302,-0.9302,-0.9302,-0.9302,-0.9302,-0.9302,-0.9302,-0.9302,-0.9302,-0.9302,-0.9302,-0.9302,-0.9302,-0.9302,-0.9302,-0.9302,-0.9302,-0.9302,-0.9302,-0.9302,-0.9302,-0.9302,-0.9302,-0.9302,-0.9302,-0.9302,-0.9302,-0.9302,-0.9302,-0.9302,-0.9302,-0.9302,-0.9302,-0.9302,-0.9302,-0.9302,-0.9302,-0.9302,-0.9302,-0.9302,-0.9302,-0.9302,-0.9302,-0.9302,-0.9302,-0.9302,-0.9302,-0.9302,-0.9302,-0.9302,-0.9302,-0.9302,-0.9446,-0.9446,-0.9446,-0.1512,-0.0915,-0.0308,-0.031,-0.0737,0.0,0.0,-0.0212,0.0213,0.0216,0.0216,0.0,0.0,0.0,0.0,0.0,0.0,0.0,0.0,0.0,0.0,0.0,0.0,0.0,0.0,0.0,0.0,0.0,0.0,0.0,0.0,0.0,0.0,0.0,0.0,-0.6797,-0.8546,-0.8497,-0.8465,-0.8454,-0.8383,-0.8432,-0.8595,-0.8742,-0.8932,-0.9139,-0.9209,-0.9264,-0.9302,-0.9302,-0.9302,-0.9302,-0.9302,-0.9302,-0.9302,-0.9302,-0.9302,-0.9302,-0.9302,-0.9302,-0.9302,-0.9302,-0.9302,-0.9302,-0.9302,-0.9302,-0.9302,-0.9302,-0.9302,-0.9302,-0.9302,-0.9302,-0.9302,-0.9302,-0.9302,-0.9302,-0.9302,-0.9302,-0.9302,-0.9302,-0.9302,-0.9302,-0.9302,-0.9302,-0.9302,-0.9302,-0.9302,-0.9302,-0.9302,-0.9302,-0.9302,-0.9302,-0.9302,-0.9302,-0.9302,-0.9302,-0.9302,-0.9302,-0.9302,-0.9302,-0.9302,-0.9302,-0.934,-0.9416,-0.9416,-0.9454,-0.953,-0.953,-0.953,-0.953,-0.953,-0.9492,-0.0404,-0.0205,0.0104,0.0626,0.0,0.0,0.0867,0.13,0.1738,0.176,0.1764,0.0,0.0,0.0,0.0,0.0,0.0,0.0,0.0,0.0,0.0,0.0,0.0,0.0,0.0,0.0,0.0,0.0,0.0,0.0,0.0,0.0,0.0,0.0,0.0,0.0,-0.7259,-0.8205,-0.8622,-0.8644,-0.8568,-0.859,-0.8709,-0.8916,-0.9073,-0.9193,-0.9269,-0.9302,-0.9302,-0.9302,-0.9302,-0.9302,-0.9302,-0.9302,-0.9302,-0.9302,-0.9302,-0.9302,-0.9302,-0.9302,-0.9302,-0.9302,-0.9302,-0.9302,-0.9302,-0.9302,-0.9302,-0.9302,-0.9302,-0.9302,-0.9302,-0.9302,-0.9302,-0.9302,-0.9302,-0.9302,-0.9302,-0.9302,-0.9302,-0.9302,-0.9302,-0.9302,-0.9302,-0.9302,-0.9302,-0.9302,-0.9302,-0.9302,-0.9302,-0.9302,-0.9302,-0.9302,-0.9302,-0.9302,-0.9302,-0.9302,-0.9318,-0.9356,-0.9362,-0.9362,-0.9362,-0.9362,-0.9421,-0.9541,-0.9546,-0.9584,-0.9671,-0.9671,-0.9671,-0.9671,-0.9671,-0.9622,0.0404,0.1024,0.1669,0.1697,0.0,0.0,0.1789,0.1795,0.1795,0.1795,0.0,0.1795,0.0,0.0,0.0,0.0,0.0,0.0,0.0,0.0,0.0,0.0,0.0,0.0,0.0,0.0,0.0,0.0,0.0,0.0,0.0,0.0,0.0,0.0,0.0,0.0,-0.4294,-0.7125,-0.8671,-0.8769,-0.8774,-0.884,-0.8959,-0.9079,-0.9198,-0.9302,-0.9302,-0.9302,-0.9302,-0.9302,-0.9302,-0.9302,-0.9302,-0.9302,-0.9302,-0.9302,-0.9302,-0.9302,-0.9302,-0.9302,-0.9302,-0.9302,-0.9302,-0.9302,-0.9302,-0.9302,-0.9302,-0.9302,-0.9302,-0.9302,-0.9302,-0.9302,-0.9302,-0.9302,-0.9302,-0.9302,-0.9302,-0.9302,-0.9302,-0.9302,-0.9302,-0.9302,-0.9302,-0.9302,-0.9302,-0.9302,-0.9302,-0.9302,-0.9302,-0.9302,-0.9302,-0.9302,-0.9302,-0.9302,-0.9307,-0.9307,-0.9356,-0.9481,-0.9487,-0.9487,-0.9487,-0.9487,-0.9546,-0.9666,-0.9671,-0.9671,-0.9671,-0.9671,-0.9671,-0.9671,-0.9671,-0.9671,0.1335,0.1461,0.0,0.1729,0.0,0.0,0.0,0.1795,0.0,0.0,0.0,0.0,0.0,0.0,0.0,0.0,0.0,0.0,0.0,0.0,0.0,0.0,0.0,0.0,0.0,0.0,0.0,0.0,0.0,0.0,0.0,0.0,0.0,0.0,0.0,0.0,-0.1209,-0.6246,-0.8769,-0.8791,-0.8948,-0.9046,-0.9079,-0.9117,-0.9198,-0.9302,-0.9302,-0.9302,-0.9302,-0.9302,-0.9302,-0.9302,-0.9302,-0.9302,-0.9302,-0.9302,-0.9302,-0.9302,-0.9302,-0.9302,-0.9302,-0.9302,-0.9302,-0.9302,-0.9302,-0.9302,-0.9302,-0.9302,-0.9302,-0.9302,-0.9302,-0.9302,-0.9302,-0.9302,-0.9302,-0.9302,-0.9302,-0.9302,-0.9302,-0.9302,-0.9302,-0.9302,-0.9302,-0.9302,-0.9302,-0.9302,-0.9302,-0.9302,-0.9302,-0.9302,-0.9302,-0.9302,-0.9302,-0.934,-0.9427,-0.9432,-0.9487,-0.9606,-0.9617,-0.9617,-0.9617,-0.9617,-0.9671,-0.9786,-0.9786,-0.9829,-0.9916,-0.9916,-0.9916,-0.9916,-0.9916,-0.9873,0.1671,0.17,0.0,0.1745,0.1772,0.1798,0.181,0.0,0.0,0.0,0.0,0.0,0.0,0.0,0.0,0.0,0.0,0.0,0.0,0.0,0.0,0.0,0.0,0.0,0.0,0.0,0.0,0.0,0.0,0.0,0.0,0.0,0.0,0.0,0.0,0.0,0.0,-0.4809,-0.7779,-0.8938,-0.9073,-0.916,-0.9204,-0.9204,-0.9237,-0.9302,-0.9302,-0.9302,-0.9302,-0.9302,-0.9302,-0.9302,-0.9302,-0.9302,-0.9302,-0.9302,-0.9302,-0.9302,-0.9302,-0.9302,-0.9302,-0.9302,-0.9302,-0.9302,-0.9302,-0.9302,-0.9302,-0.9302,-0.9302,-0.9302,-0.9302,-0.9302,-0.9302,-0.9302,-0.9302,-0.9302,-0.9302,-0.9302,-0.9302,-0.9302,-0.9302,-0.9302,-0.9302,-0.9302,-0.9302,-0.9302,-0.9302,-0.9302,-0.9302,-0.9302,-0.9323,-0.9372,-0.9378,-0.9427,-0.9546,-0.9557,-0.9612,-0.9726,-0.9737,-0.9758,-0.9807,-0.9764,-0.9791,-0.9905,-0.9911,-0.9949,-1.0019,-1.0019,-1.0019,-1.0019,-1.0019,-0.9981,0.17,0.1729,0.0,0.1753,0.1776,0.0,0.0,0.0,0.0,0.0,0.0,0.0,0.0,0.0,0.0,0.0,0.0,0.0,0.0,0.0,0.0,0.0,0.0,0.0,0.0,0.0,0.0,0.0,0.0,0.0,0.0,0.0,0.0,0.0,0.0,0.0,0.0,-0.3343,-0.6489,0.0,-0.915,-0.9204,-0.9302,-0.9302,-0.9302,-0.9302,-0.9302,-0.9302,-0.9302,-0.9302,-0.9302,-0.9302,-0.9302,-0.9302,-0.9302,-0.9302,-0.9302,-0.9302,-0.9302,-0.9302,-0.9302,-0.9302,-0.9302,-0.9302,-0.9302,-0.9302,-0.9302,-0.9302,-0.9302,-0.9302,-0.9302,-0.9302,-0.9302,-0.9302,-0.9302,-0.9302,-0.9302,-0.9302,-0.9302,-0.9302,-0.9302,-0.9302,-0.9302,-0.9302,-0.9302,-0.9302,-0.9302,-0.9302,-0.9302,-0.9313,-0.9362,-0.9476,-0.9497,-0.9552,-0.9677,-0.9688,-0.9737,-0.9845,-0.9856,-0.9905,-1.0014,-0.9911,-0.9905,-1.0019,-1.0019,-1.0019,-1.0019,-1.0019,-1.0019,-1.0019,-1.0019,-1.0019,0.1731,0.1745,0.0,0.0,0.1808,0.1839,0.1869,0.0,0.0,0.0,0.0,0.0,0.0,0.0,0.0,0.0,0.0,0.0,0.0,0.0,0.0,0.0,0.0,0.0,0.0,0.0,0.0,0.0,0.0,0.0,0.0,0.0,0.0,0.0,0.0,0.0,0.0,-0.5521,-0.8576,0.0,-0.9253,-0.9291,-0.9302,-0.9302,-0.9302,-0.9302,-0.9302,-0.9302,-0.9302,-0.9302,-0.9302,-0.9302,-0.9302,-0.9302,-0.9302,-0.9302,-0.9302,-0.9302,-0.9302,-0.9302,-0.9302,-0.9302,-0.9302,-0.9302,-0.9302,-0.9302,-0.9302,-0.9302,-0.9302,-0.9302,-0.9302,-0.9302,-0.9302,-0.9302,-0.9302,-0.9302,-0.9302,-0.9302,-0.9302,-0.9302,-0.9302,-0.9302,-0.9302,-0.9302,-0.9302,-0.9302,-0.9302,-0.9302,-0.9302,-0.9389,-0.9459,-0.9487,-0.9574,-0.9677,-0.9791,-0.9802,-0.9851,-0.9976,-0.9981,-0.9992,-1.0019,-0.9992,-0.9992,-1.0019,-1.0019,-1.0019,-1.0019,-1.0019,-1.0019,-1.0019,-1.0019,-1.0019,0.1763,0.0,0.0,0.1791,0.0,0.1866,0.1883,0.0,0.0,0.0,0.0,0.0,0.0,0.0,0.0,0.0,0.0,0.0,0.0,0.0,0.0,0.0,0.0,0.0,0.0,0.0,0.0,0.0,0.0,0.0,0.0,0.0,0.0,0.0,0.0,0.0,0.0,-0.3154,-0.6354,-0.9275,-0.9313,-0.9323,-0.9302,-0.9302,-0.9302,-0.9302,-0.9302,-0.9302,-0.9302,-0.9302,-0.9302,-0.9302,-0.9302,-0.9302,-0.9302,-0.9302,-0.9302,-0.9302,-0.9302,-0.9302,-0.9302,-0.9302,-0.9302,-0.9302,-0.9302,-0.9302,-0.9302,-0.9302,-0.9302,-0.9302,-0.9302,-0.9302,-0.9302,-0.9302,-0.9302,-0.9302,-0.9302,-0.9302,-0.9302,-0.9302,-0.9302,-0.9302,-0.9302,-0.9302,-0.9323,-0.9383,-0.9389,-0.941,-0.947,-0.9536,-0.9595,-0.965,-0.9709,-0.9796,-0.9916,-0.9927,-0.9954,-1.0014,-1.0019,-1.0019,-1.0019,-1.0019,-1.0019,-1.0019,-1.0019,-1.0019,-1.0019,-1.0019,-1.0019,-1.0019,-1.0019,-1.0019,0.1789,0.0,0.1795,0.1795,0.1836,0.0,0.1884,0.0,0.0,0.0,0.0,0.0,0.0,0.0,0.0,0.0,0.0,0.0,0.0,0.0,0.0,0.0,0.0,0.0,0.0,0.0,0.0,0.0,0.0,0.0,0.0,0.0,0.0275,0.0,0.0,0.0,0.0,0.0,-0.2621,-0.7747,-0.8754,-0.9323,-0.9307,-0.9307,-0.9302,-0.9302,-0.9302,-0.9302,-0.9302,-0.9302,-0.9302,-0.9302,-0.9302,-0.9302,-0.9302,-0.9302,-0.9302,-0.9302,-0.9302,-0.9302,-0.9302,-0.9302,-0.9302,-0.9302,-0.9302,-0.9302,-0.9302,-0.9302,-0.9302,-0.9302,-0.9302,-0.9302,-0.9302,-0.9302,-0.9302,-0.9302,-0.9302,-0.9302,-0.9302,-0.9302,-0.9302,-0.9313,-0.9334,-0.9334,-0.9378,-0.9497,-0.9519,-0.9552,-0.9655,-0.9688,-0.9731,-0.9829,-0.9856,-0.9911,-1.0014,-1.0019,-1.0019,-1.0019,-1.0019,-1.0019,-1.0019,-1.0019,-1.0019,-1.0019,-1.0019,-1.0019,-1.0019,-1.0019,-1.0019,-1.0019,-1.0019,-1.0019,0.1794,0.0,0.1795,0.0,0.1821,0.1853,0.0,0.0,0.0,0.0,0.0,0.0,0.0,0.0,0.0,0.0,0.0,0.0,0.0,0.0,0.0,0.0,0.0,0.0,0.0,0.0,0.0,0.0,0.0,0.0,0.0,0.206,0.1251,0.0,0.0,0.0,0.0,0.0,-0.0437,-0.131,-0.6696,-0.9329,-0.9329,-0.9313,-0.9302,-0.9302,-0.9302,-0.9302,-0.9302,-0.9302,-0.9302,-0.9302,-0.9302,-0.9302,-0.9302,-0.9302,-0.9302,-0.9302,-0.9302,-0.9302,-0.9302,-0.9302,-0.9302,-0.9302,-0.9302,-0.9302,-0.9302,-0.9302,-0.9302,-0.9302,-0.9302,-0.9302,-0.9302,-0.9302,-0.9302,-0.9302,-0.9302,-0.9302,-0.9302,-0.9302,-0.9302,-0.934,-0.9443,-0.9465,-0.9503,-0.9628,-0.9644,-0.965,-0.9666,-0.9753,-0.9818,-0.9835,-0.9932,-1.0003,-1.0019,-1.0019,-1.0019,-1.0019,-1.0019,-1.0019,-1.0019,-1.0019,-1.0019,-1.0019,-1.0019,-1.0019,-1.0019,-1.0019,-1.0019,-1.0019,-1.0019,-1.0019,0.1795,0.1795,0.1795,0.0,0.1819,0.1849,0.1879,0.0,0.0,0.0,0.0,0.0,0.0,0.0,0.0,0.0,0.0,0.0,0.0,0.0,0.0,0.0,0.0,0.0,0.0,0.0,0.0,0.0,0.0,0.0,0.2199,0.2233,0.198,0.1288,0.0432,0.0,0.0,0.0,0.0,-0.0146,-0.6268,-0.9351,-0.9345,-0.934,-0.9323,-0.9302,-0.9302,-0.9302,-0.9302,-0.9302,-0.9302,-0.9302,-0.9302,-0.9302,-0.9302,-0.9302,-0.9302,-0.9302,-0.9302,-0.9302,-0.9302,-0.9302,-0.9302,-0.9302,-0.9302,-0.9302,-0.9302,-0.9302,-0.9302,-0.9302,-0.9302,-0.9302,-0.9302,-0.9302,-0.9302,-0.9302,-0.9302,-0.9302,-0.9323,-0.9394,-0.9405,-0.9449,-0.9568,-0.959,-0.9628,-0.9748,-0.9764,-0.9791,-0.9856,-0.9911,-0.9938,-0.9938,-0.9987,-1.0019,-1.0019,-1.0019,-1.0019,-1.0019,-1.0019,-1.0019,-1.0019,-1.0019,-1.0019,-1.0019,-1.0019,-1.0019,-1.0019,-1.0019,-1.0019,-1.0019,-1.0019,-1.0019,0.0,0.0,0.1795,0.1795,0.1812,0.1839,0.0,0.0,0.0,0.0,0.0,0.0,0.0,0.0,0.0,0.0,0.0,0.0,0.0,0.0,0.0,0.0,0.0,0.0,0.0,0.0,0.0,0.0,0.0,0.0,0.2222,0.2266,0.2294,0.2301,0.1162,0.0438,0.0,0.0,0.0,-0.0,-0.4665,-0.7742,-0.9216,-0.8474,-0.8164,-0.814,-0.9023,-0.9313,-0.9313,-0.9313,-0.9307,-0.9302,-0.9302,-0.9302,-0.9302,-0.9302,-0.9302,-0.9302,-0.9302,-0.9302,-0.9302,-0.9302,-0.9302,-0.9302,-0.9302,-0.9302,-0.9302,-0.9302,-0.9302,-0.9302,-0.9302,-0.9302,-0.9302,-0.9302,-0.9329,-0.9351,-0.9351,-0.9351,-0.9389,-0.9508,-0.9536,-0.9574,-0.9693,-0.9709,-0.9753,-0.9867,-0.9883,-0.9916,-1.0008,-1.0019,-1.0019,-1.0019,-1.0019,-1.0019,-1.0019,-1.0019,-1.0019,-1.0019,-1.0019,-1.0019,-1.0019,-1.0019,-1.0019,-1.0019,-1.0019,-1.0019,-1.0019,-1.0019,-1.0019,-1.0019,-1.0019,-1.0019,0.0,0.1795,0.0,0.1795,0.1795,0.0,0.0,0.0,0.0,0.0,0.0,0.0,0.0,0.0,0.0,0.0,0.0,0.0,0.0,0.0,0.0,0.0,0.0,0.0,0.0,0.0,0.0,0.0,0.0,0.0,0.2283,0.2289,0.2303,0.233,0.2187,0.1459,0.0,0.0,0.0,-0.0,-0.0291,-0.3641,-0.9222,-0.6268,-0.4947,-0.5093,-0.8029,-0.9345,-0.9329,-0.9329,-0.9318,-0.9302,-0.9302,-0.9302,-0.9302,-0.9302,-0.9302,-0.9302,-0.9302,-0.9302,-0.9302,-0.9302,-0.9302,-0.9302,-0.9302,-0.9302,-0.9302,-0.9302,-0.9302,-0.9302,-0.9302,-0.9302,-0.9302,-0.9302,-0.9394,-0.9476,-0.9476,-0.9476,-0.9514,-0.9633,-0.9661,-0.9699,-0.9807,-0.9829,-0.9867,-0.9992,-1.0008,-1.0014,-1.0019,-1.0019,-1.0019,-1.0019,-1.0019,-1.0019,-1.0019,-1.0019,-1.0019,-1.0019,-1.0019,-1.0019,-1.0019,-1.0019,-1.0019,-1.0019,-1.0019,-1.0019,-1.0019,-1.0019,-1.0019,-1.0019,-1.0019,-1.0019,0.0,0.0,0.0,0.1795,0.1809,0.1835,0.0,0.0,0.0,0.0,0.0,0.0,0.0,0.0,0.0,0.0,0.0,0.0,0.0,0.0,0.0,0.0,0.0,0.0,0.0,0.0,0.0,0.0,0.0,0.0,0.229,0.2308,0.2322,0.2333,0.2333,0.1604,0.0,0.0,0.0,0.0,0.0,-0.1166,-0.3356,-0.4233,-0.467,-0.4816,-0.5842,-0.6275,-0.6551,-0.8454,-0.9329,-0.9318,-0.9307,-0.9302,-0.9302,-0.9302,-0.9302,-0.9302,-0.9302,-0.9302,-0.9302,-0.9302,-0.9302,-0.9302,-0.9302,-0.9302,-0.9302,-0.9302,-0.9302,-0.9302,-0.9302,-0.9362,-0.9443,-0.9519,-0.9574,-0.9622,-0.9693,-0.9655,-0.9639,-0.9753,-0.9775,-0.9813,-0.9932,-0.9954,-0.997,-1.0014,-1.0019,-1.0019,-1.0019,-1.0019,-1.0019,-1.0019,-1.0019,-1.0019,-1.0019,-1.0019,-1.0019,-1.0019,-1.0019,-1.0019,-1.0019,-1.0019,-1.0019,-1.0019,-1.0019,-1.0019,-1.0019,-1.0019,-1.0019,-1.0019,-1.0019,-1.0019,0.1795,0.0,0.0,0.0,0.0,0.1851,0.0,0.0,0.0,0.0,0.0,0.0,0.0,0.0,0.0,0.0,0.0,0.0,0.0,0.0,0.0,0.0,0.0,0.0,0.0,0.0,0.0,0.0,0.0,0.0,0.2304,0.2323,0.2333,0.2333,0.2333,0.175,0.0729,0.0292,0.0,0.0,0.0,0.0,-0.0,-0.2191,-0.3068,-0.3068,-0.3068,-0.3063,-0.3346,-0.5383,-0.743,-0.934,-0.9318,-0.9313,-0.9313,-0.9307,-0.9302,-0.9302,-0.9302,-0.9302,-0.9302,-0.9302,-0.9302,-0.9302,-0.9302,-0.9302,-0.9302,-0.9302,-0.9334,-0.9367,-0.9367,-0.9454,-0.9579,-0.9699,-0.9726,-0.9758,-0.9873,-0.9807,-0.9758,-0.9878,-0.99,-0.9927,-1.0008,-1.0019,-1.0019,-1.0019,-1.0019,-1.0019,-1.0019,-1.0019,-1.0019,-1.0019,-1.0019,-1.0019,-1.0019,-1.0019,-1.0019,-1.0019,-1.0019,-1.0019,-1.0019,-1.0019,-1.0019,-1.0019,-1.0019,-1.0019,-1.0019,-1.0019,-1.0019,-1.0019,-1.0019,-1.0019,0.0,0.0,0.0,0.0,0.0,0.0,0.0,0.0,0.0,0.0,0.0,0.0,0.0,0.0,0.0,0.0,0.0,0.0,0.0,0.0,0.0,0.0,0.0,0.0,0.0,0.0,0.0,0.0,0.0,0.2304,0.2331,0.2333,0.2333,0.2333,0.2333,0.2333,0.2333,0.0875,0.0,0.0,0.0,0.0,0.0,0.0,0.0,0.0,0.0,0.0,0.0,0.0,-0.3494,-0.906,-0.9189,-0.9184,-0.9329,-0.9313,-0.9302,-0.9302,-0.9302,-0.9302,-0.9302,-0.9302,-0.9302,-0.9302,-0.9302,-0.9307,-0.9307,-0.9307,-0.94,-0.9492,-0.9497,-0.9584,-0.9704,-0.9818,-0.9845,-0.9873,-0.9992,-0.9927,-0.9878,-0.9998,-1.0019,-1.0019,-1.0019,-1.0019,-1.0019,-1.0019,-1.0019,-1.0019,-1.0019,-1.0019,-1.0019,-1.0019,-1.0019,-1.0019,-1.0019,-1.0019,-1.0019,-1.0019,-1.0019,-1.0019,-1.0019,-1.0019,-1.0019,-1.0019,-1.0019,-1.0019,-1.0019,-1.0019,-1.0019,-1.0019,-1.0019,-1.0019,0.1795,0.0,0.0,0.0,0.0,0.0,0.0,0.1948,0.0,0.0,0.0,0.0,0.0,0.0,0.0,0.0,0.0,0.0,0.0,0.0,0.0,0.0,0.0,0.0,0.0,0.0,0.0,0.0,0.2293,0.2324,0.2333,0.2333,0.2333,0.2333,0.2333,0.2333,0.2333,0.1898,0.1168,0.0,0.0,0.0,0.0,0.0,0.0,0.0,0.0,0.0,0.0,0.0,-0.1018,-0.2765,-0.5093,-0.728,-0.9329,-0.9323,-0.9313,-0.9302,-0.9302,-0.9302,-0.9302,-0.9302,-0.9302,-0.9302,-0.9302,-0.9367,-0.9438,-0.9438,-0.9525,-0.9639,-0.972,-0.9764,-0.9818,-0.9943,-0.997,-0.9981,-1.0014,-0.9992,-0.9981,-1.0014,-1.0019,-1.0019,-1.0019,-1.0019,-1.0019,-1.0019,-1.0019,-1.0019,-1.0019,-1.0019,-1.0019,-1.0019,-1.0019,-1.0019,-1.0019,-1.0019,-1.0019,-1.0019,-1.0019,-1.0019,-1.0019,-1.0019,-1.0019,-1.0019,-1.0019,-1.0019,-1.0019,-1.0019,-1.0019,-1.0019,-1.0019,-1.0019,0.0,0.0,0.0,0.0,0.0,0.0,0.2064,0.2329,0.0,0.0,0.0,0.0,0.0,0.0,0.0,0.0,0.0,0.0,0.0,0.0,0.0,0.0,0.0,0.0,0.0,0.0,0.0,0.0,0.2307,0.2333,0.2333,0.2333,0.2333,0.2333,0.2333,0.2333,0.2333,0.2335,0.1752,0.0438,0.0146,0.0,0.0,0.0,0.0,0.0,0.0,0.0,0.0,0.0,0.0,-0.0291,-0.3494,-0.5822,-0.7575,-0.8884,-0.9313,-0.9302,-0.9302,-0.9302,-0.9302,-0.9302,-0.934,-0.9378,-0.9378,-0.9465,-0.9563,-0.9563,-0.965,-0.9764,-0.9883,-0.9911,-0.9932,-1.0003,-1.0019,-1.0019,-1.0019,-1.0019,-1.0019,-1.0019,-1.0019,-1.0019,-1.0019,-1.0019,-1.0019,-1.0019,-1.0019,-1.0019,-1.0019,-1.0019,-1.0019,-1.0019,-1.0019,-1.0019,-1.0019,-1.0019,-1.0019,-1.0019,-1.0019,-1.0019,-1.0019,-1.0019,-1.0019,-1.0019,-1.0019,-1.0019,-1.0019,-1.0019,-1.0019,-1.0019,-1.0019,-1.0019,0.0,0.0,0.0,0.0,0.0,0.0,0.2704,0.3328,0.3815,0.0,0.0,0.0,0.0,0.0,0.0,0.0,0.0,0.0,0.0,0.0,0.0,0.0,0.0,0.0,0.0,0.0,0.2258,0.2289,0.2318,0.2333,0.2333,0.2333,0.2333,0.2333,0.2333,0.2333,0.2333,0.2335,0.1898,0.1168,0.0438,0.0,0.0,0.0,0.0,0.0,0.0,0.0,0.0,0.0,0.0,-0.0292,-0.3057,-0.466,-0.5531,-0.8295,-0.9307,-0.9307,-0.9307,-0.9302,-0.9307,-0.9318,-0.94,-0.9492,-0.9503,-0.959,-0.9693,-0.9704,-0.978,-0.9883,-0.9992,-1.0019,-1.0019,-1.0019,-1.0019,-1.0019,-1.0019,-1.0019,-1.0019,-1.0019,-1.0019,-1.0019,-1.0019,-1.0019,-1.0019,-1.0019,-1.0019,-1.0019,-1.0019,-1.0019,-1.0019,-1.0019,-1.0019,-1.0019,-1.0019,-1.0019,-1.0019,-1.0019,-1.0019,-1.0019,-1.0019,-1.0019,-1.0019,-1.0019,-1.0019,-1.0019,-1.0019,-1.0019,-1.0019,-1.0019,-1.0019,-1.0025,0.0,0.0,0.0,0.0,0.0,0.0,0.5147,0.5284,0.5406,0.0,0.0,0.0,0.0,0.0,0.0,0.0,0.0,0.0,0.0,0.0,0.0,0.0,0.0,0.0,0.0,0.0,0.2258,0.2289,0.2318,0.2333,0.2333,0.2333,0.2333,0.2333,0.2333,0.2333,0.2333,0.2333,0.1896,0.1168,0.0438,0.0,0.0,0.0,0.0,0.0,0.0,0.0,0.0,0.0,0.0,-0.0,-0.0729,-0.3939,-0.8479,-0.906,-0.934,-0.9323,-0.9307,-0.9302,-0.9318,-0.9421,-0.9465,-0.9503,-0.9606,-0.9715,-0.9824,-0.9921,-0.997,-0.9992,-1.0014,-1.0019,-1.0019,-1.0019,-1.0019,-1.0019,-1.0019,-1.0019,-1.0019,-1.0019,-1.0019,-1.0019,-1.0019,-1.0019,-1.0019,-1.0019,-1.0019,-1.0019,-1.0019,-1.0019,-1.0019,-1.0019,-1.0019,-1.0019,-1.0019,-1.0019,-1.0019,-1.0019,-1.0019,-1.0019,-1.0019,-1.0019,-1.0019,-1.0019,-1.0019,-1.0019,-1.0019,-1.0019,-1.0019,-1.0019,-1.0019,-1.0074,0.0,0.0,0.0,0.4674,0.0,0.0,0.0,0.6385,0.6752,0.0,0.0,0.0,0.0,0.0,0.0,0.0,0.0,0.0,0.0,0.0,0.0,0.0,0.0,0.0,0.0,0.0,0.2264,0.2308,0.2324,0.2333,0.2333,0.2333,0.2333,0.2333,0.2333,0.2333,0.2333,0.2333,0.2042,0.1752,0.0584,0.0,0.0,0.0,0.0,0.0,0.0,0.0,0.0,0.0,0.0,0.0,0.0,-0.1894,-0.4956,-0.6994,-0.8454,-0.9334,-0.9378,-0.9394,-0.9416,-0.9536,-0.9617,-0.9671,-0.9737,-0.9835,-0.9943,-1.0003,-1.0019,-1.0019,-1.0019,-1.0019,-1.0019,-1.0019,-1.0019,-1.0019,-1.0019,-1.0019,-1.0019,-1.0019,-1.0019,-1.0019,-1.0019,-1.0019,-1.0019,-1.0019,-1.0019,-1.0019,-1.0019,-1.0019,-1.0019,-1.0019,-1.0019,-1.0019,-1.0019,-1.0019,-1.0019,-1.0019,-1.0019,-1.0019,-1.0019,-1.0019,-1.0019,-1.0019,-1.0019,-1.0052,-1.0112,-1.0112,-1.0112,-1.0112,-1.0112,-1.0177,0.0,0.0,0.0,0.0,0.0,0.7978,0.0,0.0,0.0,0.0,0.0,0.0,0.0,0.0,0.0,0.0,0.0,0.0,0.0,0.0,0.0,0.0,0.0,0.0,0.0,0.0,0.2282,0.233,0.2333,0.2333,0.2333,0.2333,0.2333,0.2333,0.2333,0.2333,0.2333,0.2333,0.2334,0.2335,0.0876,0.0146,0.0,0.0,0.0,0.0,0.0,0.0,0.0,0.0,0.0,0.0,0.0,0.0,-0.0437,-0.3778,-0.6849,-0.9383,-0.9465,-0.9503,-0.9541,-0.9661,-0.978,-0.9873,-0.9873,-0.9943,-1.0019,-1.0019,-1.0019,-1.0019,-1.0019,-1.0019,-1.0019,-1.0019,-1.0019,-1.0019,-1.0019,-1.0019,-1.0019,-1.0019,-1.0019,-1.0019,-1.0019,-1.0019,-1.0019,-1.0019,-1.0019,-1.0019,-1.0019,-1.0019,-1.0019,-1.0019,-1.0019,-1.0019,-1.0019,-1.0019,-1.0019,-1.0019,-1.0019,-1.0019,-1.0019,-1.0041,-1.0068,-1.009,-1.009,-1.0139,-1.0237,-1.0237,-1.0237,-1.0237,-1.0237,-1.0302,0.0,0.0,0.0,0.0,0.8581,0.0,0.0,0.0,0.0,0.0,0.0,0.0,0.0,0.0,0.0,0.0,0.0,0.0,0.0,0.0,0.0,0.0,0.0,0.0,0.0,0.0,0.0,0.2333,0.2333,0.2333,0.2333,0.2333,0.2333,0.2333,0.2333,0.2333,0.2333,0.2333,0.2333,0.2333,0.1459,0.073,0.0,0.0,0.0,0.0,0.0,0.0,0.0,0.0,0.0,0.0,0.0,0.0,-0.0,-0.0582,-0.4543,-0.9656,-0.9508,-0.9574,-0.9666,-0.978,-0.99,-0.9998,-0.9998,-1.0008,-1.0019,-1.0019,-1.0019,-1.0019,-1.0019,-1.0019,-1.0019,-1.0019,-1.0019,-1.0019,-1.0019,-1.0019,-1.0019,-1.0019,-1.0019,-1.0019,-1.0019,-1.0019,-1.0019,-1.0019,-1.0019,-1.0019,-1.0019,-1.0019,-1.0019,-1.0019,-1.0019,-1.0019,-1.0019,-1.0019,-1.0019,-1.0019,-1.0019,-1.0019,-1.0019,-1.0123,-1.0231,-1.034,-1.0346,-1.0351,-1.0367,-1.0367,-1.0367,-1.0367,-1.0367,-1.0427,0.0,0.0,0.0,0.0,0.0,0.0,0.0,0.0,0.9822,0.0,0.0,0.0,0.0,0.0,0.0,0.0,0.0,0.0,0.0,0.0,0.0,0.0,0.0,0.0,0.0,0.0,0.0,0.0,0.0,0.2333,0.2333,0.2333,0.2333,0.2333,0.2333,0.2333,0.2333,0.2333,0.2333,0.2333,0.2043,0.1168,0.0,0.0,0.0,0.0,0.0,0.0,0.0,0.0,0.0,0.0,0.0,0.0,0.0,0.0,-0.4137,-0.9717,-0.9688,-0.9602,-0.9802,-0.9911,-0.9976,-1.0019,-1.0019,-1.0019,-1.0019,-1.0019,-1.0019,-1.0019,-1.0019,-1.0019,-1.0019,-1.0019,-1.0019,-1.0019,-1.0019,-1.0019,-1.0019,-1.0019,-1.0019,-1.0019,-1.0019,-1.0019,-1.0019,-1.0019,-1.0019,-1.0019,-1.0019,-1.0019,-1.0019,-1.0019,-1.0085,-1.0128,-1.0128,-1.0193,-1.0231,-1.0231,-1.0231,-1.0231,-1.0231,-1.028,-1.0335,-1.0384,-1.0384,-1.0416,-1.0487,-1.0487,-1.052,-1.059,-1.052,-1.0547,0.6141,0.0,0.0,0.0,0.0,0.0,0.0,0.0,0.0,0.0,0.0,0.0,0.0,0.0,0.0,0.0,0.0,0.0,0.0,0.0,0.0,0.0,0.0,0.0,0.0,0.0,0.0,0.0,0.2333,0.2333,0.2333,0.2333,0.2333,0.2333,0.2333,0.2333,0.2333,0.2333,0.2333,0.2333,0.2335,0.1606,0.0292,0.0146,0.0,0.0,0.0,0.0,0.0,0.0,0.0,0.0,0.0,0.0,0.0,0.0,-0.2992,-0.7239,-0.8135,-0.8972,-0.9932,-1.0003,-1.0025,-1.0025,-1.0019,-1.0019,-1.0019,-1.0019,-1.0019,-1.0019,-1.0019,-1.0019,-1.0019,-1.0019,-1.0019,-1.0019,-1.0019,-1.0019,-1.0019,-1.0019,-1.0019,-1.0019,-1.0019,-1.0019,-1.0019,-1.0019,-1.0019,-1.0019,-1.0019,-1.0052,-1.0068,-1.0068,-1.0182,-1.0253,-1.0253,-1.0335,-1.0384,-1.0384,-1.0384,-1.04,-1.0433,-1.0433,-1.0449,-1.0481,-1.0481,-1.0525,-1.0606,-1.0606,-1.065,-1.0732,-1.0645,-1.0655,0.0,0.0,0.0,0.9822,0.0,0.0,0.0,0.0,0.9822,0.0,0.0,0.0,0.0,0.0,1.01,1.0256,0.0,0.0,0.0,0.0,0.0,0.0,0.0,0.0,0.0,0.0,0.0,0.2333,0.2333,0.2333,0.2333,0.2333,0.2333,0.2333,0.2333,0.2333,0.2333,0.2333,0.2333,0.2333,0.2335,0.1898,0.1168,0.0292,0.0,0.0,0.0,0.0,0.0,0.0,0.0,0.0,0.0,0.0,0.0,0.0,-0.0152,-0.0769,-0.4008,-0.7313,-1.0063,-1.0052,-1.0047,-1.0041,-1.0025,-1.0019,-1.0019,-1.0019,-1.0019,-1.0019,-1.0019,-1.0019,-1.0019,-1.0019,-1.0019,-1.0019,-1.0019,-1.0019,-1.0019,-1.0019,-1.0019,-1.0019,-1.0019,-1.0019,-1.0019,-1.0019,-1.0019,-1.0019,-1.0019,-1.0123,-1.0199,-1.0199,-1.0307,-1.0378,-1.0378,-1.0384,-1.0384,-1.0384,-1.0384,-1.0438,-1.0547,-1.0552,-1.0606,-1.0721,-1.0726,-1.0726,-1.0732,-1.0732,-1.0732,-1.0737,-1.0732,-1.0732,0.0,0.0,0.9822,0.9822,0.0,0.0,0.0,0.0,0.0,0.0,0.0,0.0,0.0,0.0,1.0358,1.0412,1.0548,1.0643,0.0,0.0,0.0,0.0,0.0,0.0,0.0,0.0,0.0,0.2333,0.2333,0.2333,0.0,0.2333,0.2333,0.2333,0.2333,0.2333,0.2333,0.2333,0.2333,0.2333,0.2335,0.1898,0.1168,0.0438,0.0,0.0,0.0,0.0,0.0,0.0,0.0,0.0,0.0,0.0,0.0,0.0,0.0,-0.0154,-0.1243,-0.2499,-0.376,-0.5955,-0.8154,-1.0047,-1.0041,-1.003,-1.0019,-1.0019,-1.0019,-1.0019,-1.0019,-1.0019,-1.0019,-1.0019,-1.0019,-1.0019,-1.0019,-1.0019,-1.0019,-1.0019,-1.0019,-1.0019,-1.0019,-1.009,-1.0112,-1.003,-1.009,-1.0139,-1.0139,-1.0248,-1.0324,-1.0324,-1.0427,-1.0498,-1.0498,-1.0574,-1.0617,-1.0617,-1.0617,-1.0634,-1.0672,-1.0677,-1.0693,-1.0737,-1.0737,-1.0737,-1.0737,-1.0737,-1.0737,-1.0737,-1.0737,-1.0737,0.8593,0.9207,0.0,0.0,0.9863,0.0,0.9903,0.0,0.0,0.0,0.0,0.0,0.0,0.0,1.0507,1.0561,1.0656,1.0738,0.0,1.0887,0.0,0.0,0.0,0.0,0.0,0.0,0.3494,0.2333,0.277,0.2914,0.0,0.0,0.2333,0.2333,0.2333,0.2333,0.2333,0.2333,0.2333,0.2333,0.2335,0.2043,0.1606,0.0438,0.0,0.0,0.0,0.0,0.0,0.0,0.0,0.0,0.0,0.0,0.0,0.0,0.0,0.0,0.0,0.0,-0.0314,-0.2506,-0.4698,-0.6893,-0.9266,-1.0047,-1.0057,-1.0134,-1.0095,-1.0047,-1.0128,-1.0085,-1.0019,-1.0019,-1.0019,-1.0019,-1.0019,-1.0019,-1.0019,-1.0019,-1.0057,-1.0085,-1.0085,-1.0188,-1.0226,-1.0101,-1.0188,-1.0269,-1.0269,-1.0373,-1.0449,-1.0449,-1.0552,-1.0617,-1.0617,-1.0693,-1.0737,-1.0737,-1.0737,-1.0737,-1.0737,-1.0737,-1.0715,-1.0672,-1.0715,-1.0715,-1.0672,-1.0715,-1.0737,-1.0737,-1.0737,-1.0737]}]]